<?xml version="1.0" encoding="UTF-8" standalone="no" ?>
<gpx xmlns="http://www.topografix.com/GPX/1/1" xmlns:xsi="http://www.w3.org/2001/XMLSchema-instance" xsi:schemaLocation="http://www.topografix.com/GPX/1/1 http://www.topografix.com/GPX/1/1/gpx.xsd" version="1.1" creator="VisuGPX - https://www.visugpx.com">
  <metadata>
    <name>La grangeoise 64km 2011</name>
    <desc><![CDATA[parcours 64 65 km de la grangeoise 2011.
Bien sec, très roulant.

]]></desc>
  </metadata>
  <trk>
    <name><![CDATA[2011-10-23T07:06:42Z]]></name>
    <trkseg>
      <trkpt lat="48.50164" lon="2.01914">
        <ele>152</ele>
        <time>2011-10-23T07:06:43Z</time>
      </trkpt>
      <trkpt lat="48.50164" lon="2.01914">
        <ele>152</ele>
        <time>2011-10-23T07:06:44Z</time>
      </trkpt>
      <trkpt lat="48.5016" lon="2.0193">
        <ele>152</ele>
        <time>2011-10-23T07:06:48Z</time>
      </trkpt>
      <trkpt lat="48.50149" lon="2.01951">
        <ele>152</ele>
        <time>2011-10-23T07:06:53Z</time>
      </trkpt>
      <trkpt lat="48.50142" lon="2.01946">
        <ele>152</ele>
        <time>2011-10-23T07:06:56Z</time>
      </trkpt>
      <trkpt lat="48.50115" lon="2.01913">
        <ele>152</ele>
        <time>2011-10-23T07:07:04Z</time>
      </trkpt>
      <trkpt lat="48.50112" lon="2.01907">
        <ele>152</ele>
        <time>2011-10-23T07:07:05Z</time>
      </trkpt>
      <trkpt lat="48.50092" lon="2.0185">
        <ele>152</ele>
        <time>2011-10-23T07:07:13Z</time>
      </trkpt>
      <trkpt lat="48.50073" lon="2.01804">
        <ele>152</ele>
        <time>2011-10-23T07:07:20Z</time>
      </trkpt>
      <trkpt lat="48.50054" lon="2.0176">
        <ele>152</ele>
        <time>2011-10-23T07:07:26Z</time>
      </trkpt>
      <trkpt lat="48.50027" lon="2.01716">
        <ele>152</ele>
        <time>2011-10-23T07:07:32Z</time>
      </trkpt>
      <trkpt lat="48.49987" lon="2.01656">
        <ele>151</ele>
        <time>2011-10-23T07:07:41Z</time>
      </trkpt>
      <trkpt lat="48.49983" lon="2.0165">
        <ele>151</ele>
        <time>2011-10-23T07:07:42Z</time>
      </trkpt>
      <trkpt lat="48.49963" lon="2.01623">
        <ele>151</ele>
        <time>2011-10-23T07:07:48Z</time>
      </trkpt>
      <trkpt lat="48.4996" lon="2.01598">
        <ele>151</ele>
        <time>2011-10-23T07:07:53Z</time>
      </trkpt>
      <trkpt lat="48.49962" lon="2.01593">
        <ele>151</ele>
        <time>2011-10-23T07:07:54Z</time>
      </trkpt>
      <trkpt lat="48.49967" lon="2.01577">
        <ele>151</ele>
        <time>2011-10-23T07:07:57Z</time>
      </trkpt>
      <trkpt lat="48.49947" lon="2.01548">
        <ele>151</ele>
        <time>2011-10-23T07:08:02Z</time>
      </trkpt>
      <trkpt lat="48.49914" lon="2.01501">
        <ele>150</ele>
        <time>2011-10-23T07:08:09Z</time>
      </trkpt>
      <trkpt lat="48.4988" lon="2.01468">
        <ele>150</ele>
        <time>2011-10-23T07:08:15Z</time>
      </trkpt>
      <trkpt lat="48.49872" lon="2.01447">
        <ele>149</ele>
        <time>2011-10-23T07:08:18Z</time>
      </trkpt>
      <trkpt lat="48.49873" lon="2.01438">
        <ele>149</ele>
        <time>2011-10-23T07:08:19Z</time>
      </trkpt>
      <trkpt lat="48.49876" lon="2.01419">
        <ele>150</ele>
        <time>2011-10-23T07:08:21Z</time>
      </trkpt>
      <trkpt lat="48.49875" lon="2.01368">
        <ele>149</ele>
        <time>2011-10-23T07:08:26Z</time>
      </trkpt>
      <trkpt lat="48.49867" lon="2.01312">
        <ele>150</ele>
        <time>2011-10-23T07:08:32Z</time>
      </trkpt>
      <trkpt lat="48.4985" lon="2.0129">
        <ele>150</ele>
        <time>2011-10-23T07:08:36Z</time>
      </trkpt>
      <trkpt lat="48.4984" lon="2.01267">
        <ele>150</ele>
        <time>2011-10-23T07:08:39Z</time>
      </trkpt>
      <trkpt lat="48.49827" lon="2.01192">
        <ele>148</ele>
        <time>2011-10-23T07:08:46Z</time>
      </trkpt>
      <trkpt lat="48.49825" lon="2.01128">
        <ele>147</ele>
        <time>2011-10-23T07:08:52Z</time>
      </trkpt>
      <trkpt lat="48.49834" lon="2.01062">
        <ele>145</ele>
        <time>2011-10-23T07:08:59Z</time>
      </trkpt>
      <trkpt lat="48.49835" lon="2.01054">
        <ele>145</ele>
        <time>2011-10-23T07:09:00Z</time>
      </trkpt>
      <trkpt lat="48.49846" lon="2.01041">
        <ele>145</ele>
        <time>2011-10-23T07:09:03Z</time>
      </trkpt>
      <trkpt lat="48.4985" lon="2.01044">
        <ele>145</ele>
        <time>2011-10-23T07:09:04Z</time>
      </trkpt>
      <trkpt lat="48.49885" lon="2.01061">
        <ele>145</ele>
        <time>2011-10-23T07:09:10Z</time>
      </trkpt>
      <trkpt lat="48.49939" lon="2.01082">
        <ele>144</ele>
        <time>2011-10-23T07:09:18Z</time>
      </trkpt>
      <trkpt lat="48.4998" lon="2.011">
        <ele>144</ele>
        <time>2011-10-23T07:09:24Z</time>
      </trkpt>
      <trkpt lat="48.50037" lon="2.01128">
        <ele>143</ele>
        <time>2011-10-23T07:09:33Z</time>
      </trkpt>
      <trkpt lat="48.50089" lon="2.01155">
        <ele>144</ele>
        <time>2011-10-23T07:09:41Z</time>
      </trkpt>
      <trkpt lat="48.50134" lon="2.01179">
        <ele>145</ele>
        <time>2011-10-23T07:09:48Z</time>
      </trkpt>
      <trkpt lat="48.50165" lon="2.0119">
        <ele>144</ele>
        <time>2011-10-23T07:09:53Z</time>
      </trkpt>
      <trkpt lat="48.50182" lon="2.01195">
        <ele>145</ele>
        <time>2011-10-23T07:09:56Z</time>
      </trkpt>
      <trkpt lat="48.50212" lon="2.0122">
        <ele>146</ele>
        <time>2011-10-23T07:10:01Z</time>
      </trkpt>
      <trkpt lat="48.50241" lon="2.01248">
        <ele>146</ele>
        <time>2011-10-23T07:10:06Z</time>
      </trkpt>
      <trkpt lat="48.50261" lon="2.01265">
        <ele>145</ele>
        <time>2011-10-23T07:10:09Z</time>
      </trkpt>
      <trkpt lat="48.5028" lon="2.01284">
        <ele>144</ele>
        <time>2011-10-23T07:10:12Z</time>
      </trkpt>
      <trkpt lat="48.50316" lon="2.01341">
        <ele>139</ele>
        <time>2011-10-23T07:10:19Z</time>
      </trkpt>
      <trkpt lat="48.50334" lon="2.01402">
        <ele>137</ele>
        <time>2011-10-23T07:10:25Z</time>
      </trkpt>
      <trkpt lat="48.5034" lon="2.01418">
        <ele>136</ele>
        <time>2011-10-23T07:10:27Z</time>
      </trkpt>
      <trkpt lat="48.50353" lon="2.01438">
        <ele>136</ele>
        <time>2011-10-23T07:10:30Z</time>
      </trkpt>
      <trkpt lat="48.50364" lon="2.01449">
        <ele>137</ele>
        <time>2011-10-23T07:10:32Z</time>
      </trkpt>
      <trkpt lat="48.50373" lon="2.01454">
        <ele>137</ele>
        <time>2011-10-23T07:10:34Z</time>
      </trkpt>
      <trkpt lat="48.50383" lon="2.01437">
        <ele>137</ele>
        <time>2011-10-23T07:10:39Z</time>
      </trkpt>
      <trkpt lat="48.50387" lon="2.01424">
        <ele>138</ele>
        <time>2011-10-23T07:10:42Z</time>
      </trkpt>
      <trkpt lat="48.50394" lon="2.01408">
        <ele>140</ele>
        <time>2011-10-23T07:10:48Z</time>
      </trkpt>
      <trkpt lat="48.50398" lon="2.01391">
        <ele>141</ele>
        <time>2011-10-23T07:10:53Z</time>
      </trkpt>
      <trkpt lat="48.50401" lon="2.01381">
        <ele>141</ele>
        <time>2011-10-23T07:10:56Z</time>
      </trkpt>
      <trkpt lat="48.50405" lon="2.01355">
        <ele>143</ele>
        <time>2011-10-23T07:11:02Z</time>
      </trkpt>
      <trkpt lat="48.50414" lon="2.01332">
        <ele>147</ele>
        <time>2011-10-23T07:11:07Z</time>
      </trkpt>
      <trkpt lat="48.50421" lon="2.01311">
        <ele>149</ele>
        <time>2011-10-23T07:11:12Z</time>
      </trkpt>
      <trkpt lat="48.50424" lon="2.01293">
        <ele>150</ele>
        <time>2011-10-23T07:11:17Z</time>
      </trkpt>
      <trkpt lat="48.50415" lon="2.01272">
        <ele>147</ele>
        <time>2011-10-23T07:11:22Z</time>
      </trkpt>
      <trkpt lat="48.5041" lon="2.01251">
        <ele>149</ele>
        <time>2011-10-23T07:11:26Z</time>
      </trkpt>
      <trkpt lat="48.5042" lon="2.01225">
        <ele>151</ele>
        <time>2011-10-23T07:11:31Z</time>
      </trkpt>
      <trkpt lat="48.50422" lon="2.0122">
        <ele>151</ele>
        <time>2011-10-23T07:11:32Z</time>
      </trkpt>
      <trkpt lat="48.50435" lon="2.01186">
        <ele>151</ele>
        <time>2011-10-23T07:11:39Z</time>
      </trkpt>
      <trkpt lat="48.50441" lon="2.01152">
        <ele>151</ele>
        <time>2011-10-23T07:11:45Z</time>
      </trkpt>
      <trkpt lat="48.50447" lon="2.01124">
        <ele>150</ele>
        <time>2011-10-23T07:11:50Z</time>
      </trkpt>
      <trkpt lat="48.50458" lon="2.01083">
        <ele>150</ele>
        <time>2011-10-23T07:11:57Z</time>
      </trkpt>
      <trkpt lat="48.50471" lon="2.01026">
        <ele>150</ele>
        <time>2011-10-23T07:12:05Z</time>
      </trkpt>
      <trkpt lat="48.50481" lon="2.00963">
        <ele>150</ele>
        <time>2011-10-23T07:12:13Z</time>
      </trkpt>
      <trkpt lat="48.50496" lon="2.00864">
        <ele>151</ele>
        <time>2011-10-23T07:12:25Z</time>
      </trkpt>
      <trkpt lat="48.50498" lon="2.00847">
        <ele>151</ele>
        <time>2011-10-23T07:12:27Z</time>
      </trkpt>
      <trkpt lat="48.50508" lon="2.00788">
        <ele>152</ele>
        <time>2011-10-23T07:12:34Z</time>
      </trkpt>
      <trkpt lat="48.50522" lon="2.00693">
        <ele>153</ele>
        <time>2011-10-23T07:12:45Z</time>
      </trkpt>
      <trkpt lat="48.50537" lon="2.00593">
        <ele>153</ele>
        <time>2011-10-23T07:12:56Z</time>
      </trkpt>
      <trkpt lat="48.50551" lon="2.00503">
        <ele>154</ele>
        <time>2011-10-23T07:13:06Z</time>
      </trkpt>
      <trkpt lat="48.50566" lon="2.00412">
        <ele>155</ele>
        <time>2011-10-23T07:13:16Z</time>
      </trkpt>
      <trkpt lat="48.50578" lon="2.00358">
        <ele>156</ele>
        <time>2011-10-23T07:13:22Z</time>
      </trkpt>
      <trkpt lat="48.50598" lon="2.00278">
        <ele>160</ele>
        <time>2011-10-23T07:13:31Z</time>
      </trkpt>
      <trkpt lat="48.50602" lon="2.00262">
        <ele>160</ele>
        <time>2011-10-23T07:13:33Z</time>
      </trkpt>
      <trkpt lat="48.50606" lon="2.00235">
        <ele>158</ele>
        <time>2011-10-23T07:13:37Z</time>
      </trkpt>
      <trkpt lat="48.50627" lon="2.0021">
        <ele>156</ele>
        <time>2011-10-23T07:13:42Z</time>
      </trkpt>
      <trkpt lat="48.50643" lon="2.00191">
        <ele>156</ele>
        <time>2011-10-23T07:13:45Z</time>
      </trkpt>
      <trkpt lat="48.5066" lon="2.0015">
        <ele>149</ele>
        <time>2011-10-23T07:13:50Z</time>
      </trkpt>
      <trkpt lat="48.50661" lon="2.00103">
        <ele>143</ele>
        <time>2011-10-23T07:13:54Z</time>
      </trkpt>
      <trkpt lat="48.50662" lon="2.00076">
        <ele>137</ele>
        <time>2011-10-23T07:13:56Z</time>
      </trkpt>
      <trkpt lat="48.50674" lon="2.00028">
        <ele>136</ele>
        <time>2011-10-23T07:14:00Z</time>
      </trkpt>
      <trkpt lat="48.50685" lon="2.00003">
        <ele>133</ele>
        <time>2011-10-23T07:14:03Z</time>
      </trkpt>
      <trkpt lat="48.50708" lon="1.99953">
        <ele>125</ele>
        <time>2011-10-23T07:14:09Z</time>
      </trkpt>
      <trkpt lat="48.50723" lon="1.99906">
        <ele>115</ele>
        <time>2011-10-23T07:14:14Z</time>
      </trkpt>
      <trkpt lat="48.50731" lon="1.99876">
        <ele>113</ele>
        <time>2011-10-23T07:14:18Z</time>
      </trkpt>
      <trkpt lat="48.50727" lon="1.99869">
        <ele>112</ele>
        <time>2011-10-23T07:14:21Z</time>
      </trkpt>
      <trkpt lat="48.50725" lon="1.99869">
        <ele>112</ele>
        <time>2011-10-23T07:14:28Z</time>
      </trkpt>
      <trkpt lat="48.50723" lon="1.9987">
        <ele>112</ele>
        <time>2011-10-23T07:14:30Z</time>
      </trkpt>
      <trkpt lat="48.50711" lon="1.99877">
        <ele>112</ele>
        <time>2011-10-23T07:14:36Z</time>
      </trkpt>
      <trkpt lat="48.50694" lon="1.99897">
        <ele>113</ele>
        <time>2011-10-23T07:14:42Z</time>
      </trkpt>
      <trkpt lat="48.50679" lon="1.99913">
        <ele>113</ele>
        <time>2011-10-23T07:14:46Z</time>
      </trkpt>
      <trkpt lat="48.50652" lon="1.99937">
        <ele>115</ele>
        <time>2011-10-23T07:14:52Z</time>
      </trkpt>
      <trkpt lat="48.50621" lon="1.99953">
        <ele>115</ele>
        <time>2011-10-23T07:14:58Z</time>
      </trkpt>
      <trkpt lat="48.50606" lon="1.9996">
        <ele>115</ele>
        <time>2011-10-23T07:15:01Z</time>
      </trkpt>
      <trkpt lat="48.50568" lon="1.99972">
        <ele>112</ele>
        <time>2011-10-23T07:15:08Z</time>
      </trkpt>
      <trkpt lat="48.50535" lon="1.99979">
        <ele>112</ele>
        <time>2011-10-23T07:15:14Z</time>
      </trkpt>
      <trkpt lat="48.50508" lon="2.00001">
        <ele>115</ele>
        <time>2011-10-23T07:15:20Z</time>
      </trkpt>
      <trkpt lat="48.50491" lon="2.00018">
        <ele>115</ele>
        <time>2011-10-23T07:15:24Z</time>
      </trkpt>
      <trkpt lat="48.50468" lon="2.00047">
        <ele>116</ele>
        <time>2011-10-23T07:15:29Z</time>
      </trkpt>
      <trkpt lat="48.50435" lon="2.00075">
        <ele>116</ele>
        <time>2011-10-23T07:15:35Z</time>
      </trkpt>
      <trkpt lat="48.50404" lon="2.00083">
        <ele>116</ele>
        <time>2011-10-23T07:15:40Z</time>
      </trkpt>
      <trkpt lat="48.50398" lon="2.00082">
        <ele>116</ele>
        <time>2011-10-23T07:15:41Z</time>
      </trkpt>
      <trkpt lat="48.50361" lon="2.00076">
        <ele>118</ele>
        <time>2011-10-23T07:15:48Z</time>
      </trkpt>
      <trkpt lat="48.50349" lon="2.00055">
        <ele>117</ele>
        <time>2011-10-23T07:15:52Z</time>
      </trkpt>
      <trkpt lat="48.50347" lon="2.0004">
        <ele>117</ele>
        <time>2011-10-23T07:15:54Z</time>
      </trkpt>
      <trkpt lat="48.50338" lon="1.99993">
        <ele>116</ele>
        <time>2011-10-23T07:16:01Z</time>
      </trkpt>
      <trkpt lat="48.50334" lon="1.99981">
        <ele>115</ele>
        <time>2011-10-23T07:16:03Z</time>
      </trkpt>
      <trkpt lat="48.50329" lon="1.9997">
        <ele>118</ele>
        <time>2011-10-23T07:16:05Z</time>
      </trkpt>
      <trkpt lat="48.50324" lon="1.99954">
        <ele>118</ele>
        <time>2011-10-23T07:16:08Z</time>
      </trkpt>
      <trkpt lat="48.50314" lon="1.99929">
        <ele>118</ele>
        <time>2011-10-23T07:16:13Z</time>
      </trkpt>
      <trkpt lat="48.50311" lon="1.99924">
        <ele>118</ele>
        <time>2011-10-23T07:16:14Z</time>
      </trkpt>
      <trkpt lat="48.503" lon="1.99904">
        <ele>118</ele>
        <time>2011-10-23T07:16:18Z</time>
      </trkpt>
      <trkpt lat="48.50275" lon="1.99852">
        <ele>119</ele>
        <time>2011-10-23T07:16:26Z</time>
      </trkpt>
      <trkpt lat="48.50266" lon="1.99829">
        <ele>119</ele>
        <time>2011-10-23T07:16:29Z</time>
      </trkpt>
      <trkpt lat="48.50262" lon="1.99787">
        <ele>118</ele>
        <time>2011-10-23T07:16:34Z</time>
      </trkpt>
      <trkpt lat="48.5026" lon="1.99778">
        <ele>118</ele>
        <time>2011-10-23T07:16:35Z</time>
      </trkpt>
      <trkpt lat="48.50254" lon="1.99737">
        <ele>119</ele>
        <time>2011-10-23T07:16:40Z</time>
      </trkpt>
      <trkpt lat="48.50253" lon="1.99722">
        <ele>119</ele>
        <time>2011-10-23T07:16:42Z</time>
      </trkpt>
      <trkpt lat="48.50253" lon="1.99708">
        <ele>119</ele>
        <time>2011-10-23T07:16:44Z</time>
      </trkpt>
      <trkpt lat="48.50255" lon="1.9967">
        <ele>120</ele>
        <time>2011-10-23T07:16:50Z</time>
      </trkpt>
      <trkpt lat="48.50255" lon="1.99665">
        <ele>121</ele>
        <time>2011-10-23T07:16:51Z</time>
      </trkpt>
      <trkpt lat="48.50254" lon="1.99618">
        <ele>120</ele>
        <time>2011-10-23T07:16:57Z</time>
      </trkpt>
      <trkpt lat="48.50254" lon="1.9961">
        <ele>120</ele>
        <time>2011-10-23T07:16:58Z</time>
      </trkpt>
      <trkpt lat="48.50252" lon="1.99561">
        <ele>121</ele>
        <time>2011-10-23T07:17:04Z</time>
      </trkpt>
      <trkpt lat="48.50252" lon="1.99522">
        <ele>121</ele>
        <time>2011-10-23T07:17:09Z</time>
      </trkpt>
      <trkpt lat="48.50251" lon="1.99506">
        <ele>122</ele>
        <time>2011-10-23T07:17:11Z</time>
      </trkpt>
      <trkpt lat="48.50248" lon="1.99486">
        <ele>124</ele>
        <time>2011-10-23T07:17:14Z</time>
      </trkpt>
      <trkpt lat="48.50237" lon="1.99476">
        <ele>125</ele>
        <time>2011-10-23T07:17:18Z</time>
      </trkpt>
      <trkpt lat="48.50234" lon="1.99475">
        <ele>125</ele>
        <time>2011-10-23T07:17:19Z</time>
      </trkpt>
      <trkpt lat="48.502" lon="1.99458">
        <ele>126</ele>
        <time>2011-10-23T07:17:25Z</time>
      </trkpt>
      <trkpt lat="48.50188" lon="1.99448">
        <ele>126</ele>
        <time>2011-10-23T07:17:27Z</time>
      </trkpt>
      <trkpt lat="48.50166" lon="1.99428">
        <ele>127</ele>
        <time>2011-10-23T07:17:30Z</time>
      </trkpt>
      <trkpt lat="48.50129" lon="1.9939">
        <ele>129</ele>
        <time>2011-10-23T07:17:36Z</time>
      </trkpt>
      <trkpt lat="48.50113" lon="1.99374">
        <ele>130</ele>
        <time>2011-10-23T07:17:39Z</time>
      </trkpt>
      <trkpt lat="48.50099" lon="1.9936">
        <ele>130</ele>
        <time>2011-10-23T07:17:42Z</time>
      </trkpt>
      <trkpt lat="48.50079" lon="1.99359">
        <ele>128</ele>
        <time>2011-10-23T07:17:46Z</time>
      </trkpt>
      <trkpt lat="48.50054" lon="1.99362">
        <ele>128</ele>
        <time>2011-10-23T07:17:51Z</time>
      </trkpt>
      <trkpt lat="48.50034" lon="1.99364">
        <ele>127</ele>
        <time>2011-10-23T07:17:54Z</time>
      </trkpt>
      <trkpt lat="48.50005" lon="1.99355">
        <ele>127</ele>
        <time>2011-10-23T07:17:58Z</time>
      </trkpt>
      <trkpt lat="48.49999" lon="1.99349">
        <ele>127</ele>
        <time>2011-10-23T07:17:59Z</time>
      </trkpt>
      <trkpt lat="48.49976" lon="1.99325">
        <ele>128</ele>
        <time>2011-10-23T07:18:03Z</time>
      </trkpt>
      <trkpt lat="48.49958" lon="1.9932">
        <ele>129</ele>
        <time>2011-10-23T07:18:07Z</time>
      </trkpt>
      <trkpt lat="48.4995" lon="1.99318">
        <ele>129</ele>
        <time>2011-10-23T07:18:09Z</time>
      </trkpt>
      <trkpt lat="48.49924" lon="1.99301">
        <ele>129</ele>
        <time>2011-10-23T07:18:14Z</time>
      </trkpt>
      <trkpt lat="48.49915" lon="1.99295">
        <ele>132</ele>
        <time>2011-10-23T07:18:16Z</time>
      </trkpt>
      <trkpt lat="48.49891" lon="1.99266">
        <ele>133</ele>
        <time>2011-10-23T07:18:22Z</time>
      </trkpt>
      <trkpt lat="48.49878" lon="1.99248">
        <ele>132</ele>
        <time>2011-10-23T07:18:26Z</time>
      </trkpt>
      <trkpt lat="48.49855" lon="1.99224">
        <ele>133</ele>
        <time>2011-10-23T07:18:32Z</time>
      </trkpt>
      <trkpt lat="48.49847" lon="1.99216">
        <ele>132</ele>
        <time>2011-10-23T07:18:34Z</time>
      </trkpt>
      <trkpt lat="48.4983" lon="1.99203">
        <ele>137</ele>
        <time>2011-10-23T07:18:38Z</time>
      </trkpt>
      <trkpt lat="48.49812" lon="1.99201">
        <ele>138</ele>
        <time>2011-10-23T07:18:42Z</time>
      </trkpt>
      <trkpt lat="48.49803" lon="1.99203">
        <ele>139</ele>
        <time>2011-10-23T07:18:44Z</time>
      </trkpt>
      <trkpt lat="48.49777" lon="1.99204">
        <ele>141</ele>
        <time>2011-10-23T07:18:51Z</time>
      </trkpt>
      <trkpt lat="48.4976" lon="1.99206">
        <ele>142</ele>
        <time>2011-10-23T07:18:56Z</time>
      </trkpt>
      <trkpt lat="48.49745" lon="1.99206">
        <ele>149</ele>
        <time>2011-10-23T07:19:02Z</time>
      </trkpt>
      <trkpt lat="48.49743" lon="1.99207">
        <ele>149</ele>
        <time>2011-10-23T07:19:04Z</time>
      </trkpt>
      <trkpt lat="48.49729" lon="1.99207">
        <ele>150</ele>
        <time>2011-10-23T07:19:10Z</time>
      </trkpt>
      <trkpt lat="48.49716" lon="1.99205">
        <ele>150</ele>
        <time>2011-10-23T07:19:16Z</time>
      </trkpt>
      <trkpt lat="48.497" lon="1.99202">
        <ele>151</ele>
        <time>2011-10-23T07:19:22Z</time>
      </trkpt>
      <trkpt lat="48.49684" lon="1.99197">
        <ele>152</ele>
        <time>2011-10-23T07:19:29Z</time>
      </trkpt>
      <trkpt lat="48.49672" lon="1.99193">
        <ele>153</ele>
        <time>2011-10-23T07:19:34Z</time>
      </trkpt>
      <trkpt lat="48.49657" lon="1.99191">
        <ele>156</ele>
        <time>2011-10-23T07:19:39Z</time>
      </trkpt>
      <trkpt lat="48.49649" lon="1.99203">
        <ele>156</ele>
        <time>2011-10-23T07:19:43Z</time>
      </trkpt>
      <trkpt lat="48.49638" lon="1.99216">
        <ele>155</ele>
        <time>2011-10-23T07:19:48Z</time>
      </trkpt>
      <trkpt lat="48.49624" lon="1.9922">
        <ele>155</ele>
        <time>2011-10-23T07:19:53Z</time>
      </trkpt>
      <trkpt lat="48.49616" lon="1.99203">
        <ele>156</ele>
        <time>2011-10-23T07:19:58Z</time>
      </trkpt>
      <trkpt lat="48.496" lon="1.9917">
        <ele>157</ele>
        <time>2011-10-23T07:20:04Z</time>
      </trkpt>
      <trkpt lat="48.49596" lon="1.99165">
        <ele>158</ele>
        <time>2011-10-23T07:20:05Z</time>
      </trkpt>
      <trkpt lat="48.4959" lon="1.99153">
        <ele>158</ele>
        <time>2011-10-23T07:20:07Z</time>
      </trkpt>
      <trkpt lat="48.49587" lon="1.99145">
        <ele>158</ele>
        <time>2011-10-23T07:20:09Z</time>
      </trkpt>
      <trkpt lat="48.49582" lon="1.99136">
        <ele>158</ele>
        <time>2011-10-23T07:20:11Z</time>
      </trkpt>
      <trkpt lat="48.49569" lon="1.99105">
        <ele>158</ele>
        <time>2011-10-23T07:20:17Z</time>
      </trkpt>
      <trkpt lat="48.49561" lon="1.9908">
        <ele>159</ele>
        <time>2011-10-23T07:20:23Z</time>
      </trkpt>
      <trkpt lat="48.49554" lon="1.99044">
        <ele>159</ele>
        <time>2011-10-23T07:20:28Z</time>
      </trkpt>
      <trkpt lat="48.49552" lon="1.99036">
        <ele>159</ele>
        <time>2011-10-23T07:20:29Z</time>
      </trkpt>
      <trkpt lat="48.49546" lon="1.99012">
        <ele>159</ele>
        <time>2011-10-23T07:20:32Z</time>
      </trkpt>
      <trkpt lat="48.49534" lon="1.98973">
        <ele>159</ele>
        <time>2011-10-23T07:20:37Z</time>
      </trkpt>
      <trkpt lat="48.4952" lon="1.98944">
        <ele>159</ele>
        <time>2011-10-23T07:20:41Z</time>
      </trkpt>
      <trkpt lat="48.49501" lon="1.98912">
        <ele>159</ele>
        <time>2011-10-23T07:20:46Z</time>
      </trkpt>
      <trkpt lat="48.49496" lon="1.989">
        <ele>159</ele>
        <time>2011-10-23T07:20:48Z</time>
      </trkpt>
      <trkpt lat="48.49483" lon="1.98873">
        <ele>158</ele>
        <time>2011-10-23T07:20:52Z</time>
      </trkpt>
      <trkpt lat="48.49469" lon="1.98844">
        <ele>157</ele>
        <time>2011-10-23T07:20:56Z</time>
      </trkpt>
      <trkpt lat="48.49461" lon="1.98824">
        <ele>154</ele>
        <time>2011-10-23T07:20:59Z</time>
      </trkpt>
      <trkpt lat="48.49456" lon="1.98807">
        <ele>153</ele>
        <time>2011-10-23T07:21:04Z</time>
      </trkpt>
      <trkpt lat="48.4947" lon="1.9879">
        <ele>152</ele>
        <time>2011-10-23T07:21:08Z</time>
      </trkpt>
      <trkpt lat="48.49487" lon="1.98765">
        <ele>151</ele>
        <time>2011-10-23T07:21:11Z</time>
      </trkpt>
      <trkpt lat="48.49506" lon="1.98735">
        <ele>144</ele>
        <time>2011-10-23T07:21:14Z</time>
      </trkpt>
      <trkpt lat="48.49539" lon="1.98681">
        <ele>139</ele>
        <time>2011-10-23T07:21:19Z</time>
      </trkpt>
      <trkpt lat="48.49561" lon="1.98644">
        <ele>134</ele>
        <time>2011-10-23T07:21:23Z</time>
      </trkpt>
      <trkpt lat="48.49565" lon="1.98631">
        <ele>134</ele>
        <time>2011-10-23T07:21:25Z</time>
      </trkpt>
      <trkpt lat="48.49576" lon="1.98611">
        <ele>133</ele>
        <time>2011-10-23T07:21:28Z</time>
      </trkpt>
      <trkpt lat="48.49593" lon="1.98592">
        <ele>131</ele>
        <time>2011-10-23T07:21:31Z</time>
      </trkpt>
      <trkpt lat="48.49642" lon="1.98541">
        <ele>131</ele>
        <time>2011-10-23T07:21:38Z</time>
      </trkpt>
      <trkpt lat="48.49647" lon="1.98535">
        <ele>131</ele>
        <time>2011-10-23T07:21:39Z</time>
      </trkpt>
      <trkpt lat="48.49678" lon="1.98503">
        <ele>134</ele>
        <time>2011-10-23T07:21:45Z</time>
      </trkpt>
      <trkpt lat="48.49691" lon="1.98489">
        <ele>136</ele>
        <time>2011-10-23T07:21:49Z</time>
      </trkpt>
      <trkpt lat="48.497" lon="1.98479">
        <ele>137</ele>
        <time>2011-10-23T07:21:53Z</time>
      </trkpt>
      <trkpt lat="48.49711" lon="1.98463">
        <ele>138</ele>
        <time>2011-10-23T07:21:59Z</time>
      </trkpt>
      <trkpt lat="48.4972" lon="1.98451">
        <ele>138</ele>
        <time>2011-10-23T07:22:05Z</time>
      </trkpt>
      <trkpt lat="48.49727" lon="1.98442">
        <ele>139</ele>
        <time>2011-10-23T07:22:10Z</time>
      </trkpt>
      <trkpt lat="48.4974" lon="1.98434">
        <ele>140</ele>
        <time>2011-10-23T07:22:16Z</time>
      </trkpt>
      <trkpt lat="48.49748" lon="1.98429">
        <ele>142</ele>
        <time>2011-10-23T07:22:21Z</time>
      </trkpt>
      <trkpt lat="48.49759" lon="1.98422">
        <ele>145</ele>
        <time>2011-10-23T07:22:27Z</time>
      </trkpt>
      <trkpt lat="48.49772" lon="1.98414">
        <ele>146</ele>
        <time>2011-10-23T07:22:33Z</time>
      </trkpt>
      <trkpt lat="48.49782" lon="1.98404">
        <ele>147</ele>
        <time>2011-10-23T07:22:37Z</time>
      </trkpt>
      <trkpt lat="48.49798" lon="1.98393">
        <ele>148</ele>
        <time>2011-10-23T07:22:42Z</time>
      </trkpt>
      <trkpt lat="48.49814" lon="1.9838">
        <ele>149</ele>
        <time>2011-10-23T07:22:47Z</time>
      </trkpt>
      <trkpt lat="48.49833" lon="1.98366">
        <ele>149</ele>
        <time>2011-10-23T07:22:52Z</time>
      </trkpt>
      <trkpt lat="48.49841" lon="1.98361">
        <ele>154</ele>
        <time>2011-10-23T07:22:54Z</time>
      </trkpt>
      <trkpt lat="48.49858" lon="1.98362">
        <ele>154</ele>
        <time>2011-10-23T07:22:58Z</time>
      </trkpt>
      <trkpt lat="48.49861" lon="1.98364">
        <ele>154</ele>
        <time>2011-10-23T07:23:01Z</time>
      </trkpt>
      <trkpt lat="48.49874" lon="1.98382">
        <ele>155</ele>
        <time>2011-10-23T07:23:07Z</time>
      </trkpt>
      <trkpt lat="48.49886" lon="1.9841">
        <ele>155</ele>
        <time>2011-10-23T07:23:12Z</time>
      </trkpt>
      <trkpt lat="48.49895" lon="1.98427">
        <ele>156</ele>
        <time>2011-10-23T07:23:15Z</time>
      </trkpt>
      <trkpt lat="48.49903" lon="1.98446">
        <ele>156</ele>
        <time>2011-10-23T07:23:18Z</time>
      </trkpt>
      <trkpt lat="48.49915" lon="1.98472">
        <ele>156</ele>
        <time>2011-10-23T07:23:22Z</time>
      </trkpt>
      <trkpt lat="48.4993" lon="1.98505">
        <ele>158</ele>
        <time>2011-10-23T07:23:27Z</time>
      </trkpt>
      <trkpt lat="48.49949" lon="1.98547">
        <ele>157</ele>
        <time>2011-10-23T07:23:33Z</time>
      </trkpt>
      <trkpt lat="48.49952" lon="1.98553">
        <ele>157</ele>
        <time>2011-10-23T07:23:34Z</time>
      </trkpt>
      <trkpt lat="48.49964" lon="1.98589">
        <ele>155</ele>
        <time>2011-10-23T07:23:39Z</time>
      </trkpt>
      <trkpt lat="48.49976" lon="1.98621">
        <ele>155</ele>
        <time>2011-10-23T07:23:44Z</time>
      </trkpt>
      <trkpt lat="48.49989" lon="1.98651">
        <ele>155</ele>
        <time>2011-10-23T07:23:49Z</time>
      </trkpt>
      <trkpt lat="48.49999" lon="1.98673">
        <ele>155</ele>
        <time>2011-10-23T07:23:53Z</time>
      </trkpt>
      <trkpt lat="48.50019" lon="1.98717">
        <ele>157</ele>
        <time>2011-10-23T07:23:59Z</time>
      </trkpt>
      <trkpt lat="48.50034" lon="1.98759">
        <ele>157</ele>
        <time>2011-10-23T07:24:04Z</time>
      </trkpt>
      <trkpt lat="48.50048" lon="1.98802">
        <ele>158</ele>
        <time>2011-10-23T07:24:09Z</time>
      </trkpt>
      <trkpt lat="48.5006" lon="1.98845">
        <ele>158</ele>
        <time>2011-10-23T07:24:14Z</time>
      </trkpt>
      <trkpt lat="48.50077" lon="1.98888">
        <ele>157</ele>
        <time>2011-10-23T07:24:19Z</time>
      </trkpt>
      <trkpt lat="48.50089" lon="1.98923">
        <ele>157</ele>
        <time>2011-10-23T07:24:23Z</time>
      </trkpt>
      <trkpt lat="48.50102" lon="1.9897">
        <ele>156</ele>
        <time>2011-10-23T07:24:28Z</time>
      </trkpt>
      <trkpt lat="48.50125" lon="1.99027">
        <ele>154</ele>
        <time>2011-10-23T07:24:34Z</time>
      </trkpt>
      <trkpt lat="48.5013" lon="1.99045">
        <ele>153</ele>
        <time>2011-10-23T07:24:36Z</time>
      </trkpt>
      <trkpt lat="48.50148" lon="1.99088">
        <ele>150</ele>
        <time>2011-10-23T07:24:41Z</time>
      </trkpt>
      <trkpt lat="48.50165" lon="1.9913">
        <ele>149</ele>
        <time>2011-10-23T07:24:46Z</time>
      </trkpt>
      <trkpt lat="48.50175" lon="1.99161">
        <ele>148</ele>
        <time>2011-10-23T07:24:49Z</time>
      </trkpt>
      <trkpt lat="48.50185" lon="1.99192">
        <ele>143</ele>
        <time>2011-10-23T07:24:52Z</time>
      </trkpt>
      <trkpt lat="48.50214" lon="1.99226">
        <ele>140</ele>
        <time>2011-10-23T07:24:57Z</time>
      </trkpt>
      <trkpt lat="48.50232" lon="1.99228">
        <ele>138</ele>
        <time>2011-10-23T07:24:59Z</time>
      </trkpt>
      <trkpt lat="48.50294" lon="1.99223">
        <ele>132</ele>
        <time>2011-10-23T07:25:06Z</time>
      </trkpt>
      <trkpt lat="48.50335" lon="1.99217">
        <ele>129</ele>
        <time>2011-10-23T07:25:11Z</time>
      </trkpt>
      <trkpt lat="48.50386" lon="1.99213">
        <ele>128</ele>
        <time>2011-10-23T07:25:17Z</time>
      </trkpt>
      <trkpt lat="48.50448" lon="1.99207">
        <ele>125</ele>
        <time>2011-10-23T07:25:25Z</time>
      </trkpt>
      <trkpt lat="48.50463" lon="1.99205">
        <ele>125</ele>
        <time>2011-10-23T07:25:27Z</time>
      </trkpt>
      <trkpt lat="48.50482" lon="1.99184">
        <ele>126</ele>
        <time>2011-10-23T07:25:31Z</time>
      </trkpt>
      <trkpt lat="48.50491" lon="1.99161">
        <ele>128</ele>
        <time>2011-10-23T07:25:34Z</time>
      </trkpt>
      <trkpt lat="48.50515" lon="1.99125">
        <ele>129</ele>
        <time>2011-10-23T07:25:40Z</time>
      </trkpt>
      <trkpt lat="48.50519" lon="1.99119">
        <ele>130</ele>
        <time>2011-10-23T07:25:41Z</time>
      </trkpt>
      <trkpt lat="48.50533" lon="1.99105">
        <ele>130</ele>
        <time>2011-10-23T07:25:44Z</time>
      </trkpt>
      <trkpt lat="48.50558" lon="1.99096">
        <ele>129</ele>
        <time>2011-10-23T07:25:49Z</time>
      </trkpt>
      <trkpt lat="48.50573" lon="1.99091">
        <ele>129</ele>
        <time>2011-10-23T07:25:52Z</time>
      </trkpt>
      <trkpt lat="48.50594" lon="1.99083">
        <ele>129</ele>
        <time>2011-10-23T07:25:56Z</time>
      </trkpt>
      <trkpt lat="48.50612" lon="1.9909">
        <ele>127</ele>
        <time>2011-10-23T07:26:00Z</time>
      </trkpt>
      <trkpt lat="48.50622" lon="1.9911">
        <ele>127</ele>
        <time>2011-10-23T07:26:03Z</time>
      </trkpt>
      <trkpt lat="48.50626" lon="1.99116">
        <ele>127</ele>
        <time>2011-10-23T07:26:04Z</time>
      </trkpt>
      <trkpt lat="48.50634" lon="1.99128">
        <ele>126</ele>
        <time>2011-10-23T07:26:06Z</time>
      </trkpt>
      <trkpt lat="48.50654" lon="1.99143">
        <ele>126</ele>
        <time>2011-10-23T07:26:10Z</time>
      </trkpt>
      <trkpt lat="48.5066" lon="1.99143">
        <ele>126</ele>
        <time>2011-10-23T07:26:11Z</time>
      </trkpt>
      <trkpt lat="48.50718" lon="1.99135">
        <ele>126</ele>
        <time>2011-10-23T07:26:20Z</time>
      </trkpt>
      <trkpt lat="48.5074" lon="1.99133">
        <ele>127</ele>
        <time>2011-10-23T07:26:23Z</time>
      </trkpt>
      <trkpt lat="48.50768" lon="1.99148">
        <ele>129</ele>
        <time>2011-10-23T07:26:27Z</time>
      </trkpt>
      <trkpt lat="48.50774" lon="1.99155">
        <ele>129</ele>
        <time>2011-10-23T07:26:28Z</time>
      </trkpt>
      <trkpt lat="48.50826" lon="1.99218">
        <ele>122</ele>
        <time>2011-10-23T07:26:37Z</time>
      </trkpt>
      <trkpt lat="48.50865" lon="1.99251">
        <ele>119</ele>
        <time>2011-10-23T07:26:43Z</time>
      </trkpt>
      <trkpt lat="48.50934" lon="1.99301">
        <ele>119</ele>
        <time>2011-10-23T07:26:53Z</time>
      </trkpt>
      <trkpt lat="48.50941" lon="1.99307">
        <ele>119</ele>
        <time>2011-10-23T07:26:54Z</time>
      </trkpt>
      <trkpt lat="48.50986" lon="1.99344">
        <ele>115</ele>
        <time>2011-10-23T07:27:01Z</time>
      </trkpt>
      <trkpt lat="48.5103" lon="1.99381">
        <ele>116</ele>
        <time>2011-10-23T07:27:08Z</time>
      </trkpt>
      <trkpt lat="48.51048" lon="1.9939">
        <ele>116</ele>
        <time>2011-10-23T07:27:12Z</time>
      </trkpt>
      <trkpt lat="48.51053" lon="1.99382">
        <ele>116</ele>
        <time>2011-10-23T07:27:16Z</time>
      </trkpt>
      <trkpt lat="48.51055" lon="1.99378">
        <ele>117</ele>
        <time>2011-10-23T07:27:17Z</time>
      </trkpt>
      <trkpt lat="48.51064" lon="1.99358">
        <ele>118</ele>
        <time>2011-10-23T07:27:23Z</time>
      </trkpt>
      <trkpt lat="48.51074" lon="1.99339">
        <ele>121</ele>
        <time>2011-10-23T07:27:28Z</time>
      </trkpt>
      <trkpt lat="48.51079" lon="1.99317">
        <ele>123</ele>
        <time>2011-10-23T07:27:32Z</time>
      </trkpt>
      <trkpt lat="48.51079" lon="1.9931">
        <ele>123</ele>
        <time>2011-10-23T07:27:33Z</time>
      </trkpt>
      <trkpt lat="48.51059" lon="1.99286">
        <ele>124</ele>
        <time>2011-10-23T07:27:38Z</time>
      </trkpt>
      <trkpt lat="48.51051" lon="1.99277">
        <ele>124</ele>
        <time>2011-10-23T07:27:40Z</time>
      </trkpt>
      <trkpt lat="48.51036" lon="1.99259">
        <ele>124</ele>
        <time>2011-10-23T07:27:44Z</time>
      </trkpt>
      <trkpt lat="48.51021" lon="1.99242">
        <ele>128</ele>
        <time>2011-10-23T07:27:50Z</time>
      </trkpt>
      <trkpt lat="48.51021" lon="1.99226">
        <ele>129</ele>
        <time>2011-10-23T07:27:55Z</time>
      </trkpt>
      <trkpt lat="48.51027" lon="1.99211">
        <ele>130</ele>
        <time>2011-10-23T07:28:01Z</time>
      </trkpt>
      <trkpt lat="48.51029" lon="1.99203">
        <ele>130</ele>
        <time>2011-10-23T07:28:04Z</time>
      </trkpt>
      <trkpt lat="48.51023" lon="1.99184">
        <ele>131</ele>
        <time>2011-10-23T07:28:11Z</time>
      </trkpt>
      <trkpt lat="48.51014" lon="1.99175">
        <ele>132</ele>
        <time>2011-10-23T07:28:17Z</time>
      </trkpt>
      <trkpt lat="48.5101" lon="1.99172">
        <ele>132</ele>
        <time>2011-10-23T07:28:20Z</time>
      </trkpt>
      <trkpt lat="48.51003" lon="1.99159">
        <ele>135</ele>
        <time>2011-10-23T07:28:27Z</time>
      </trkpt>
      <trkpt lat="48.50996" lon="1.99146">
        <ele>137</ele>
        <time>2011-10-23T07:28:34Z</time>
      </trkpt>
      <trkpt lat="48.50994" lon="1.99143">
        <ele>137</ele>
        <time>2011-10-23T07:28:36Z</time>
      </trkpt>
      <trkpt lat="48.50983" lon="1.99133">
        <ele>138</ele>
        <time>2011-10-23T07:28:44Z</time>
      </trkpt>
      <trkpt lat="48.50975" lon="1.99125">
        <ele>138</ele>
        <time>2011-10-23T07:28:50Z</time>
      </trkpt>
      <trkpt lat="48.50963" lon="1.99115">
        <ele>139</ele>
        <time>2011-10-23T07:28:57Z</time>
      </trkpt>
      <trkpt lat="48.50955" lon="1.99106">
        <ele>139</ele>
        <time>2011-10-23T07:29:03Z</time>
      </trkpt>
      <trkpt lat="48.50948" lon="1.99096">
        <ele>140</ele>
        <time>2011-10-23T07:29:09Z</time>
      </trkpt>
      <trkpt lat="48.50943" lon="1.99087">
        <ele>140</ele>
        <time>2011-10-23T07:29:15Z</time>
      </trkpt>
      <trkpt lat="48.50936" lon="1.99076">
        <ele>145</ele>
        <time>2011-10-23T07:29:21Z</time>
      </trkpt>
      <trkpt lat="48.50927" lon="1.9906">
        <ele>145</ele>
        <time>2011-10-23T07:29:25Z</time>
      </trkpt>
      <trkpt lat="48.50915" lon="1.99041">
        <ele>146</ele>
        <time>2011-10-23T07:29:29Z</time>
      </trkpt>
      <trkpt lat="48.50908" lon="1.99022">
        <ele>147</ele>
        <time>2011-10-23T07:29:32Z</time>
      </trkpt>
      <trkpt lat="48.50883" lon="1.98982">
        <ele>151</ele>
        <time>2011-10-23T07:29:40Z</time>
      </trkpt>
      <trkpt lat="48.50872" lon="1.9896">
        <ele>151</ele>
        <time>2011-10-23T07:29:44Z</time>
      </trkpt>
      <trkpt lat="48.50854" lon="1.98915">
        <ele>153</ele>
        <time>2011-10-23T07:29:51Z</time>
      </trkpt>
      <trkpt lat="48.50837" lon="1.98882">
        <ele>153</ele>
        <time>2011-10-23T07:29:57Z</time>
      </trkpt>
      <trkpt lat="48.50829" lon="1.98864">
        <ele>148</ele>
        <time>2011-10-23T07:30:01Z</time>
      </trkpt>
      <trkpt lat="48.50816" lon="1.98839">
        <ele>149</ele>
        <time>2011-10-23T07:30:08Z</time>
      </trkpt>
      <trkpt lat="48.50806" lon="1.9882">
        <ele>149</ele>
        <time>2011-10-23T07:30:13Z</time>
      </trkpt>
      <trkpt lat="48.50793" lon="1.98792">
        <ele>148</ele>
        <time>2011-10-23T07:30:19Z</time>
      </trkpt>
      <trkpt lat="48.50788" lon="1.98761">
        <ele>148</ele>
        <time>2011-10-23T07:30:24Z</time>
      </trkpt>
      <trkpt lat="48.50787" lon="1.9873">
        <ele>151</ele>
        <time>2011-10-23T07:30:29Z</time>
      </trkpt>
      <trkpt lat="48.50785" lon="1.98706">
        <ele>151</ele>
        <time>2011-10-23T07:30:33Z</time>
      </trkpt>
      <trkpt lat="48.50798" lon="1.98679">
        <ele>152</ele>
        <time>2011-10-23T07:30:38Z</time>
      </trkpt>
      <trkpt lat="48.50808" lon="1.98655">
        <ele>155</ele>
        <time>2011-10-23T07:30:41Z</time>
      </trkpt>
      <trkpt lat="48.50821" lon="1.98624">
        <ele>156</ele>
        <time>2011-10-23T07:30:45Z</time>
      </trkpt>
      <trkpt lat="48.50829" lon="1.986">
        <ele>156</ele>
        <time>2011-10-23T07:30:48Z</time>
      </trkpt>
      <trkpt lat="48.50839" lon="1.98575">
        <ele>157</ele>
        <time>2011-10-23T07:30:51Z</time>
      </trkpt>
      <trkpt lat="48.50857" lon="1.98533">
        <ele>157</ele>
        <time>2011-10-23T07:30:56Z</time>
      </trkpt>
      <trkpt lat="48.50874" lon="1.98489">
        <ele>158</ele>
        <time>2011-10-23T07:31:01Z</time>
      </trkpt>
      <trkpt lat="48.50879" lon="1.98476">
        <ele>159</ele>
        <time>2011-10-23T07:31:03Z</time>
      </trkpt>
      <trkpt lat="48.5089" lon="1.98452">
        <ele>159</ele>
        <time>2011-10-23T07:31:07Z</time>
      </trkpt>
      <trkpt lat="48.50904" lon="1.98415">
        <ele>161</ele>
        <time>2011-10-23T07:31:12Z</time>
      </trkpt>
      <trkpt lat="48.50903" lon="1.98403">
        <ele>162</ele>
        <time>2011-10-23T07:31:14Z</time>
      </trkpt>
      <trkpt lat="48.50885" lon="1.98393">
        <ele>163</ele>
        <time>2011-10-23T07:31:18Z</time>
      </trkpt>
      <trkpt lat="48.50843" lon="1.98378">
        <ele>163</ele>
        <time>2011-10-23T07:31:25Z</time>
      </trkpt>
      <trkpt lat="48.50831" lon="1.98375">
        <ele>164</ele>
        <time>2011-10-23T07:31:27Z</time>
      </trkpt>
      <trkpt lat="48.50806" lon="1.98371">
        <ele>164</ele>
        <time>2011-10-23T07:31:31Z</time>
      </trkpt>
      <trkpt lat="48.50777" lon="1.9836">
        <ele>164</ele>
        <time>2011-10-23T07:31:36Z</time>
      </trkpt>
      <trkpt lat="48.50771" lon="1.98358">
        <ele>165</ele>
        <time>2011-10-23T07:31:37Z</time>
      </trkpt>
      <trkpt lat="48.50741" lon="1.98355">
        <ele>165</ele>
        <time>2011-10-23T07:31:42Z</time>
      </trkpt>
      <trkpt lat="48.50735" lon="1.98355">
        <ele>165</ele>
        <time>2011-10-23T07:31:43Z</time>
      </trkpt>
      <trkpt lat="48.50701" lon="1.98348">
        <ele>166</ele>
        <time>2011-10-23T07:31:49Z</time>
      </trkpt>
      <trkpt lat="48.50688" lon="1.98325">
        <ele>167</ele>
        <time>2011-10-23T07:31:53Z</time>
      </trkpt>
      <trkpt lat="48.50684" lon="1.9831">
        <ele>167</ele>
        <time>2011-10-23T07:31:55Z</time>
      </trkpt>
      <trkpt lat="48.50663" lon="1.98251">
        <ele>168</ele>
        <time>2011-10-23T07:32:03Z</time>
      </trkpt>
      <trkpt lat="48.50652" lon="1.98217">
        <ele>168</ele>
        <time>2011-10-23T07:32:09Z</time>
      </trkpt>
      <trkpt lat="48.50649" lon="1.98175">
        <ele>169</ele>
        <time>2011-10-23T07:32:14Z</time>
      </trkpt>
      <trkpt lat="48.50647" lon="1.98143">
        <ele>169</ele>
        <time>2011-10-23T07:32:18Z</time>
      </trkpt>
      <trkpt lat="48.50646" lon="1.98123">
        <ele>169</ele>
        <time>2011-10-23T07:32:21Z</time>
      </trkpt>
      <trkpt lat="48.50642" lon="1.98102">
        <ele>169</ele>
        <time>2011-10-23T07:32:24Z</time>
      </trkpt>
      <trkpt lat="48.50634" lon="1.98073">
        <ele>168</ele>
        <time>2011-10-23T07:32:28Z</time>
      </trkpt>
      <trkpt lat="48.5063" lon="1.98058">
        <ele>168</ele>
        <time>2011-10-23T07:32:30Z</time>
      </trkpt>
      <trkpt lat="48.50615" lon="1.98007">
        <ele>168</ele>
        <time>2011-10-23T07:32:35Z</time>
      </trkpt>
      <trkpt lat="48.506" lon="1.97972">
        <ele>166</ele>
        <time>2011-10-23T07:32:39Z</time>
      </trkpt>
      <trkpt lat="48.50587" lon="1.97926">
        <ele>164</ele>
        <time>2011-10-23T07:32:44Z</time>
      </trkpt>
      <trkpt lat="48.50578" lon="1.97891">
        <ele>159</ele>
        <time>2011-10-23T07:32:48Z</time>
      </trkpt>
      <trkpt lat="48.50575" lon="1.97862">
        <ele>158</ele>
        <time>2011-10-23T07:32:51Z</time>
      </trkpt>
      <trkpt lat="48.50569" lon="1.97841">
        <ele>157</ele>
        <time>2011-10-23T07:32:54Z</time>
      </trkpt>
      <trkpt lat="48.50571" lon="1.97815">
        <ele>155</ele>
        <time>2011-10-23T07:32:58Z</time>
      </trkpt>
      <trkpt lat="48.5058" lon="1.97799">
        <ele>154</ele>
        <time>2011-10-23T07:33:01Z</time>
      </trkpt>
      <trkpt lat="48.50591" lon="1.97784">
        <ele>156</ele>
        <time>2011-10-23T07:33:04Z</time>
      </trkpt>
      <trkpt lat="48.50616" lon="1.97764">
        <ele>155</ele>
        <time>2011-10-23T07:33:09Z</time>
      </trkpt>
      <trkpt lat="48.50642" lon="1.97748">
        <ele>155</ele>
        <time>2011-10-23T07:33:14Z</time>
      </trkpt>
      <trkpt lat="48.50659" lon="1.9774">
        <ele>155</ele>
        <time>2011-10-23T07:33:18Z</time>
      </trkpt>
      <trkpt lat="48.50679" lon="1.97726">
        <ele>158</ele>
        <time>2011-10-23T07:33:23Z</time>
      </trkpt>
      <trkpt lat="48.50692" lon="1.97713">
        <ele>158</ele>
        <time>2011-10-23T07:33:28Z</time>
      </trkpt>
      <trkpt lat="48.50694" lon="1.97711">
        <ele>158</ele>
        <time>2011-10-23T07:33:33Z</time>
      </trkpt>
      <trkpt lat="48.50708" lon="1.97696">
        <ele>159</ele>
        <time>2011-10-23T07:33:38Z</time>
      </trkpt>
      <trkpt lat="48.50724" lon="1.97677">
        <ele>160</ele>
        <time>2011-10-23T07:33:41Z</time>
      </trkpt>
      <trkpt lat="48.50752" lon="1.97636">
        <ele>159</ele>
        <time>2011-10-23T07:33:47Z</time>
      </trkpt>
      <trkpt lat="48.50761" lon="1.97621">
        <ele>158</ele>
        <time>2011-10-23T07:33:49Z</time>
      </trkpt>
      <trkpt lat="48.50771" lon="1.976">
        <ele>157</ele>
        <time>2011-10-23T07:33:52Z</time>
      </trkpt>
      <trkpt lat="48.50793" lon="1.97558">
        <ele>150</ele>
        <time>2011-10-23T07:33:58Z</time>
      </trkpt>
      <trkpt lat="48.50796" lon="1.97552">
        <ele>149</ele>
        <time>2011-10-23T07:33:59Z</time>
      </trkpt>
      <trkpt lat="48.50806" lon="1.9753">
        <ele>147</ele>
        <time>2011-10-23T07:34:03Z</time>
      </trkpt>
      <trkpt lat="48.50821" lon="1.97503">
        <ele>144</ele>
        <time>2011-10-23T07:34:09Z</time>
      </trkpt>
      <trkpt lat="48.50829" lon="1.97495">
        <ele>141</ele>
        <time>2011-10-23T07:34:11Z</time>
      </trkpt>
      <trkpt lat="48.50837" lon="1.97489">
        <ele>140</ele>
        <time>2011-10-23T07:34:13Z</time>
      </trkpt>
      <trkpt lat="48.5085" lon="1.97474">
        <ele>139</ele>
        <time>2011-10-23T07:34:16Z</time>
      </trkpt>
      <trkpt lat="48.50864" lon="1.97454">
        <ele>138</ele>
        <time>2011-10-23T07:34:20Z</time>
      </trkpt>
      <trkpt lat="48.50869" lon="1.97445">
        <ele>137</ele>
        <time>2011-10-23T07:34:22Z</time>
      </trkpt>
      <trkpt lat="48.50881" lon="1.97422">
        <ele>137</ele>
        <time>2011-10-23T07:34:26Z</time>
      </trkpt>
      <trkpt lat="48.50889" lon="1.97408">
        <ele>136</ele>
        <time>2011-10-23T07:34:31Z</time>
      </trkpt>
      <trkpt lat="48.50893" lon="1.974">
        <ele>136</ele>
        <time>2011-10-23T07:34:38Z</time>
      </trkpt>
      <trkpt lat="48.50894" lon="1.97399">
        <ele>136</ele>
        <time>2011-10-23T07:34:40Z</time>
      </trkpt>
      <trkpt lat="48.50898" lon="1.97395">
        <ele>136</ele>
        <time>2011-10-23T07:34:51Z</time>
      </trkpt>
      <trkpt lat="48.509" lon="1.97394">
        <ele>136</ele>
        <time>2011-10-23T07:34:57Z</time>
      </trkpt>
      <trkpt lat="48.50903" lon="1.97392">
        <ele>136</ele>
        <time>2011-10-23T07:35:00Z</time>
      </trkpt>
      <trkpt lat="48.50906" lon="1.97391">
        <ele>136</ele>
        <time>2011-10-23T07:35:05Z</time>
      </trkpt>
      <trkpt lat="48.5091" lon="1.97395">
        <ele>136</ele>
        <time>2011-10-23T07:35:09Z</time>
      </trkpt>
      <trkpt lat="48.50915" lon="1.97405">
        <ele>137</ele>
        <time>2011-10-23T07:35:13Z</time>
      </trkpt>
      <trkpt lat="48.50927" lon="1.97427">
        <ele>140</ele>
        <time>2011-10-23T07:35:19Z</time>
      </trkpt>
      <trkpt lat="48.50935" lon="1.97436">
        <ele>140</ele>
        <time>2011-10-23T07:35:22Z</time>
      </trkpt>
      <trkpt lat="48.5095" lon="1.97468">
        <ele>141</ele>
        <time>2011-10-23T07:35:28Z</time>
      </trkpt>
      <trkpt lat="48.50958" lon="1.97484">
        <ele>142</ele>
        <time>2011-10-23T07:35:31Z</time>
      </trkpt>
      <trkpt lat="48.5097" lon="1.97507">
        <ele>142</ele>
        <time>2011-10-23T07:35:35Z</time>
      </trkpt>
      <trkpt lat="48.5098" lon="1.9753">
        <ele>142</ele>
        <time>2011-10-23T07:35:39Z</time>
      </trkpt>
      <trkpt lat="48.50996" lon="1.97555">
        <ele>142</ele>
        <time>2011-10-23T07:35:44Z</time>
      </trkpt>
      <trkpt lat="48.51012" lon="1.97578">
        <ele>143</ele>
        <time>2011-10-23T07:35:48Z</time>
      </trkpt>
      <trkpt lat="48.51037" lon="1.97631">
        <ele>143</ele>
        <time>2011-10-23T07:35:55Z</time>
      </trkpt>
      <trkpt lat="48.51044" lon="1.97647">
        <ele>143</ele>
        <time>2011-10-23T07:35:57Z</time>
      </trkpt>
      <trkpt lat="48.51054" lon="1.97673">
        <ele>142</ele>
        <time>2011-10-23T07:36:00Z</time>
      </trkpt>
      <trkpt lat="48.51079" lon="1.97713">
        <ele>141</ele>
        <time>2011-10-23T07:36:05Z</time>
      </trkpt>
      <trkpt lat="48.5109" lon="1.97738">
        <ele>140</ele>
        <time>2011-10-23T07:36:08Z</time>
      </trkpt>
      <trkpt lat="48.51108" lon="1.97788">
        <ele>137</ele>
        <time>2011-10-23T07:36:15Z</time>
      </trkpt>
      <trkpt lat="48.51122" lon="1.97818">
        <ele>137</ele>
        <time>2011-10-23T07:36:19Z</time>
      </trkpt>
      <trkpt lat="48.51141" lon="1.97871">
        <ele>136</ele>
        <time>2011-10-23T07:36:25Z</time>
      </trkpt>
      <trkpt lat="48.51167" lon="1.9794">
        <ele>137</ele>
        <time>2011-10-23T07:36:32Z</time>
      </trkpt>
      <trkpt lat="48.51179" lon="1.97968">
        <ele>134</ele>
        <time>2011-10-23T07:36:35Z</time>
      </trkpt>
      <trkpt lat="48.51194" lon="1.97998">
        <ele>133</ele>
        <time>2011-10-23T07:36:39Z</time>
      </trkpt>
      <trkpt lat="48.51208" lon="1.98025">
        <ele>133</ele>
        <time>2011-10-23T07:36:43Z</time>
      </trkpt>
      <trkpt lat="48.51224" lon="1.98056">
        <ele>132</ele>
        <time>2011-10-23T07:36:47Z</time>
      </trkpt>
      <trkpt lat="48.51248" lon="1.98115">
        <ele>132</ele>
        <time>2011-10-23T07:36:54Z</time>
      </trkpt>
      <trkpt lat="48.51251" lon="1.98123">
        <ele>127</ele>
        <time>2011-10-23T07:36:55Z</time>
      </trkpt>
      <trkpt lat="48.51278" lon="1.98174">
        <ele>128</ele>
        <time>2011-10-23T07:37:01Z</time>
      </trkpt>
      <trkpt lat="48.51293" lon="1.98211">
        <ele>129</ele>
        <time>2011-10-23T07:37:05Z</time>
      </trkpt>
      <trkpt lat="48.51296" lon="1.98219">
        <ele>129</ele>
        <time>2011-10-23T07:37:06Z</time>
      </trkpt>
      <trkpt lat="48.51318" lon="1.98256">
        <ele>132</ele>
        <time>2011-10-23T07:37:11Z</time>
      </trkpt>
      <trkpt lat="48.51339" lon="1.983">
        <ele>130</ele>
        <time>2011-10-23T07:37:17Z</time>
      </trkpt>
      <trkpt lat="48.51358" lon="1.98344">
        <ele>133</ele>
        <time>2011-10-23T07:37:23Z</time>
      </trkpt>
      <trkpt lat="48.5138" lon="1.98389">
        <ele>131</ele>
        <time>2011-10-23T07:37:29Z</time>
      </trkpt>
      <trkpt lat="48.51402" lon="1.98433">
        <ele>130</ele>
        <time>2011-10-23T07:37:34Z</time>
      </trkpt>
      <trkpt lat="48.51432" lon="1.98501">
        <ele>129</ele>
        <time>2011-10-23T07:37:41Z</time>
      </trkpt>
      <trkpt lat="48.5144" lon="1.98519">
        <ele>128</ele>
        <time>2011-10-23T07:37:43Z</time>
      </trkpt>
      <trkpt lat="48.51452" lon="1.98531">
        <ele>128</ele>
        <time>2011-10-23T07:37:46Z</time>
      </trkpt>
      <trkpt lat="48.51469" lon="1.98519">
        <ele>127</ele>
        <time>2011-10-23T07:37:49Z</time>
      </trkpt>
      <trkpt lat="48.51507" lon="1.98487">
        <ele>121</ele>
        <time>2011-10-23T07:37:55Z</time>
      </trkpt>
      <trkpt lat="48.51526" lon="1.98472">
        <ele>120</ele>
        <time>2011-10-23T07:37:58Z</time>
      </trkpt>
      <trkpt lat="48.51562" lon="1.98443">
        <ele>120</ele>
        <time>2011-10-23T07:38:04Z</time>
      </trkpt>
      <trkpt lat="48.51573" lon="1.98434">
        <ele>121</ele>
        <time>2011-10-23T07:38:06Z</time>
      </trkpt>
      <trkpt lat="48.51605" lon="1.98406">
        <ele>123</ele>
        <time>2011-10-23T07:38:12Z</time>
      </trkpt>
      <trkpt lat="48.51635" lon="1.98381">
        <ele>125</ele>
        <time>2011-10-23T07:38:18Z</time>
      </trkpt>
      <trkpt lat="48.51639" lon="1.98377">
        <ele>125</ele>
        <time>2011-10-23T07:38:19Z</time>
      </trkpt>
      <trkpt lat="48.51647" lon="1.9836">
        <ele>125</ele>
        <time>2011-10-23T07:38:23Z</time>
      </trkpt>
      <trkpt lat="48.51656" lon="1.98318">
        <ele>125</ele>
        <time>2011-10-23T07:38:30Z</time>
      </trkpt>
      <trkpt lat="48.51646" lon="1.98286">
        <ele>125</ele>
        <time>2011-10-23T07:38:34Z</time>
      </trkpt>
      <trkpt lat="48.51628" lon="1.98261">
        <ele>124</ele>
        <time>2011-10-23T07:38:38Z</time>
      </trkpt>
      <trkpt lat="48.51609" lon="1.98238">
        <ele>125</ele>
        <time>2011-10-23T07:38:42Z</time>
      </trkpt>
      <trkpt lat="48.51596" lon="1.9822">
        <ele>125</ele>
        <time>2011-10-23T07:38:45Z</time>
      </trkpt>
      <trkpt lat="48.51573" lon="1.98171">
        <ele>123</ele>
        <time>2011-10-23T07:38:53Z</time>
      </trkpt>
      <trkpt lat="48.51568" lon="1.98129">
        <ele>124</ele>
        <time>2011-10-23T07:38:59Z</time>
      </trkpt>
      <trkpt lat="48.51568" lon="1.98122">
        <ele>124</ele>
        <time>2011-10-23T07:39:00Z</time>
      </trkpt>
      <trkpt lat="48.51576" lon="1.98085">
        <ele>124</ele>
        <time>2011-10-23T07:39:05Z</time>
      </trkpt>
      <trkpt lat="48.51588" lon="1.98067">
        <ele>126</ele>
        <time>2011-10-23T07:39:08Z</time>
      </trkpt>
      <trkpt lat="48.51598" lon="1.9806">
        <ele>126</ele>
        <time>2011-10-23T07:39:10Z</time>
      </trkpt>
      <trkpt lat="48.51611" lon="1.98046">
        <ele>127</ele>
        <time>2011-10-23T07:39:13Z</time>
      </trkpt>
      <trkpt lat="48.51619" lon="1.98034">
        <ele>127</ele>
        <time>2011-10-23T07:39:16Z</time>
      </trkpt>
      <trkpt lat="48.5163" lon="1.98008">
        <ele>128</ele>
        <time>2011-10-23T07:39:21Z</time>
      </trkpt>
      <trkpt lat="48.51629" lon="1.97968">
        <ele>129</ele>
        <time>2011-10-23T07:39:26Z</time>
      </trkpt>
      <trkpt lat="48.5163" lon="1.97928">
        <ele>130</ele>
        <time>2011-10-23T07:39:31Z</time>
      </trkpt>
      <trkpt lat="48.51631" lon="1.97883">
        <ele>131</ele>
        <time>2011-10-23T07:39:37Z</time>
      </trkpt>
      <trkpt lat="48.51631" lon="1.97875">
        <ele>131</ele>
        <time>2011-10-23T07:39:38Z</time>
      </trkpt>
      <trkpt lat="48.51624" lon="1.97842">
        <ele>131</ele>
        <time>2011-10-23T07:39:42Z</time>
      </trkpt>
      <trkpt lat="48.51621" lon="1.97827">
        <ele>131</ele>
        <time>2011-10-23T07:39:44Z</time>
      </trkpt>
      <trkpt lat="48.51614" lon="1.97793">
        <ele>131</ele>
        <time>2011-10-23T07:39:49Z</time>
      </trkpt>
      <trkpt lat="48.5161" lon="1.97766">
        <ele>131</ele>
        <time>2011-10-23T07:39:53Z</time>
      </trkpt>
      <trkpt lat="48.51597" lon="1.97714">
        <ele>132</ele>
        <time>2011-10-23T07:40:00Z</time>
      </trkpt>
      <trkpt lat="48.51595" lon="1.97707">
        <ele>132</ele>
        <time>2011-10-23T07:40:01Z</time>
      </trkpt>
      <trkpt lat="48.51592" lon="1.97676">
        <ele>131</ele>
        <time>2011-10-23T07:40:05Z</time>
      </trkpt>
      <trkpt lat="48.51592" lon="1.97653">
        <ele>132</ele>
        <time>2011-10-23T07:40:08Z</time>
      </trkpt>
      <trkpt lat="48.51589" lon="1.97611">
        <ele>133</ele>
        <time>2011-10-23T07:40:14Z</time>
      </trkpt>
      <trkpt lat="48.51576" lon="1.97557">
        <ele>132</ele>
        <time>2011-10-23T07:40:22Z</time>
      </trkpt>
      <trkpt lat="48.51575" lon="1.9755">
        <ele>132</ele>
        <time>2011-10-23T07:40:23Z</time>
      </trkpt>
      <trkpt lat="48.51571" lon="1.97513">
        <ele>131</ele>
        <time>2011-10-23T07:40:29Z</time>
      </trkpt>
      <trkpt lat="48.5157" lon="1.97501">
        <ele>131</ele>
        <time>2011-10-23T07:40:31Z</time>
      </trkpt>
      <trkpt lat="48.51563" lon="1.97461">
        <ele>132</ele>
        <time>2011-10-23T07:40:38Z</time>
      </trkpt>
      <trkpt lat="48.51562" lon="1.97455">
        <ele>132</ele>
        <time>2011-10-23T07:40:39Z</time>
      </trkpt>
      <trkpt lat="48.51561" lon="1.97433">
        <ele>132</ele>
        <time>2011-10-23T07:40:42Z</time>
      </trkpt>
      <trkpt lat="48.51568" lon="1.97385">
        <ele>134</ele>
        <time>2011-10-23T07:40:48Z</time>
      </trkpt>
      <trkpt lat="48.51571" lon="1.97373">
        <ele>134</ele>
        <time>2011-10-23T07:40:50Z</time>
      </trkpt>
      <trkpt lat="48.51571" lon="1.97339">
        <ele>134</ele>
        <time>2011-10-23T07:40:56Z</time>
      </trkpt>
      <trkpt lat="48.51557" lon="1.9732">
        <ele>137</ele>
        <time>2011-10-23T07:41:02Z</time>
      </trkpt>
      <trkpt lat="48.51553" lon="1.97322">
        <ele>138</ele>
        <time>2011-10-23T07:41:03Z</time>
      </trkpt>
      <trkpt lat="48.51533" lon="1.97335">
        <ele>135</ele>
        <time>2011-10-23T07:41:09Z</time>
      </trkpt>
      <trkpt lat="48.51511" lon="1.97346">
        <ele>136</ele>
        <time>2011-10-23T07:41:15Z</time>
      </trkpt>
      <trkpt lat="48.51498" lon="1.97355">
        <ele>139</ele>
        <time>2011-10-23T07:41:18Z</time>
      </trkpt>
      <trkpt lat="48.51477" lon="1.97368">
        <ele>139</ele>
        <time>2011-10-23T07:41:23Z</time>
      </trkpt>
      <trkpt lat="48.51458" lon="1.9738">
        <ele>140</ele>
        <time>2011-10-23T07:41:29Z</time>
      </trkpt>
      <trkpt lat="48.5144" lon="1.97392">
        <ele>140</ele>
        <time>2011-10-23T07:41:37Z</time>
      </trkpt>
      <trkpt lat="48.51431" lon="1.97398">
        <ele>141</ele>
        <time>2011-10-23T07:41:43Z</time>
      </trkpt>
      <trkpt lat="48.51419" lon="1.97406">
        <ele>141</ele>
        <time>2011-10-23T07:41:50Z</time>
      </trkpt>
      <trkpt lat="48.51406" lon="1.97416">
        <ele>145</ele>
        <time>2011-10-23T07:41:57Z</time>
      </trkpt>
      <trkpt lat="48.51396" lon="1.9742">
        <ele>146</ele>
        <time>2011-10-23T07:42:03Z</time>
      </trkpt>
      <trkpt lat="48.51385" lon="1.97426">
        <ele>148</ele>
        <time>2011-10-23T07:42:10Z</time>
      </trkpt>
      <trkpt lat="48.51374" lon="1.97436">
        <ele>149</ele>
        <time>2011-10-23T07:42:16Z</time>
      </trkpt>
      <trkpt lat="48.51354" lon="1.97448">
        <ele>151</ele>
        <time>2011-10-23T07:42:23Z</time>
      </trkpt>
      <trkpt lat="48.51341" lon="1.97454">
        <ele>152</ele>
        <time>2011-10-23T07:42:28Z</time>
      </trkpt>
      <trkpt lat="48.51327" lon="1.97464">
        <ele>157</ele>
        <time>2011-10-23T07:42:33Z</time>
      </trkpt>
      <trkpt lat="48.5131" lon="1.97476">
        <ele>157</ele>
        <time>2011-10-23T07:42:38Z</time>
      </trkpt>
      <trkpt lat="48.51281" lon="1.97491">
        <ele>158</ele>
        <time>2011-10-23T07:42:45Z</time>
      </trkpt>
      <trkpt lat="48.51253" lon="1.97511">
        <ele>157</ele>
        <time>2011-10-23T07:42:51Z</time>
      </trkpt>
      <trkpt lat="48.51245" lon="1.97517">
        <ele>156</ele>
        <time>2011-10-23T07:42:53Z</time>
      </trkpt>
      <trkpt lat="48.51232" lon="1.9754">
        <ele>155</ele>
        <time>2011-10-23T07:42:58Z</time>
      </trkpt>
      <trkpt lat="48.51217" lon="1.97578">
        <ele>155</ele>
        <time>2011-10-23T07:43:04Z</time>
      </trkpt>
      <trkpt lat="48.51207" lon="1.97604">
        <ele>152</ele>
        <time>2011-10-23T07:43:08Z</time>
      </trkpt>
      <trkpt lat="48.51195" lon="1.9761">
        <ele>152</ele>
        <time>2011-10-23T07:43:12Z</time>
      </trkpt>
      <trkpt lat="48.51189" lon="1.97606">
        <ele>152</ele>
        <time>2011-10-23T07:43:14Z</time>
      </trkpt>
      <trkpt lat="48.51174" lon="1.97582">
        <ele>153</ele>
        <time>2011-10-23T07:43:20Z</time>
      </trkpt>
      <trkpt lat="48.51164" lon="1.97545">
        <ele>152</ele>
        <time>2011-10-23T07:43:26Z</time>
      </trkpt>
      <trkpt lat="48.5116" lon="1.97533">
        <ele>152</ele>
        <time>2011-10-23T07:43:28Z</time>
      </trkpt>
      <trkpt lat="48.51155" lon="1.97504">
        <ele>153</ele>
        <time>2011-10-23T07:43:33Z</time>
      </trkpt>
      <trkpt lat="48.51154" lon="1.97498">
        <ele>155</ele>
        <time>2011-10-23T07:43:34Z</time>
      </trkpt>
      <trkpt lat="48.51147" lon="1.97459">
        <ele>155</ele>
        <time>2011-10-23T07:43:41Z</time>
      </trkpt>
      <trkpt lat="48.51146" lon="1.97452">
        <ele>155</ele>
        <time>2011-10-23T07:43:42Z</time>
      </trkpt>
      <trkpt lat="48.51139" lon="1.97427">
        <ele>156</ele>
        <time>2011-10-23T07:43:46Z</time>
      </trkpt>
      <trkpt lat="48.5113" lon="1.97389">
        <ele>158</ele>
        <time>2011-10-23T07:43:52Z</time>
      </trkpt>
      <trkpt lat="48.51126" lon="1.97355">
        <ele>158</ele>
        <time>2011-10-23T07:43:57Z</time>
      </trkpt>
      <trkpt lat="48.51123" lon="1.97335">
        <ele>158</ele>
        <time>2011-10-23T07:44:00Z</time>
      </trkpt>
      <trkpt lat="48.51114" lon="1.9728">
        <ele>160</ele>
        <time>2011-10-23T07:44:07Z</time>
      </trkpt>
      <trkpt lat="48.51103" lon="1.97229">
        <ele>161</ele>
        <time>2011-10-23T07:44:13Z</time>
      </trkpt>
      <trkpt lat="48.51101" lon="1.97221">
        <ele>161</ele>
        <time>2011-10-23T07:44:14Z</time>
      </trkpt>
      <trkpt lat="48.51093" lon="1.97196">
        <ele>162</ele>
        <time>2011-10-23T07:44:17Z</time>
      </trkpt>
      <trkpt lat="48.51087" lon="1.97151">
        <ele>162</ele>
        <time>2011-10-23T07:44:22Z</time>
      </trkpt>
      <trkpt lat="48.51085" lon="1.97132">
        <ele>162</ele>
        <time>2011-10-23T07:44:24Z</time>
      </trkpt>
      <trkpt lat="48.51085" lon="1.97089">
        <ele>162</ele>
        <time>2011-10-23T07:44:29Z</time>
      </trkpt>
      <trkpt lat="48.5108" lon="1.97055">
        <ele>160</ele>
        <time>2011-10-23T07:44:33Z</time>
      </trkpt>
      <trkpt lat="48.51078" lon="1.97035">
        <ele>159</ele>
        <time>2011-10-23T07:44:35Z</time>
      </trkpt>
      <trkpt lat="48.51081" lon="1.96995">
        <ele>158</ele>
        <time>2011-10-23T07:44:40Z</time>
      </trkpt>
      <trkpt lat="48.51089" lon="1.9695">
        <ele>159</ele>
        <time>2011-10-23T07:44:46Z</time>
      </trkpt>
      <trkpt lat="48.51093" lon="1.9693">
        <ele>158</ele>
        <time>2011-10-23T07:44:49Z</time>
      </trkpt>
      <trkpt lat="48.5112" lon="1.96888">
        <ele>157</ele>
        <time>2011-10-23T07:44:55Z</time>
      </trkpt>
      <trkpt lat="48.51149" lon="1.96844">
        <ele>157</ele>
        <time>2011-10-23T07:45:01Z</time>
      </trkpt>
      <trkpt lat="48.5118" lon="1.96797">
        <ele>157</ele>
        <time>2011-10-23T07:45:08Z</time>
      </trkpt>
      <trkpt lat="48.51208" lon="1.96749">
        <ele>155</ele>
        <time>2011-10-23T07:45:15Z</time>
      </trkpt>
      <trkpt lat="48.51238" lon="1.96695">
        <ele>154</ele>
        <time>2011-10-23T07:45:23Z</time>
      </trkpt>
      <trkpt lat="48.51245" lon="1.96681">
        <ele>154</ele>
        <time>2011-10-23T07:45:25Z</time>
      </trkpt>
      <trkpt lat="48.51254" lon="1.96664">
        <ele>152</ele>
        <time>2011-10-23T07:45:27Z</time>
      </trkpt>
      <trkpt lat="48.51272" lon="1.96638">
        <ele>151</ele>
        <time>2011-10-23T07:45:30Z</time>
      </trkpt>
      <trkpt lat="48.51309" lon="1.96591">
        <ele>149</ele>
        <time>2011-10-23T07:45:36Z</time>
      </trkpt>
      <trkpt lat="48.51337" lon="1.96537">
        <ele>147</ele>
        <time>2011-10-23T07:45:41Z</time>
      </trkpt>
      <trkpt lat="48.51357" lon="1.96508">
        <ele>146</ele>
        <time>2011-10-23T07:45:45Z</time>
      </trkpt>
      <trkpt lat="48.51366" lon="1.96511">
        <ele>147</ele>
        <time>2011-10-23T07:45:48Z</time>
      </trkpt>
      <trkpt lat="48.51381" lon="1.96509">
        <ele>148</ele>
        <time>2011-10-23T07:45:53Z</time>
      </trkpt>
      <trkpt lat="48.51386" lon="1.96509">
        <ele>149</ele>
        <time>2011-10-23T07:45:54Z</time>
      </trkpt>
      <trkpt lat="48.51411" lon="1.96507">
        <ele>150</ele>
        <time>2011-10-23T07:46:00Z</time>
      </trkpt>
      <trkpt lat="48.51428" lon="1.96513">
        <ele>154</ele>
        <time>2011-10-23T07:46:06Z</time>
      </trkpt>
      <trkpt lat="48.51445" lon="1.96514">
        <ele>156</ele>
        <time>2011-10-23T07:46:13Z</time>
      </trkpt>
      <trkpt lat="48.51459" lon="1.96515">
        <ele>157</ele>
        <time>2011-10-23T07:46:19Z</time>
      </trkpt>
      <trkpt lat="48.5148" lon="1.96518">
        <ele>158</ele>
        <time>2011-10-23T07:46:27Z</time>
      </trkpt>
      <trkpt lat="48.51496" lon="1.96531">
        <ele>159</ele>
        <time>2011-10-23T07:46:32Z</time>
      </trkpt>
      <trkpt lat="48.51507" lon="1.96548">
        <ele>162</ele>
        <time>2011-10-23T07:46:36Z</time>
      </trkpt>
      <trkpt lat="48.51516" lon="1.96564">
        <ele>162</ele>
        <time>2011-10-23T07:46:39Z</time>
      </trkpt>
      <trkpt lat="48.51537" lon="1.96589">
        <ele>162</ele>
        <time>2011-10-23T07:46:44Z</time>
      </trkpt>
      <trkpt lat="48.51547" lon="1.96599">
        <ele>163</ele>
        <time>2011-10-23T07:46:46Z</time>
      </trkpt>
      <trkpt lat="48.5157" lon="1.96631">
        <ele>163</ele>
        <time>2011-10-23T07:46:51Z</time>
      </trkpt>
      <trkpt lat="48.51586" lon="1.9667">
        <ele>163</ele>
        <time>2011-10-23T07:46:56Z</time>
      </trkpt>
      <trkpt lat="48.51591" lon="1.96685">
        <ele>163</ele>
        <time>2011-10-23T07:46:58Z</time>
      </trkpt>
      <trkpt lat="48.51625" lon="1.96736">
        <ele>162</ele>
        <time>2011-10-23T07:47:06Z</time>
      </trkpt>
      <trkpt lat="48.51648" lon="1.96764">
        <ele>162</ele>
        <time>2011-10-23T07:47:11Z</time>
      </trkpt>
      <trkpt lat="48.51664" lon="1.96788">
        <ele>162</ele>
        <time>2011-10-23T07:47:15Z</time>
      </trkpt>
      <trkpt lat="48.51693" lon="1.96823">
        <ele>164</ele>
        <time>2011-10-23T07:47:21Z</time>
      </trkpt>
      <trkpt lat="48.5171" lon="1.96848">
        <ele>163</ele>
        <time>2011-10-23T07:47:25Z</time>
      </trkpt>
      <trkpt lat="48.51722" lon="1.96882">
        <ele>163</ele>
        <time>2011-10-23T07:47:30Z</time>
      </trkpt>
      <trkpt lat="48.51725" lon="1.96888">
        <ele>163</ele>
        <time>2011-10-23T07:47:31Z</time>
      </trkpt>
      <trkpt lat="48.5175" lon="1.96922">
        <ele>164</ele>
        <time>2011-10-23T07:47:36Z</time>
      </trkpt>
      <trkpt lat="48.51756" lon="1.96929">
        <ele>164</ele>
        <time>2011-10-23T07:47:37Z</time>
      </trkpt>
      <trkpt lat="48.51765" lon="1.96945">
        <ele>164</ele>
        <time>2011-10-23T07:47:39Z</time>
      </trkpt>
      <trkpt lat="48.51783" lon="1.96991">
        <ele>164</ele>
        <time>2011-10-23T07:47:45Z</time>
      </trkpt>
      <trkpt lat="48.51795" lon="1.97013">
        <ele>163</ele>
        <time>2011-10-23T07:47:48Z</time>
      </trkpt>
      <trkpt lat="48.5181" lon="1.97053">
        <ele>163</ele>
        <time>2011-10-23T07:47:53Z</time>
      </trkpt>
      <trkpt lat="48.51824" lon="1.97087">
        <ele>161</ele>
        <time>2011-10-23T07:47:58Z</time>
      </trkpt>
      <trkpt lat="48.51827" lon="1.97093">
        <ele>161</ele>
        <time>2011-10-23T07:47:59Z</time>
      </trkpt>
      <trkpt lat="48.51846" lon="1.97132">
        <ele>160</ele>
        <time>2011-10-23T07:48:05Z</time>
      </trkpt>
      <trkpt lat="48.51855" lon="1.97151">
        <ele>159</ele>
        <time>2011-10-23T07:48:08Z</time>
      </trkpt>
      <trkpt lat="48.51872" lon="1.97196">
        <ele>157</ele>
        <time>2011-10-23T07:48:14Z</time>
      </trkpt>
      <trkpt lat="48.51875" lon="1.97204">
        <ele>157</ele>
        <time>2011-10-23T07:48:15Z</time>
      </trkpt>
      <trkpt lat="48.51885" lon="1.97243">
        <ele>157</ele>
        <time>2011-10-23T07:48:20Z</time>
      </trkpt>
      <trkpt lat="48.51893" lon="1.97272">
        <ele>156</ele>
        <time>2011-10-23T07:48:24Z</time>
      </trkpt>
      <trkpt lat="48.51895" lon="1.97305">
        <ele>156</ele>
        <time>2011-10-23T07:48:28Z</time>
      </trkpt>
      <trkpt lat="48.51893" lon="1.97332">
        <ele>156</ele>
        <time>2011-10-23T07:48:31Z</time>
      </trkpt>
      <trkpt lat="48.51894" lon="1.97349">
        <ele>156</ele>
        <time>2011-10-23T07:48:33Z</time>
      </trkpt>
      <trkpt lat="48.51894" lon="1.97393">
        <ele>156</ele>
        <time>2011-10-23T07:48:38Z</time>
      </trkpt>
      <trkpt lat="48.51894" lon="1.97402">
        <ele>156</ele>
        <time>2011-10-23T07:48:39Z</time>
      </trkpt>
      <trkpt lat="48.51893" lon="1.9747">
        <ele>156</ele>
        <time>2011-10-23T07:48:46Z</time>
      </trkpt>
      <trkpt lat="48.51894" lon="1.97479">
        <ele>156</ele>
        <time>2011-10-23T07:48:47Z</time>
      </trkpt>
      <trkpt lat="48.51887" lon="1.97526">
        <ele>155</ele>
        <time>2011-10-23T07:48:52Z</time>
      </trkpt>
      <trkpt lat="48.51885" lon="1.97536">
        <ele>155</ele>
        <time>2011-10-23T07:48:53Z</time>
      </trkpt>
      <trkpt lat="48.51883" lon="1.97555">
        <ele>155</ele>
        <time>2011-10-23T07:48:55Z</time>
      </trkpt>
      <trkpt lat="48.5188" lon="1.97581">
        <ele>155</ele>
        <time>2011-10-23T07:48:58Z</time>
      </trkpt>
      <trkpt lat="48.51883" lon="1.97615">
        <ele>156</ele>
        <time>2011-10-23T07:49:02Z</time>
      </trkpt>
      <trkpt lat="48.51891" lon="1.97658">
        <ele>156</ele>
        <time>2011-10-23T07:49:07Z</time>
      </trkpt>
      <trkpt lat="48.51896" lon="1.97683">
        <ele>158</ele>
        <time>2011-10-23T07:49:10Z</time>
      </trkpt>
      <trkpt lat="48.51902" lon="1.97718">
        <ele>159</ele>
        <time>2011-10-23T07:49:14Z</time>
      </trkpt>
      <trkpt lat="48.51916" lon="1.9779">
        <ele>161</ele>
        <time>2011-10-23T07:49:22Z</time>
      </trkpt>
      <trkpt lat="48.51924" lon="1.97844">
        <ele>162</ele>
        <time>2011-10-23T07:49:28Z</time>
      </trkpt>
      <trkpt lat="48.51925" lon="1.9788">
        <ele>163</ele>
        <time>2011-10-23T07:49:32Z</time>
      </trkpt>
      <trkpt lat="48.51925" lon="1.979">
        <ele>163</ele>
        <time>2011-10-23T07:49:34Z</time>
      </trkpt>
      <trkpt lat="48.51926" lon="1.97976">
        <ele>163</ele>
        <time>2011-10-23T07:49:42Z</time>
      </trkpt>
      <trkpt lat="48.51926" lon="1.98003">
        <ele>163</ele>
        <time>2011-10-23T07:49:45Z</time>
      </trkpt>
      <trkpt lat="48.51924" lon="1.9803">
        <ele>163</ele>
        <time>2011-10-23T07:49:48Z</time>
      </trkpt>
      <trkpt lat="48.51928" lon="1.98075">
        <ele>162</ele>
        <time>2011-10-23T07:49:53Z</time>
      </trkpt>
      <trkpt lat="48.51921" lon="1.98131">
        <ele>159</ele>
        <time>2011-10-23T07:49:59Z</time>
      </trkpt>
      <trkpt lat="48.51924" lon="1.9815">
        <ele>159</ele>
        <time>2011-10-23T07:50:03Z</time>
      </trkpt>
      <trkpt lat="48.51928" lon="1.98147">
        <ele>159</ele>
        <time>2011-10-23T07:50:04Z</time>
      </trkpt>
      <trkpt lat="48.51963" lon="1.98123">
        <ele>159</ele>
        <time>2011-10-23T07:50:12Z</time>
      </trkpt>
      <trkpt lat="48.51992" lon="1.98106">
        <ele>159</ele>
        <time>2011-10-23T07:50:18Z</time>
      </trkpt>
      <trkpt lat="48.52022" lon="1.98086">
        <ele>159</ele>
        <time>2011-10-23T07:50:24Z</time>
      </trkpt>
      <trkpt lat="48.52053" lon="1.98066">
        <ele>161</ele>
        <time>2011-10-23T07:50:30Z</time>
      </trkpt>
      <trkpt lat="48.52084" lon="1.98058">
        <ele>161</ele>
        <time>2011-10-23T07:50:36Z</time>
      </trkpt>
      <trkpt lat="48.52112" lon="1.98053">
        <ele>161</ele>
        <time>2011-10-23T07:50:41Z</time>
      </trkpt>
      <trkpt lat="48.52144" lon="1.9805">
        <ele>161</ele>
        <time>2011-10-23T07:50:46Z</time>
      </trkpt>
      <trkpt lat="48.52185" lon="1.98043">
        <ele>156</ele>
        <time>2011-10-23T07:50:52Z</time>
      </trkpt>
      <trkpt lat="48.52219" lon="1.98037">
        <ele>154</ele>
        <time>2011-10-23T07:50:57Z</time>
      </trkpt>
      <trkpt lat="48.52262" lon="1.98031">
        <ele>146</ele>
        <time>2011-10-23T07:51:02Z</time>
      </trkpt>
      <trkpt lat="48.52306" lon="1.98024">
        <ele>143</ele>
        <time>2011-10-23T07:51:07Z</time>
      </trkpt>
      <trkpt lat="48.52323" lon="1.98021">
        <ele>142</ele>
        <time>2011-10-23T07:51:10Z</time>
      </trkpt>
      <trkpt lat="48.52358" lon="1.98017">
        <ele>136</ele>
        <time>2011-10-23T07:51:15Z</time>
      </trkpt>
      <trkpt lat="48.52416" lon="1.98011">
        <ele>133</ele>
        <time>2011-10-23T07:51:21Z</time>
      </trkpt>
      <trkpt lat="48.52439" lon="1.98007">
        <ele>129</ele>
        <time>2011-10-23T07:51:24Z</time>
      </trkpt>
      <trkpt lat="48.52456" lon="1.98006">
        <ele>127</ele>
        <time>2011-10-23T07:51:27Z</time>
      </trkpt>
      <trkpt lat="48.52468" lon="1.97994">
        <ele>130</ele>
        <time>2011-10-23T07:51:31Z</time>
      </trkpt>
      <trkpt lat="48.52475" lon="1.97982">
        <ele>129</ele>
        <time>2011-10-23T07:51:34Z</time>
      </trkpt>
      <trkpt lat="48.52477" lon="1.97956">
        <ele>131</ele>
        <time>2011-10-23T07:51:40Z</time>
      </trkpt>
      <trkpt lat="48.52482" lon="1.97924">
        <ele>131</ele>
        <time>2011-10-23T07:51:46Z</time>
      </trkpt>
      <trkpt lat="48.5249" lon="1.97893">
        <ele>134</ele>
        <time>2011-10-23T07:51:51Z</time>
      </trkpt>
      <trkpt lat="48.52491" lon="1.97856">
        <ele>134</ele>
        <time>2011-10-23T07:51:56Z</time>
      </trkpt>
      <trkpt lat="48.52478" lon="1.9784">
        <ele>135</ele>
        <time>2011-10-23T07:51:59Z</time>
      </trkpt>
      <trkpt lat="48.52459" lon="1.97832">
        <ele>135</ele>
        <time>2011-10-23T07:52:03Z</time>
      </trkpt>
      <trkpt lat="48.52451" lon="1.97827">
        <ele>135</ele>
        <time>2011-10-23T07:52:05Z</time>
      </trkpt>
      <trkpt lat="48.52429" lon="1.97813">
        <ele>136</ele>
        <time>2011-10-23T07:52:11Z</time>
      </trkpt>
      <trkpt lat="48.52405" lon="1.978">
        <ele>140</ele>
        <time>2011-10-23T07:52:18Z</time>
      </trkpt>
      <trkpt lat="48.52388" lon="1.97789">
        <ele>140</ele>
        <time>2011-10-23T07:52:23Z</time>
      </trkpt>
      <trkpt lat="48.52364" lon="1.97778">
        <ele>141</ele>
        <time>2011-10-23T07:52:30Z</time>
      </trkpt>
      <trkpt lat="48.52343" lon="1.97768">
        <ele>142</ele>
        <time>2011-10-23T07:52:36Z</time>
      </trkpt>
      <trkpt lat="48.52321" lon="1.97758">
        <ele>145</ele>
        <time>2011-10-23T07:52:43Z</time>
      </trkpt>
      <trkpt lat="48.523" lon="1.97748">
        <ele>146</ele>
        <time>2011-10-23T07:52:49Z</time>
      </trkpt>
      <trkpt lat="48.52285" lon="1.97736">
        <ele>148</ele>
        <time>2011-10-23T07:52:54Z</time>
      </trkpt>
      <trkpt lat="48.52286" lon="1.97714">
        <ele>147</ele>
        <time>2011-10-23T07:52:58Z</time>
      </trkpt>
      <trkpt lat="48.52287" lon="1.97688">
        <ele>146</ele>
        <time>2011-10-23T07:53:01Z</time>
      </trkpt>
      <trkpt lat="48.52283" lon="1.97652">
        <ele>144</ele>
        <time>2011-10-23T07:53:05Z</time>
      </trkpt>
      <trkpt lat="48.52284" lon="1.97623">
        <ele>143</ele>
        <time>2011-10-23T07:53:10Z</time>
      </trkpt>
      <trkpt lat="48.52288" lon="1.97605">
        <ele>142</ele>
        <time>2011-10-23T07:53:13Z</time>
      </trkpt>
      <trkpt lat="48.5229" lon="1.97579">
        <ele>141</ele>
        <time>2011-10-23T07:53:18Z</time>
      </trkpt>
      <trkpt lat="48.5229" lon="1.97553">
        <ele>140</ele>
        <time>2011-10-23T07:53:24Z</time>
      </trkpt>
      <trkpt lat="48.52292" lon="1.97521">
        <ele>140</ele>
        <time>2011-10-23T07:53:29Z</time>
      </trkpt>
      <trkpt lat="48.52293" lon="1.97493">
        <ele>140</ele>
        <time>2011-10-23T07:53:33Z</time>
      </trkpt>
      <trkpt lat="48.52293" lon="1.97484">
        <ele>139</ele>
        <time>2011-10-23T07:53:34Z</time>
      </trkpt>
      <trkpt lat="48.52294" lon="1.9745">
        <ele>139</ele>
        <time>2011-10-23T07:53:38Z</time>
      </trkpt>
      <trkpt lat="48.52294" lon="1.97413">
        <ele>138</ele>
        <time>2011-10-23T07:53:44Z</time>
      </trkpt>
      <trkpt lat="48.52296" lon="1.974">
        <ele>138</ele>
        <time>2011-10-23T07:53:46Z</time>
      </trkpt>
      <trkpt lat="48.52298" lon="1.97386">
        <ele>138</ele>
        <time>2011-10-23T07:53:48Z</time>
      </trkpt>
      <trkpt lat="48.52298" lon="1.97341">
        <ele>137</ele>
        <time>2011-10-23T07:53:54Z</time>
      </trkpt>
      <trkpt lat="48.52302" lon="1.97283">
        <ele>135</ele>
        <time>2011-10-23T07:54:01Z</time>
      </trkpt>
      <trkpt lat="48.52303" lon="1.97239">
        <ele>134</ele>
        <time>2011-10-23T07:54:05Z</time>
      </trkpt>
      <trkpt lat="48.52305" lon="1.97192">
        <ele>134</ele>
        <time>2011-10-23T07:54:09Z</time>
      </trkpt>
      <trkpt lat="48.5231" lon="1.97164">
        <ele>134</ele>
        <time>2011-10-23T07:54:12Z</time>
      </trkpt>
      <trkpt lat="48.52318" lon="1.97143">
        <ele>135</ele>
        <time>2011-10-23T07:54:16Z</time>
      </trkpt>
      <trkpt lat="48.52322" lon="1.97144">
        <ele>135</ele>
        <time>2011-10-23T07:54:17Z</time>
      </trkpt>
      <trkpt lat="48.5235" lon="1.97146">
        <ele>132</ele>
        <time>2011-10-23T07:54:22Z</time>
      </trkpt>
      <trkpt lat="48.52383" lon="1.97148">
        <ele>132</ele>
        <time>2011-10-23T07:54:27Z</time>
      </trkpt>
      <trkpt lat="48.52415" lon="1.97152">
        <ele>131</ele>
        <time>2011-10-23T07:54:32Z</time>
      </trkpt>
      <trkpt lat="48.52449" lon="1.97156">
        <ele>131</ele>
        <time>2011-10-23T07:54:37Z</time>
      </trkpt>
      <trkpt lat="48.52498" lon="1.9716">
        <ele>130</ele>
        <time>2011-10-23T07:54:44Z</time>
      </trkpt>
      <trkpt lat="48.5253" lon="1.97164">
        <ele>131</ele>
        <time>2011-10-23T07:54:49Z</time>
      </trkpt>
      <trkpt lat="48.52564" lon="1.97167">
        <ele>130</ele>
        <time>2011-10-23T07:54:54Z</time>
      </trkpt>
      <trkpt lat="48.52589" lon="1.97169">
        <ele>129</ele>
        <time>2011-10-23T07:54:58Z</time>
      </trkpt>
      <trkpt lat="48.526" lon="1.97169">
        <ele>127</ele>
        <time>2011-10-23T07:55:00Z</time>
      </trkpt>
      <trkpt lat="48.52616" lon="1.97175">
        <ele>125</ele>
        <time>2011-10-23T07:55:05Z</time>
      </trkpt>
      <trkpt lat="48.52624" lon="1.97171">
        <ele>125</ele>
        <time>2011-10-23T07:55:10Z</time>
      </trkpt>
      <trkpt lat="48.52625" lon="1.97169">
        <ele>125</ele>
        <time>2011-10-23T07:55:14Z</time>
      </trkpt>
      <trkpt lat="48.52625" lon="1.9717">
        <ele>125</ele>
        <time>2011-10-23T07:55:20Z</time>
      </trkpt>
      <trkpt lat="48.52625" lon="1.97172">
        <ele>125</ele>
        <time>2011-10-23T07:55:26Z</time>
      </trkpt>
      <trkpt lat="48.52625" lon="1.9717">
        <ele>125</ele>
        <time>2011-10-23T07:55:30Z</time>
      </trkpt>
      <trkpt lat="48.52621" lon="1.9716">
        <ele>126</ele>
        <time>2011-10-23T07:57:22Z</time>
      </trkpt>
      <trkpt lat="48.52605" lon="1.97143">
        <ele>127</ele>
        <time>2011-10-23T07:57:27Z</time>
      </trkpt>
      <trkpt lat="48.5258" lon="1.97122">
        <ele>130</ele>
        <time>2011-10-23T07:57:33Z</time>
      </trkpt>
      <trkpt lat="48.52554" lon="1.97112">
        <ele>130</ele>
        <time>2011-10-23T07:57:39Z</time>
      </trkpt>
      <trkpt lat="48.52532" lon="1.97097">
        <ele>131</ele>
        <time>2011-10-23T07:57:45Z</time>
      </trkpt>
      <trkpt lat="48.52509" lon="1.9708">
        <ele>133</ele>
        <time>2011-10-23T07:57:52Z</time>
      </trkpt>
      <trkpt lat="48.52496" lon="1.9707">
        <ele>135</ele>
        <time>2011-10-23T07:57:55Z</time>
      </trkpt>
      <trkpt lat="48.52452" lon="1.97043">
        <ele>134</ele>
        <time>2011-10-23T07:58:04Z</time>
      </trkpt>
      <trkpt lat="48.52432" lon="1.97037">
        <ele>135</ele>
        <time>2011-10-23T07:58:08Z</time>
      </trkpt>
      <trkpt lat="48.524" lon="1.97027">
        <ele>137</ele>
        <time>2011-10-23T07:58:15Z</time>
      </trkpt>
      <trkpt lat="48.52373" lon="1.97017">
        <ele>138</ele>
        <time>2011-10-23T07:58:21Z</time>
      </trkpt>
      <trkpt lat="48.5234" lon="1.97006">
        <ele>142</ele>
        <time>2011-10-23T07:58:29Z</time>
      </trkpt>
      <trkpt lat="48.52337" lon="1.97004">
        <ele>143</ele>
        <time>2011-10-23T07:58:30Z</time>
      </trkpt>
      <trkpt lat="48.52316" lon="1.97007">
        <ele>142</ele>
        <time>2011-10-23T07:58:37Z</time>
      </trkpt>
      <trkpt lat="48.52302" lon="1.97004">
        <ele>142</ele>
        <time>2011-10-23T07:58:42Z</time>
      </trkpt>
      <trkpt lat="48.52291" lon="1.96992">
        <ele>146</ele>
        <time>2011-10-23T07:58:48Z</time>
      </trkpt>
      <trkpt lat="48.5228" lon="1.96976">
        <ele>146</ele>
        <time>2011-10-23T07:58:54Z</time>
      </trkpt>
      <trkpt lat="48.52276" lon="1.96952">
        <ele>147</ele>
        <time>2011-10-23T07:59:00Z</time>
      </trkpt>
      <trkpt lat="48.52277" lon="1.9692">
        <ele>147</ele>
        <time>2011-10-23T07:59:07Z</time>
      </trkpt>
      <trkpt lat="48.52279" lon="1.96899">
        <ele>149</ele>
        <time>2011-10-23T07:59:12Z</time>
      </trkpt>
      <trkpt lat="48.52277" lon="1.9688">
        <ele>150</ele>
        <time>2011-10-23T07:59:17Z</time>
      </trkpt>
      <trkpt lat="48.52269" lon="1.96853">
        <ele>151</ele>
        <time>2011-10-23T07:59:24Z</time>
      </trkpt>
      <trkpt lat="48.52261" lon="1.96833">
        <ele>153</ele>
        <time>2011-10-23T07:59:30Z</time>
      </trkpt>
      <trkpt lat="48.52254" lon="1.96816">
        <ele>154</ele>
        <time>2011-10-23T07:59:35Z</time>
      </trkpt>
      <trkpt lat="48.52243" lon="1.96802">
        <ele>159</ele>
        <time>2011-10-23T07:59:41Z</time>
      </trkpt>
      <trkpt lat="48.52229" lon="1.96786">
        <ele>160</ele>
        <time>2011-10-23T07:59:47Z</time>
      </trkpt>
      <trkpt lat="48.52211" lon="1.96766">
        <ele>161</ele>
        <time>2011-10-23T07:59:52Z</time>
      </trkpt>
      <trkpt lat="48.52182" lon="1.96738">
        <ele>164</ele>
        <time>2011-10-23T07:59:59Z</time>
      </trkpt>
      <trkpt lat="48.52173" lon="1.9673">
        <ele>164</ele>
        <time>2011-10-23T08:00:01Z</time>
      </trkpt>
      <trkpt lat="48.52153" lon="1.96712">
        <ele>165</ele>
        <time>2011-10-23T08:00:06Z</time>
      </trkpt>
      <trkpt lat="48.52138" lon="1.96694">
        <ele>165</ele>
        <time>2011-10-23T08:00:10Z</time>
      </trkpt>
      <trkpt lat="48.52113" lon="1.96677">
        <ele>164</ele>
        <time>2011-10-23T08:00:15Z</time>
      </trkpt>
      <trkpt lat="48.52108" lon="1.96675">
        <ele>164</ele>
        <time>2011-10-23T08:00:16Z</time>
      </trkpt>
      <trkpt lat="48.52093" lon="1.96665">
        <ele>164</ele>
        <time>2011-10-23T08:00:19Z</time>
      </trkpt>
      <trkpt lat="48.52077" lon="1.96643">
        <ele>164</ele>
        <time>2011-10-23T08:00:24Z</time>
      </trkpt>
      <trkpt lat="48.52081" lon="1.96616">
        <ele>164</ele>
        <time>2011-10-23T08:00:28Z</time>
      </trkpt>
      <trkpt lat="48.52097" lon="1.96578">
        <ele>164</ele>
        <time>2011-10-23T08:00:33Z</time>
      </trkpt>
      <trkpt lat="48.52123" lon="1.96515">
        <ele>165</ele>
        <time>2011-10-23T08:00:40Z</time>
      </trkpt>
      <trkpt lat="48.52134" lon="1.96489">
        <ele>165</ele>
        <time>2011-10-23T08:00:43Z</time>
      </trkpt>
      <trkpt lat="48.52154" lon="1.96445">
        <ele>166</ele>
        <time>2011-10-23T08:00:48Z</time>
      </trkpt>
      <trkpt lat="48.52165" lon="1.96434">
        <ele>166</ele>
        <time>2011-10-23T08:00:50Z</time>
      </trkpt>
      <trkpt lat="48.52199" lon="1.96402">
        <ele>165</ele>
        <time>2011-10-23T08:00:56Z</time>
      </trkpt>
      <trkpt lat="48.52206" lon="1.96397">
        <ele>165</ele>
        <time>2011-10-23T08:00:57Z</time>
      </trkpt>
      <trkpt lat="48.52239" lon="1.96367">
        <ele>165</ele>
        <time>2011-10-23T08:01:03Z</time>
      </trkpt>
      <trkpt lat="48.52268" lon="1.9634">
        <ele>164</ele>
        <time>2011-10-23T08:01:08Z</time>
      </trkpt>
      <trkpt lat="48.52293" lon="1.96317">
        <ele>164</ele>
        <time>2011-10-23T08:01:12Z</time>
      </trkpt>
      <trkpt lat="48.52325" lon="1.96287">
        <ele>164</ele>
        <time>2011-10-23T08:01:17Z</time>
      </trkpt>
      <trkpt lat="48.52356" lon="1.96256">
        <ele>161</ele>
        <time>2011-10-23T08:01:22Z</time>
      </trkpt>
      <trkpt lat="48.52361" lon="1.9625">
        <ele>160</ele>
        <time>2011-10-23T08:01:23Z</time>
      </trkpt>
      <trkpt lat="48.52376" lon="1.96231">
        <ele>159</ele>
        <time>2011-10-23T08:01:27Z</time>
      </trkpt>
      <trkpt lat="48.52373" lon="1.96222">
        <ele>159</ele>
        <time>2011-10-23T08:01:31Z</time>
      </trkpt>
      <trkpt lat="48.52366" lon="1.9622">
        <ele>160</ele>
        <time>2011-10-23T08:01:33Z</time>
      </trkpt>
      <trkpt lat="48.52361" lon="1.96215">
        <ele>160</ele>
        <time>2011-10-23T08:01:35Z</time>
      </trkpt>
      <trkpt lat="48.52364" lon="1.96197">
        <ele>159</ele>
        <time>2011-10-23T08:01:39Z</time>
      </trkpt>
      <trkpt lat="48.52383" lon="1.96164">
        <ele>156</ele>
        <time>2011-10-23T08:01:45Z</time>
      </trkpt>
      <trkpt lat="48.52401" lon="1.96161">
        <ele>155</ele>
        <time>2011-10-23T08:01:50Z</time>
      </trkpt>
      <trkpt lat="48.52411" lon="1.96166">
        <ele>154</ele>
        <time>2011-10-23T08:01:54Z</time>
      </trkpt>
      <trkpt lat="48.52416" lon="1.96171">
        <ele>155</ele>
        <time>2011-10-23T08:02:02Z</time>
      </trkpt>
      <trkpt lat="48.52427" lon="1.96172">
        <ele>152</ele>
        <time>2011-10-23T08:02:08Z</time>
      </trkpt>
      <trkpt lat="48.52441" lon="1.9617">
        <ele>150</ele>
        <time>2011-10-23T08:02:12Z</time>
      </trkpt>
      <trkpt lat="48.52461" lon="1.96147">
        <ele>145</ele>
        <time>2011-10-23T08:02:17Z</time>
      </trkpt>
      <trkpt lat="48.52466" lon="1.96138">
        <ele>144</ele>
        <time>2011-10-23T08:02:18Z</time>
      </trkpt>
      <trkpt lat="48.52485" lon="1.96093">
        <ele>139</ele>
        <time>2011-10-23T08:02:23Z</time>
      </trkpt>
      <trkpt lat="48.52496" lon="1.96061">
        <ele>136</ele>
        <time>2011-10-23T08:02:27Z</time>
      </trkpt>
      <trkpt lat="48.52511" lon="1.9602">
        <ele>128</ele>
        <time>2011-10-23T08:02:31Z</time>
      </trkpt>
      <trkpt lat="48.5253" lon="1.95968">
        <ele>124</ele>
        <time>2011-10-23T08:02:36Z</time>
      </trkpt>
      <trkpt lat="48.52538" lon="1.95947">
        <ele>123</ele>
        <time>2011-10-23T08:02:38Z</time>
      </trkpt>
      <trkpt lat="48.52558" lon="1.95923">
        <ele>122</ele>
        <time>2011-10-23T08:02:42Z</time>
      </trkpt>
      <trkpt lat="48.52564" lon="1.95919">
        <ele>121</ele>
        <time>2011-10-23T08:02:43Z</time>
      </trkpt>
      <trkpt lat="48.5258" lon="1.95906">
        <ele>118</ele>
        <time>2011-10-23T08:02:46Z</time>
      </trkpt>
      <trkpt lat="48.52583" lon="1.95889">
        <ele>116</ele>
        <time>2011-10-23T08:02:50Z</time>
      </trkpt>
      <trkpt lat="48.52582" lon="1.95885">
        <ele>119</ele>
        <time>2011-10-23T08:02:51Z</time>
      </trkpt>
      <trkpt lat="48.52561" lon="1.95843">
        <ele>118</ele>
        <time>2011-10-23T08:02:58Z</time>
      </trkpt>
      <trkpt lat="48.52551" lon="1.95826">
        <ele>117</ele>
        <time>2011-10-23T08:03:01Z</time>
      </trkpt>
      <trkpt lat="48.52544" lon="1.9581">
        <ele>117</ele>
        <time>2011-10-23T08:03:04Z</time>
      </trkpt>
      <trkpt lat="48.52529" lon="1.95779">
        <ele>117</ele>
        <time>2011-10-23T08:03:10Z</time>
      </trkpt>
      <trkpt lat="48.52525" lon="1.95769">
        <ele>117</ele>
        <time>2011-10-23T08:03:12Z</time>
      </trkpt>
      <trkpt lat="48.52509" lon="1.95743">
        <ele>117</ele>
        <time>2011-10-23T08:03:19Z</time>
      </trkpt>
      <trkpt lat="48.52491" lon="1.95727">
        <ele>117</ele>
        <time>2011-10-23T08:03:23Z</time>
      </trkpt>
      <trkpt lat="48.52453" lon="1.95721">
        <ele>117</ele>
        <time>2011-10-23T08:03:28Z</time>
      </trkpt>
      <trkpt lat="48.52413" lon="1.95725">
        <ele>119</ele>
        <time>2011-10-23T08:03:33Z</time>
      </trkpt>
      <trkpt lat="48.52381" lon="1.95734">
        <ele>119</ele>
        <time>2011-10-23T08:03:37Z</time>
      </trkpt>
      <trkpt lat="48.52352" lon="1.95724">
        <ele>119</ele>
        <time>2011-10-23T08:03:41Z</time>
      </trkpt>
      <trkpt lat="48.52346" lon="1.95719">
        <ele>119</ele>
        <time>2011-10-23T08:03:42Z</time>
      </trkpt>
      <trkpt lat="48.52308" lon="1.95681">
        <ele>124</ele>
        <time>2011-10-23T08:03:49Z</time>
      </trkpt>
      <trkpt lat="48.52302" lon="1.95677">
        <ele>124</ele>
        <time>2011-10-23T08:03:50Z</time>
      </trkpt>
      <trkpt lat="48.52279" lon="1.95646">
        <ele>124</ele>
        <time>2011-10-23T08:03:55Z</time>
      </trkpt>
      <trkpt lat="48.52274" lon="1.95619">
        <ele>123</ele>
        <time>2011-10-23T08:03:58Z</time>
      </trkpt>
      <trkpt lat="48.52263" lon="1.9556">
        <ele>121</ele>
        <time>2011-10-23T08:04:06Z</time>
      </trkpt>
      <trkpt lat="48.52256" lon="1.95509">
        <ele>120</ele>
        <time>2011-10-23T08:04:13Z</time>
      </trkpt>
      <trkpt lat="48.52254" lon="1.95488">
        <ele>119</ele>
        <time>2011-10-23T08:04:16Z</time>
      </trkpt>
      <trkpt lat="48.52251" lon="1.95474">
        <ele>118</ele>
        <time>2011-10-23T08:04:18Z</time>
      </trkpt>
      <trkpt lat="48.52236" lon="1.9545">
        <ele>118</ele>
        <time>2011-10-23T08:04:22Z</time>
      </trkpt>
      <trkpt lat="48.52214" lon="1.95455">
        <ele>118</ele>
        <time>2011-10-23T08:04:26Z</time>
      </trkpt>
      <trkpt lat="48.52186" lon="1.95483">
        <ele>119</ele>
        <time>2011-10-23T08:04:31Z</time>
      </trkpt>
      <trkpt lat="48.52158" lon="1.95489">
        <ele>119</ele>
        <time>2011-10-23T08:04:35Z</time>
      </trkpt>
      <trkpt lat="48.52129" lon="1.95496">
        <ele>119</ele>
        <time>2011-10-23T08:04:39Z</time>
      </trkpt>
      <trkpt lat="48.52115" lon="1.95496">
        <ele>119</ele>
        <time>2011-10-23T08:04:41Z</time>
      </trkpt>
      <trkpt lat="48.52091" lon="1.95487">
        <ele>120</ele>
        <time>2011-10-23T08:04:45Z</time>
      </trkpt>
      <trkpt lat="48.52069" lon="1.95464">
        <ele>121</ele>
        <time>2011-10-23T08:04:49Z</time>
      </trkpt>
      <trkpt lat="48.52044" lon="1.95413">
        <ele>118</ele>
        <time>2011-10-23T08:04:56Z</time>
      </trkpt>
      <trkpt lat="48.52017" lon="1.95363">
        <ele>119</ele>
        <time>2011-10-23T08:05:03Z</time>
      </trkpt>
      <trkpt lat="48.52004" lon="1.95343">
        <ele>119</ele>
        <time>2011-10-23T08:05:06Z</time>
      </trkpt>
      <trkpt lat="48.51983" lon="1.95323">
        <ele>121</ele>
        <time>2011-10-23T08:05:10Z</time>
      </trkpt>
      <trkpt lat="48.51952" lon="1.95296">
        <ele>123</ele>
        <time>2011-10-23T08:05:16Z</time>
      </trkpt>
      <trkpt lat="48.51928" lon="1.95271">
        <ele>123</ele>
        <time>2011-10-23T08:05:21Z</time>
      </trkpt>
      <trkpt lat="48.51918" lon="1.95259">
        <ele>124</ele>
        <time>2011-10-23T08:05:23Z</time>
      </trkpt>
      <trkpt lat="48.51893" lon="1.95231">
        <ele>123</ele>
        <time>2011-10-23T08:05:28Z</time>
      </trkpt>
      <trkpt lat="48.51858" lon="1.95207">
        <ele>122</ele>
        <time>2011-10-23T08:05:34Z</time>
      </trkpt>
      <trkpt lat="48.51845" lon="1.95202">
        <ele>122</ele>
        <time>2011-10-23T08:05:36Z</time>
      </trkpt>
      <trkpt lat="48.51808" lon="1.95183">
        <ele>127</ele>
        <time>2011-10-23T08:05:42Z</time>
      </trkpt>
      <trkpt lat="48.51794" lon="1.95156">
        <ele>126</ele>
        <time>2011-10-23T08:05:46Z</time>
      </trkpt>
      <trkpt lat="48.51789" lon="1.95129">
        <ele>127</ele>
        <time>2011-10-23T08:05:50Z</time>
      </trkpt>
      <trkpt lat="48.5178" lon="1.95113">
        <ele>127</ele>
        <time>2011-10-23T08:05:53Z</time>
      </trkpt>
      <trkpt lat="48.51775" lon="1.95081">
        <ele>129</ele>
        <time>2011-10-23T08:05:57Z</time>
      </trkpt>
      <trkpt lat="48.51785" lon="1.95057">
        <ele>128</ele>
        <time>2011-10-23T08:06:00Z</time>
      </trkpt>
      <trkpt lat="48.518" lon="1.95037">
        <ele>128</ele>
        <time>2011-10-23T08:06:03Z</time>
      </trkpt>
      <trkpt lat="48.51828" lon="1.94984">
        <ele>127</ele>
        <time>2011-10-23T08:06:10Z</time>
      </trkpt>
      <trkpt lat="48.51833" lon="1.9496">
        <ele>128</ele>
        <time>2011-10-23T08:06:13Z</time>
      </trkpt>
      <trkpt lat="48.51836" lon="1.94917">
        <ele>123</ele>
        <time>2011-10-23T08:06:18Z</time>
      </trkpt>
      <trkpt lat="48.51831" lon="1.9489">
        <ele>126</ele>
        <time>2011-10-23T08:06:22Z</time>
      </trkpt>
      <trkpt lat="48.51823" lon="1.94852">
        <ele>125</ele>
        <time>2011-10-23T08:06:29Z</time>
      </trkpt>
      <trkpt lat="48.5182" lon="1.94836">
        <ele>125</ele>
        <time>2011-10-23T08:06:34Z</time>
      </trkpt>
      <trkpt lat="48.51817" lon="1.94832">
        <ele>122</ele>
        <time>2011-10-23T08:06:36Z</time>
      </trkpt>
      <trkpt lat="48.51797" lon="1.94824">
        <ele>123</ele>
        <time>2011-10-23T08:06:42Z</time>
      </trkpt>
      <trkpt lat="48.51775" lon="1.94829">
        <ele>125</ele>
        <time>2011-10-23T08:06:47Z</time>
      </trkpt>
      <trkpt lat="48.51745" lon="1.94839">
        <ele>132</ele>
        <time>2011-10-23T08:06:53Z</time>
      </trkpt>
      <trkpt lat="48.51732" lon="1.9484">
        <ele>134</ele>
        <time>2011-10-23T08:06:56Z</time>
      </trkpt>
      <trkpt lat="48.51707" lon="1.94827">
        <ele>128</ele>
        <time>2011-10-23T08:07:02Z</time>
      </trkpt>
      <trkpt lat="48.51688" lon="1.94817">
        <ele>129</ele>
        <time>2011-10-23T08:07:06Z</time>
      </trkpt>
      <trkpt lat="48.5166" lon="1.9479">
        <ele>129</ele>
        <time>2011-10-23T08:07:12Z</time>
      </trkpt>
      <trkpt lat="48.51651" lon="1.94779">
        <ele>128</ele>
        <time>2011-10-23T08:07:14Z</time>
      </trkpt>
      <trkpt lat="48.51636" lon="1.94735">
        <ele>121</ele>
        <time>2011-10-23T08:07:19Z</time>
      </trkpt>
      <trkpt lat="48.51616" lon="1.947">
        <ele>121</ele>
        <time>2011-10-23T08:07:24Z</time>
      </trkpt>
      <trkpt lat="48.51593" lon="1.94697">
        <ele>121</ele>
        <time>2011-10-23T08:07:28Z</time>
      </trkpt>
      <trkpt lat="48.51571" lon="1.9471">
        <ele>122</ele>
        <time>2011-10-23T08:07:32Z</time>
      </trkpt>
      <trkpt lat="48.51547" lon="1.94736">
        <ele>123</ele>
        <time>2011-10-23T08:07:37Z</time>
      </trkpt>
      <trkpt lat="48.51537" lon="1.94748">
        <ele>123</ele>
        <time>2011-10-23T08:07:39Z</time>
      </trkpt>
      <trkpt lat="48.51517" lon="1.94765">
        <ele>127</ele>
        <time>2011-10-23T08:07:43Z</time>
      </trkpt>
      <trkpt lat="48.51508" lon="1.94772">
        <ele>127</ele>
        <time>2011-10-23T08:07:45Z</time>
      </trkpt>
      <trkpt lat="48.51491" lon="1.94783">
        <ele>126</ele>
        <time>2011-10-23T08:07:49Z</time>
      </trkpt>
      <trkpt lat="48.51478" lon="1.94792">
        <ele>126</ele>
        <time>2011-10-23T08:07:53Z</time>
      </trkpt>
      <trkpt lat="48.51454" lon="1.948">
        <ele>126</ele>
        <time>2011-10-23T08:07:59Z</time>
      </trkpt>
      <trkpt lat="48.51431" lon="1.94809">
        <ele>126</ele>
        <time>2011-10-23T08:08:03Z</time>
      </trkpt>
      <trkpt lat="48.51382" lon="1.94851">
        <ele>131</ele>
        <time>2011-10-23T08:08:11Z</time>
      </trkpt>
      <trkpt lat="48.51377" lon="1.94856">
        <ele>131</ele>
        <time>2011-10-23T08:08:12Z</time>
      </trkpt>
      <trkpt lat="48.51359" lon="1.94866">
        <ele>132</ele>
        <time>2011-10-23T08:08:16Z</time>
      </trkpt>
      <trkpt lat="48.5135" lon="1.94864">
        <ele>132</ele>
        <time>2011-10-23T08:08:19Z</time>
      </trkpt>
      <trkpt lat="48.51346" lon="1.94844">
        <ele>131</ele>
        <time>2011-10-23T08:08:23Z</time>
      </trkpt>
      <trkpt lat="48.5134" lon="1.9482">
        <ele>128</ele>
        <time>2011-10-23T08:08:28Z</time>
      </trkpt>
      <trkpt lat="48.5133" lon="1.94798">
        <ele>132</ele>
        <time>2011-10-23T08:08:32Z</time>
      </trkpt>
      <trkpt lat="48.51315" lon="1.94775">
        <ele>132</ele>
        <time>2011-10-23T08:08:36Z</time>
      </trkpt>
      <trkpt lat="48.51292" lon="1.9475">
        <ele>134</ele>
        <time>2011-10-23T08:08:41Z</time>
      </trkpt>
      <trkpt lat="48.51283" lon="1.94736">
        <ele>133</ele>
        <time>2011-10-23T08:08:44Z</time>
      </trkpt>
      <trkpt lat="48.51279" lon="1.94724">
        <ele>133</ele>
        <time>2011-10-23T08:08:46Z</time>
      </trkpt>
      <trkpt lat="48.51277" lon="1.94706">
        <ele>133</ele>
        <time>2011-10-23T08:08:49Z</time>
      </trkpt>
      <trkpt lat="48.51276" lon="1.94696">
        <ele>133</ele>
        <time>2011-10-23T08:08:51Z</time>
      </trkpt>
      <trkpt lat="48.51276" lon="1.94671">
        <ele>134</ele>
        <time>2011-10-23T08:08:56Z</time>
      </trkpt>
      <trkpt lat="48.51276" lon="1.94641">
        <ele>133</ele>
        <time>2011-10-23T08:09:00Z</time>
      </trkpt>
      <trkpt lat="48.51276" lon="1.94625">
        <ele>132</ele>
        <time>2011-10-23T08:09:02Z</time>
      </trkpt>
      <trkpt lat="48.5128" lon="1.94592">
        <ele>132</ele>
        <time>2011-10-23T08:09:06Z</time>
      </trkpt>
      <trkpt lat="48.51285" lon="1.94566">
        <ele>131</ele>
        <time>2011-10-23T08:09:10Z</time>
      </trkpt>
      <trkpt lat="48.51288" lon="1.94559">
        <ele>131</ele>
        <time>2011-10-23T08:09:11Z</time>
      </trkpt>
      <trkpt lat="48.51299" lon="1.94529">
        <ele>129</ele>
        <time>2011-10-23T08:09:15Z</time>
      </trkpt>
      <trkpt lat="48.51311" lon="1.94505">
        <ele>127</ele>
        <time>2011-10-23T08:09:19Z</time>
      </trkpt>
      <trkpt lat="48.51321" lon="1.94505">
        <ele>124</ele>
        <time>2011-10-23T08:09:22Z</time>
      </trkpt>
      <trkpt lat="48.51323" lon="1.94534">
        <ele>127</ele>
        <time>2011-10-23T08:09:27Z</time>
      </trkpt>
      <trkpt lat="48.5132" lon="1.94553">
        <ele>128</ele>
        <time>2011-10-23T08:09:29Z</time>
      </trkpt>
      <trkpt lat="48.51323" lon="1.94564">
        <ele>127</ele>
        <time>2011-10-23T08:09:32Z</time>
      </trkpt>
      <trkpt lat="48.5134" lon="1.94542">
        <ele>121</ele>
        <time>2011-10-23T08:09:37Z</time>
      </trkpt>
      <trkpt lat="48.51343" lon="1.94481">
        <ele>119</ele>
        <time>2011-10-23T08:09:43Z</time>
      </trkpt>
      <trkpt lat="48.51342" lon="1.94454">
        <ele>119</ele>
        <time>2011-10-23T08:09:46Z</time>
      </trkpt>
      <trkpt lat="48.51343" lon="1.94436">
        <ele>119</ele>
        <time>2011-10-23T08:09:48Z</time>
      </trkpt>
      <trkpt lat="48.51351" lon="1.94397">
        <ele>120</ele>
        <time>2011-10-23T08:09:52Z</time>
      </trkpt>
      <trkpt lat="48.5138" lon="1.94315">
        <ele>121</ele>
        <time>2011-10-23T08:10:00Z</time>
      </trkpt>
      <trkpt lat="48.5139" lon="1.9426">
        <ele>121</ele>
        <time>2011-10-23T08:10:05Z</time>
      </trkpt>
      <trkpt lat="48.51386" lon="1.94225">
        <ele>122</ele>
        <time>2011-10-23T08:10:09Z</time>
      </trkpt>
      <trkpt lat="48.51383" lon="1.94219">
        <ele>122</ele>
        <time>2011-10-23T08:10:10Z</time>
      </trkpt>
      <trkpt lat="48.51353" lon="1.94161">
        <ele>126</ele>
        <time>2011-10-23T08:10:19Z</time>
      </trkpt>
      <trkpt lat="48.51338" lon="1.94136">
        <ele>126</ele>
        <time>2011-10-23T08:10:24Z</time>
      </trkpt>
      <trkpt lat="48.51323" lon="1.94108">
        <ele>133</ele>
        <time>2011-10-23T08:10:30Z</time>
      </trkpt>
      <trkpt lat="48.51309" lon="1.94083">
        <ele>131</ele>
        <time>2011-10-23T08:10:35Z</time>
      </trkpt>
      <trkpt lat="48.51292" lon="1.94041">
        <ele>133</ele>
        <time>2011-10-23T08:10:41Z</time>
      </trkpt>
      <trkpt lat="48.51276" lon="1.93992">
        <ele>132</ele>
        <time>2011-10-23T08:10:47Z</time>
      </trkpt>
      <trkpt lat="48.51263" lon="1.93933">
        <ele>132</ele>
        <time>2011-10-23T08:10:54Z</time>
      </trkpt>
      <trkpt lat="48.51253" lon="1.93878">
        <ele>128</ele>
        <time>2011-10-23T08:11:00Z</time>
      </trkpt>
      <trkpt lat="48.51251" lon="1.93869">
        <ele>128</ele>
        <time>2011-10-23T08:11:01Z</time>
      </trkpt>
      <trkpt lat="48.51236" lon="1.9383">
        <ele>129</ele>
        <time>2011-10-23T08:11:05Z</time>
      </trkpt>
      <trkpt lat="48.51205" lon="1.93771">
        <ele>131</ele>
        <time>2011-10-23T08:11:11Z</time>
      </trkpt>
      <trkpt lat="48.512" lon="1.93761">
        <ele>131</ele>
        <time>2011-10-23T08:11:12Z</time>
      </trkpt>
      <trkpt lat="48.51181" lon="1.93692">
        <ele>130</ele>
        <time>2011-10-23T08:11:18Z</time>
      </trkpt>
      <trkpt lat="48.51169" lon="1.93647">
        <ele>130</ele>
        <time>2011-10-23T08:11:22Z</time>
      </trkpt>
      <trkpt lat="48.51158" lon="1.93611">
        <ele>134</ele>
        <time>2011-10-23T08:11:26Z</time>
      </trkpt>
      <trkpt lat="48.51155" lon="1.93602">
        <ele>133</ele>
        <time>2011-10-23T08:11:27Z</time>
      </trkpt>
      <trkpt lat="48.51147" lon="1.93584">
        <ele>133</ele>
        <time>2011-10-23T08:11:29Z</time>
      </trkpt>
      <trkpt lat="48.5114" lon="1.93544">
        <ele>131</ele>
        <time>2011-10-23T08:11:33Z</time>
      </trkpt>
      <trkpt lat="48.5113" lon="1.9349">
        <ele>130</ele>
        <time>2011-10-23T08:11:39Z</time>
      </trkpt>
      <trkpt lat="48.51119" lon="1.93448">
        <ele>131</ele>
        <time>2011-10-23T08:11:44Z</time>
      </trkpt>
      <trkpt lat="48.51111" lon="1.93416">
        <ele>132</ele>
        <time>2011-10-23T08:11:48Z</time>
      </trkpt>
      <trkpt lat="48.51094" lon="1.93366">
        <ele>132</ele>
        <time>2011-10-23T08:11:55Z</time>
      </trkpt>
      <trkpt lat="48.51086" lon="1.93339">
        <ele>132</ele>
        <time>2011-10-23T08:11:59Z</time>
      </trkpt>
      <trkpt lat="48.51081" lon="1.93294">
        <ele>135</ele>
        <time>2011-10-23T08:12:06Z</time>
      </trkpt>
      <trkpt lat="48.5108" lon="1.93283">
        <ele>134</ele>
        <time>2011-10-23T08:12:08Z</time>
      </trkpt>
      <trkpt lat="48.51082" lon="1.93251">
        <ele>131</ele>
        <time>2011-10-23T08:12:13Z</time>
      </trkpt>
      <trkpt lat="48.51079" lon="1.93242">
        <ele>132</ele>
        <time>2011-10-23T08:12:14Z</time>
      </trkpt>
      <trkpt lat="48.5107" lon="1.93214">
        <ele>133</ele>
        <time>2011-10-23T08:12:17Z</time>
      </trkpt>
      <trkpt lat="48.51052" lon="1.93175">
        <ele>133</ele>
        <time>2011-10-23T08:12:22Z</time>
      </trkpt>
      <trkpt lat="48.51041" lon="1.93165">
        <ele>132</ele>
        <time>2011-10-23T08:12:24Z</time>
      </trkpt>
      <trkpt lat="48.50992" lon="1.93133">
        <ele>131</ele>
        <time>2011-10-23T08:12:31Z</time>
      </trkpt>
      <trkpt lat="48.50969" lon="1.9311">
        <ele>129</ele>
        <time>2011-10-23T08:12:35Z</time>
      </trkpt>
      <trkpt lat="48.50961" lon="1.93082">
        <ele>127</ele>
        <time>2011-10-23T08:12:39Z</time>
      </trkpt>
      <trkpt lat="48.5095" lon="1.9306">
        <ele>127</ele>
        <time>2011-10-23T08:12:42Z</time>
      </trkpt>
      <trkpt lat="48.50938" lon="1.93039">
        <ele>127</ele>
        <time>2011-10-23T08:12:45Z</time>
      </trkpt>
      <trkpt lat="48.50924" lon="1.93011">
        <ele>127</ele>
        <time>2011-10-23T08:12:50Z</time>
      </trkpt>
      <trkpt lat="48.50922" lon="1.92999">
        <ele>126</ele>
        <time>2011-10-23T08:12:53Z</time>
      </trkpt>
      <trkpt lat="48.5093" lon="1.92979">
        <ele>127</ele>
        <time>2011-10-23T08:12:58Z</time>
      </trkpt>
      <trkpt lat="48.50943" lon="1.92951">
        <ele>128</ele>
        <time>2011-10-23T08:13:03Z</time>
      </trkpt>
      <trkpt lat="48.50951" lon="1.92932">
        <ele>128</ele>
        <time>2011-10-23T08:13:08Z</time>
      </trkpt>
      <trkpt lat="48.50966" lon="1.92912">
        <ele>128</ele>
        <time>2011-10-23T08:13:15Z</time>
      </trkpt>
      <trkpt lat="48.50983" lon="1.92907">
        <ele>129</ele>
        <time>2011-10-23T08:13:22Z</time>
      </trkpt>
      <trkpt lat="48.50985" lon="1.92893">
        <ele>129</ele>
        <time>2011-10-23T08:13:26Z</time>
      </trkpt>
      <trkpt lat="48.50989" lon="1.92868">
        <ele>128</ele>
        <time>2011-10-23T08:13:33Z</time>
      </trkpt>
      <trkpt lat="48.51" lon="1.92862">
        <ele>129</ele>
        <time>2011-10-23T08:13:37Z</time>
      </trkpt>
      <trkpt lat="48.51014" lon="1.92861">
        <ele>130</ele>
        <time>2011-10-23T08:13:42Z</time>
      </trkpt>
      <trkpt lat="48.51015" lon="1.9286">
        <ele>130</ele>
        <time>2011-10-23T08:13:50Z</time>
      </trkpt>
      <trkpt lat="48.51013" lon="1.92836">
        <ele>129</ele>
        <time>2011-10-23T08:13:55Z</time>
      </trkpt>
      <trkpt lat="48.51" lon="1.92783">
        <ele>127</ele>
        <time>2011-10-23T08:14:02Z</time>
      </trkpt>
      <trkpt lat="48.50993" lon="1.92758">
        <ele>127</ele>
        <time>2011-10-23T08:14:05Z</time>
      </trkpt>
      <trkpt lat="48.50981" lon="1.92677">
        <ele>127</ele>
        <time>2011-10-23T08:14:14Z</time>
      </trkpt>
      <trkpt lat="48.50969" lon="1.92611">
        <ele>129</ele>
        <time>2011-10-23T08:14:21Z</time>
      </trkpt>
      <trkpt lat="48.50965" lon="1.92577">
        <ele>131</ele>
        <time>2011-10-23T08:14:25Z</time>
      </trkpt>
      <trkpt lat="48.5097" lon="1.92537">
        <ele>131</ele>
        <time>2011-10-23T08:14:30Z</time>
      </trkpt>
      <trkpt lat="48.50977" lon="1.9251">
        <ele>132</ele>
        <time>2011-10-23T08:14:33Z</time>
      </trkpt>
      <trkpt lat="48.50973" lon="1.92466">
        <ele>133</ele>
        <time>2011-10-23T08:14:38Z</time>
      </trkpt>
      <trkpt lat="48.50968" lon="1.92457">
        <ele>133</ele>
        <time>2011-10-23T08:14:39Z</time>
      </trkpt>
      <trkpt lat="48.50956" lon="1.92417">
        <ele>132</ele>
        <time>2011-10-23T08:14:44Z</time>
      </trkpt>
      <trkpt lat="48.50949" lon="1.92337">
        <ele>134</ele>
        <time>2011-10-23T08:14:53Z</time>
      </trkpt>
      <trkpt lat="48.50941" lon="1.92272">
        <ele>136</ele>
        <time>2011-10-23T08:15:00Z</time>
      </trkpt>
      <trkpt lat="48.50936" lon="1.92208">
        <ele>137</ele>
        <time>2011-10-23T08:15:07Z</time>
      </trkpt>
      <trkpt lat="48.50933" lon="1.92158">
        <ele>138</ele>
        <time>2011-10-23T08:15:13Z</time>
      </trkpt>
      <trkpt lat="48.50924" lon="1.92109">
        <ele>140</ele>
        <time>2011-10-23T08:15:18Z</time>
      </trkpt>
      <trkpt lat="48.50919" lon="1.92082">
        <ele>139</ele>
        <time>2011-10-23T08:15:21Z</time>
      </trkpt>
      <trkpt lat="48.50905" lon="1.9204">
        <ele>137</ele>
        <time>2011-10-23T08:15:26Z</time>
      </trkpt>
      <trkpt lat="48.50889" lon="1.91988">
        <ele>136</ele>
        <time>2011-10-23T08:15:32Z</time>
      </trkpt>
      <trkpt lat="48.50885" lon="1.91969">
        <ele>136</ele>
        <time>2011-10-23T08:15:34Z</time>
      </trkpt>
      <trkpt lat="48.5088" lon="1.91925">
        <ele>136</ele>
        <time>2011-10-23T08:15:39Z</time>
      </trkpt>
      <trkpt lat="48.5089" lon="1.91893">
        <ele>135</ele>
        <time>2011-10-23T08:15:44Z</time>
      </trkpt>
      <trkpt lat="48.50901" lon="1.91878">
        <ele>135</ele>
        <time>2011-10-23T08:15:47Z</time>
      </trkpt>
      <trkpt lat="48.50925" lon="1.91861">
        <ele>139</ele>
        <time>2011-10-23T08:15:53Z</time>
      </trkpt>
      <trkpt lat="48.5093" lon="1.91858">
        <ele>139</ele>
        <time>2011-10-23T08:15:54Z</time>
      </trkpt>
      <trkpt lat="48.50941" lon="1.91847">
        <ele>139</ele>
        <time>2011-10-23T08:15:57Z</time>
      </trkpt>
      <trkpt lat="48.50967" lon="1.91826">
        <ele>138</ele>
        <time>2011-10-23T08:16:04Z</time>
      </trkpt>
      <trkpt lat="48.50976" lon="1.91815">
        <ele>138</ele>
        <time>2011-10-23T08:16:07Z</time>
      </trkpt>
      <trkpt lat="48.50989" lon="1.91801">
        <ele>138</ele>
        <time>2011-10-23T08:16:11Z</time>
      </trkpt>
      <trkpt lat="48.51003" lon="1.91795">
        <ele>143</ele>
        <time>2011-10-23T08:16:15Z</time>
      </trkpt>
      <trkpt lat="48.51019" lon="1.91791">
        <ele>144</ele>
        <time>2011-10-23T08:16:21Z</time>
      </trkpt>
      <trkpt lat="48.51034" lon="1.91787">
        <ele>144</ele>
        <time>2011-10-23T08:16:27Z</time>
      </trkpt>
      <trkpt lat="48.51048" lon="1.91789">
        <ele>145</ele>
        <time>2011-10-23T08:16:34Z</time>
      </trkpt>
      <trkpt lat="48.51064" lon="1.91784">
        <ele>146</ele>
        <time>2011-10-23T08:16:41Z</time>
      </trkpt>
      <trkpt lat="48.51078" lon="1.91775">
        <ele>146</ele>
        <time>2011-10-23T08:16:48Z</time>
      </trkpt>
      <trkpt lat="48.51093" lon="1.91766">
        <ele>150</ele>
        <time>2011-10-23T08:16:55Z</time>
      </trkpt>
      <trkpt lat="48.51095" lon="1.91765">
        <ele>150</ele>
        <time>2011-10-23T08:16:56Z</time>
      </trkpt>
      <trkpt lat="48.51104" lon="1.91763">
        <ele>151</ele>
        <time>2011-10-23T08:17:00Z</time>
      </trkpt>
      <trkpt lat="48.51129" lon="1.91754">
        <ele>152</ele>
        <time>2011-10-23T08:17:08Z</time>
      </trkpt>
      <trkpt lat="48.51144" lon="1.91748">
        <ele>149</ele>
        <time>2011-10-23T08:17:13Z</time>
      </trkpt>
      <trkpt lat="48.51161" lon="1.91745">
        <ele>151</ele>
        <time>2011-10-23T08:17:19Z</time>
      </trkpt>
      <trkpt lat="48.51182" lon="1.91748">
        <ele>153</ele>
        <time>2011-10-23T08:17:26Z</time>
      </trkpt>
      <trkpt lat="48.51205" lon="1.91764">
        <ele>155</ele>
        <time>2011-10-23T08:17:34Z</time>
      </trkpt>
      <trkpt lat="48.51233" lon="1.91789">
        <ele>156</ele>
        <time>2011-10-23T08:17:41Z</time>
      </trkpt>
      <trkpt lat="48.51274" lon="1.91828">
        <ele>158</ele>
        <time>2011-10-23T08:17:51Z</time>
      </trkpt>
      <trkpt lat="48.51309" lon="1.91861">
        <ele>159</ele>
        <time>2011-10-23T08:17:59Z</time>
      </trkpt>
      <trkpt lat="48.51313" lon="1.91865">
        <ele>159</ele>
        <time>2011-10-23T08:18:00Z</time>
      </trkpt>
      <trkpt lat="48.51353" lon="1.91894">
        <ele>159</ele>
        <time>2011-10-23T08:18:08Z</time>
      </trkpt>
      <trkpt lat="48.51374" lon="1.91897">
        <ele>159</ele>
        <time>2011-10-23T08:18:12Z</time>
      </trkpt>
      <trkpt lat="48.5142" lon="1.91868">
        <ele>159</ele>
        <time>2011-10-23T08:18:20Z</time>
      </trkpt>
      <trkpt lat="48.51426" lon="1.91864">
        <ele>159</ele>
        <time>2011-10-23T08:18:21Z</time>
      </trkpt>
      <trkpt lat="48.51443" lon="1.91842">
        <ele>159</ele>
        <time>2011-10-23T08:18:25Z</time>
      </trkpt>
      <trkpt lat="48.5146" lon="1.91825">
        <ele>159</ele>
        <time>2011-10-23T08:18:30Z</time>
      </trkpt>
      <trkpt lat="48.51471" lon="1.9183">
        <ele>159</ele>
        <time>2011-10-23T08:18:32Z</time>
      </trkpt>
      <trkpt lat="48.51518" lon="1.91854">
        <ele>159</ele>
        <time>2011-10-23T08:18:40Z</time>
      </trkpt>
      <trkpt lat="48.51567" lon="1.91863">
        <ele>158</ele>
        <time>2011-10-23T08:18:47Z</time>
      </trkpt>
      <trkpt lat="48.51616" lon="1.91861">
        <ele>158</ele>
        <time>2011-10-23T08:18:54Z</time>
      </trkpt>
      <trkpt lat="48.51635" lon="1.91861">
        <ele>158</ele>
        <time>2011-10-23T08:18:57Z</time>
      </trkpt>
      <trkpt lat="48.51672" lon="1.91858">
        <ele>157</ele>
        <time>2011-10-23T08:19:03Z</time>
      </trkpt>
      <trkpt lat="48.51699" lon="1.91853">
        <ele>157</ele>
        <time>2011-10-23T08:19:07Z</time>
      </trkpt>
      <trkpt lat="48.51761" lon="1.91847">
        <ele>157</ele>
        <time>2011-10-23T08:19:16Z</time>
      </trkpt>
      <trkpt lat="48.51834" lon="1.91837">
        <ele>157</ele>
        <time>2011-10-23T08:19:27Z</time>
      </trkpt>
      <trkpt lat="48.51901" lon="1.91826">
        <ele>158</ele>
        <time>2011-10-23T08:19:37Z</time>
      </trkpt>
      <trkpt lat="48.51959" lon="1.91816">
        <ele>158</ele>
        <time>2011-10-23T08:19:46Z</time>
      </trkpt>
      <trkpt lat="48.52022" lon="1.91804">
        <ele>158</ele>
        <time>2011-10-23T08:19:56Z</time>
      </trkpt>
      <trkpt lat="48.52065" lon="1.91792">
        <ele>158</ele>
        <time>2011-10-23T08:20:03Z</time>
      </trkpt>
      <trkpt lat="48.52117" lon="1.91764">
        <ele>159</ele>
        <time>2011-10-23T08:20:12Z</time>
      </trkpt>
      <trkpt lat="48.52169" lon="1.91739">
        <ele>160</ele>
        <time>2011-10-23T08:20:21Z</time>
      </trkpt>
      <trkpt lat="48.52228" lon="1.91738">
        <ele>159</ele>
        <time>2011-10-23T08:20:30Z</time>
      </trkpt>
      <trkpt lat="48.52262" lon="1.91745">
        <ele>159</ele>
        <time>2011-10-23T08:20:35Z</time>
      </trkpt>
      <trkpt lat="48.52336" lon="1.91776">
        <ele>157</ele>
        <time>2011-10-23T08:20:46Z</time>
      </trkpt>
      <trkpt lat="48.52362" lon="1.91789">
        <ele>157</ele>
        <time>2011-10-23T08:20:50Z</time>
      </trkpt>
      <trkpt lat="48.52373" lon="1.91796">
        <ele>157</ele>
        <time>2011-10-23T08:20:52Z</time>
      </trkpt>
      <trkpt lat="48.52415" lon="1.91806">
        <ele>157</ele>
        <time>2011-10-23T08:20:58Z</time>
      </trkpt>
      <trkpt lat="48.52437" lon="1.91808">
        <ele>157</ele>
        <time>2011-10-23T08:21:01Z</time>
      </trkpt>
      <trkpt lat="48.52457" lon="1.91813">
        <ele>156</ele>
        <time>2011-10-23T08:21:04Z</time>
      </trkpt>
      <trkpt lat="48.52484" lon="1.91808">
        <ele>156</ele>
        <time>2011-10-23T08:21:08Z</time>
      </trkpt>
      <trkpt lat="48.52525" lon="1.91778">
        <ele>157</ele>
        <time>2011-10-23T08:21:15Z</time>
      </trkpt>
      <trkpt lat="48.52581" lon="1.91744">
        <ele>159</ele>
        <time>2011-10-23T08:21:25Z</time>
      </trkpt>
      <trkpt lat="48.52629" lon="1.91728">
        <ele>159</ele>
        <time>2011-10-23T08:21:33Z</time>
      </trkpt>
      <trkpt lat="48.52651" lon="1.91738">
        <ele>159</ele>
        <time>2011-10-23T08:21:37Z</time>
      </trkpt>
      <trkpt lat="48.52675" lon="1.91775">
        <ele>158</ele>
        <time>2011-10-23T08:21:43Z</time>
      </trkpt>
      <trkpt lat="48.52711" lon="1.91804">
        <ele>158</ele>
        <time>2011-10-23T08:21:50Z</time>
      </trkpt>
      <trkpt lat="48.52748" lon="1.91834">
        <ele>158</ele>
        <time>2011-10-23T08:21:57Z</time>
      </trkpt>
      <trkpt lat="48.52792" lon="1.91864">
        <ele>157</ele>
        <time>2011-10-23T08:22:05Z</time>
      </trkpt>
      <trkpt lat="48.52848" lon="1.91904">
        <ele>157</ele>
        <time>2011-10-23T08:22:15Z</time>
      </trkpt>
      <trkpt lat="48.52886" lon="1.91931">
        <ele>156</ele>
        <time>2011-10-23T08:22:22Z</time>
      </trkpt>
      <trkpt lat="48.52926" lon="1.91958">
        <ele>155</ele>
        <time>2011-10-23T08:22:29Z</time>
      </trkpt>
      <trkpt lat="48.52973" lon="1.9199">
        <ele>155</ele>
        <time>2011-10-23T08:22:37Z</time>
      </trkpt>
      <trkpt lat="48.53027" lon="1.92028">
        <ele>152</ele>
        <time>2011-10-23T08:22:46Z</time>
      </trkpt>
      <trkpt lat="48.53075" lon="1.92062">
        <ele>150</ele>
        <time>2011-10-23T08:22:53Z</time>
      </trkpt>
      <trkpt lat="48.53122" lon="1.92094">
        <ele>151</ele>
        <time>2011-10-23T08:23:00Z</time>
      </trkpt>
      <trkpt lat="48.53148" lon="1.92114">
        <ele>152</ele>
        <time>2011-10-23T08:23:05Z</time>
      </trkpt>
      <trkpt lat="48.53167" lon="1.92137">
        <ele>157</ele>
        <time>2011-10-23T08:23:10Z</time>
      </trkpt>
      <trkpt lat="48.53182" lon="1.92145">
        <ele>157</ele>
        <time>2011-10-23T08:23:14Z</time>
      </trkpt>
      <trkpt lat="48.5321" lon="1.92168">
        <ele>159</ele>
        <time>2011-10-23T08:23:23Z</time>
      </trkpt>
      <trkpt lat="48.53229" lon="1.92201">
        <ele>160</ele>
        <time>2011-10-23T08:23:30Z</time>
      </trkpt>
      <trkpt lat="48.53242" lon="1.92221">
        <ele>161</ele>
        <time>2011-10-23T08:23:34Z</time>
      </trkpt>
      <trkpt lat="48.53258" lon="1.92235">
        <ele>162</ele>
        <time>2011-10-23T08:23:38Z</time>
      </trkpt>
      <trkpt lat="48.53272" lon="1.92244">
        <ele>162</ele>
        <time>2011-10-23T08:23:41Z</time>
      </trkpt>
      <trkpt lat="48.53298" lon="1.92266">
        <ele>163</ele>
        <time>2011-10-23T08:23:47Z</time>
      </trkpt>
      <trkpt lat="48.53331" lon="1.9228">
        <ele>163</ele>
        <time>2011-10-23T08:23:53Z</time>
      </trkpt>
      <trkpt lat="48.53356" lon="1.92296">
        <ele>163</ele>
        <time>2011-10-23T08:23:58Z</time>
      </trkpt>
      <trkpt lat="48.53377" lon="1.92305">
        <ele>164</ele>
        <time>2011-10-23T08:24:02Z</time>
      </trkpt>
      <trkpt lat="48.53397" lon="1.92324">
        <ele>164</ele>
        <time>2011-10-23T08:24:06Z</time>
      </trkpt>
      <trkpt lat="48.53413" lon="1.92346">
        <ele>164</ele>
        <time>2011-10-23T08:24:10Z</time>
      </trkpt>
      <trkpt lat="48.53431" lon="1.92364">
        <ele>164</ele>
        <time>2011-10-23T08:24:14Z</time>
      </trkpt>
      <trkpt lat="48.53442" lon="1.92382">
        <ele>164</ele>
        <time>2011-10-23T08:24:17Z</time>
      </trkpt>
      <trkpt lat="48.5345" lon="1.92406">
        <ele>164</ele>
        <time>2011-10-23T08:24:20Z</time>
      </trkpt>
      <trkpt lat="48.53456" lon="1.92422">
        <ele>164</ele>
        <time>2011-10-23T08:24:23Z</time>
      </trkpt>
      <trkpt lat="48.5346" lon="1.92432">
        <ele>164</ele>
        <time>2011-10-23T08:24:26Z</time>
      </trkpt>
      <trkpt lat="48.53474" lon="1.92449">
        <ele>164</ele>
        <time>2011-10-23T08:24:30Z</time>
      </trkpt>
      <trkpt lat="48.53496" lon="1.92476">
        <ele>165</ele>
        <time>2011-10-23T08:24:34Z</time>
      </trkpt>
      <trkpt lat="48.53528" lon="1.92542">
        <ele>165</ele>
        <time>2011-10-23T08:24:42Z</time>
      </trkpt>
      <trkpt lat="48.53532" lon="1.9255">
        <ele>165</ele>
        <time>2011-10-23T08:24:43Z</time>
      </trkpt>
      <trkpt lat="48.53561" lon="1.92593">
        <ele>165</ele>
        <time>2011-10-23T08:24:49Z</time>
      </trkpt>
      <trkpt lat="48.53579" lon="1.92623">
        <ele>165</ele>
        <time>2011-10-23T08:24:53Z</time>
      </trkpt>
      <trkpt lat="48.53599" lon="1.92649">
        <ele>165</ele>
        <time>2011-10-23T08:24:57Z</time>
      </trkpt>
      <trkpt lat="48.53635" lon="1.9268">
        <ele>164</ele>
        <time>2011-10-23T08:25:03Z</time>
      </trkpt>
      <trkpt lat="48.53672" lon="1.92694">
        <ele>161</ele>
        <time>2011-10-23T08:25:08Z</time>
      </trkpt>
      <trkpt lat="48.53714" lon="1.9271">
        <ele>160</ele>
        <time>2011-10-23T08:25:13Z</time>
      </trkpt>
      <trkpt lat="48.53722" lon="1.92712">
        <ele>160</ele>
        <time>2011-10-23T08:25:14Z</time>
      </trkpt>
      <trkpt lat="48.5376" lon="1.92729">
        <ele>155</ele>
        <time>2011-10-23T08:25:19Z</time>
      </trkpt>
      <trkpt lat="48.53806" lon="1.92759">
        <ele>150</ele>
        <time>2011-10-23T08:25:25Z</time>
      </trkpt>
      <trkpt lat="48.53848" lon="1.92784">
        <ele>148</ele>
        <time>2011-10-23T08:25:30Z</time>
      </trkpt>
      <trkpt lat="48.53872" lon="1.92793">
        <ele>148</ele>
        <time>2011-10-23T08:25:33Z</time>
      </trkpt>
      <trkpt lat="48.53896" lon="1.92819">
        <ele>149</ele>
        <time>2011-10-23T08:25:37Z</time>
      </trkpt>
      <trkpt lat="48.53913" lon="1.92862">
        <ele>150</ele>
        <time>2011-10-23T08:25:43Z</time>
      </trkpt>
      <trkpt lat="48.5392" lon="1.92879">
        <ele>156</ele>
        <time>2011-10-23T08:25:46Z</time>
      </trkpt>
      <trkpt lat="48.53925" lon="1.92887">
        <ele>156</ele>
        <time>2011-10-23T08:25:48Z</time>
      </trkpt>
      <trkpt lat="48.53935" lon="1.9291">
        <ele>157</ele>
        <time>2011-10-23T08:25:53Z</time>
      </trkpt>
      <trkpt lat="48.53937" lon="1.92914">
        <ele>157</ele>
        <time>2011-10-23T08:25:54Z</time>
      </trkpt>
      <trkpt lat="48.53952" lon="1.92936">
        <ele>158</ele>
        <time>2011-10-23T08:26:00Z</time>
      </trkpt>
      <trkpt lat="48.53977" lon="1.92958">
        <ele>159</ele>
        <time>2011-10-23T08:26:07Z</time>
      </trkpt>
      <trkpt lat="48.53981" lon="1.92961">
        <ele>159</ele>
        <time>2011-10-23T08:26:08Z</time>
      </trkpt>
      <trkpt lat="48.54003" lon="1.92981">
        <ele>162</ele>
        <time>2011-10-23T08:26:14Z</time>
      </trkpt>
      <trkpt lat="48.54011" lon="1.9299">
        <ele>162</ele>
        <time>2011-10-23T08:26:16Z</time>
      </trkpt>
      <trkpt lat="48.54037" lon="1.93024">
        <ele>161</ele>
        <time>2011-10-23T08:26:23Z</time>
      </trkpt>
      <trkpt lat="48.54046" lon="1.93036">
        <ele>161</ele>
        <time>2011-10-23T08:26:25Z</time>
      </trkpt>
      <trkpt lat="48.54073" lon="1.93102">
        <ele>157</ele>
        <time>2011-10-23T08:26:33Z</time>
      </trkpt>
      <trkpt lat="48.54076" lon="1.93111">
        <ele>156</ele>
        <time>2011-10-23T08:26:34Z</time>
      </trkpt>
      <trkpt lat="48.54081" lon="1.93139">
        <ele>155</ele>
        <time>2011-10-23T08:26:37Z</time>
      </trkpt>
      <trkpt lat="48.54097" lon="1.93184">
        <ele>151</ele>
        <time>2011-10-23T08:26:42Z</time>
      </trkpt>
      <trkpt lat="48.54138" lon="1.93265">
        <ele>147</ele>
        <time>2011-10-23T08:26:51Z</time>
      </trkpt>
      <trkpt lat="48.54179" lon="1.93341">
        <ele>144</ele>
        <time>2011-10-23T08:26:59Z</time>
      </trkpt>
      <trkpt lat="48.54219" lon="1.93418">
        <ele>140</ele>
        <time>2011-10-23T08:27:07Z</time>
      </trkpt>
      <trkpt lat="48.54257" lon="1.93492">
        <ele>138</ele>
        <time>2011-10-23T08:27:15Z</time>
      </trkpt>
      <trkpt lat="48.54276" lon="1.93552">
        <ele>136</ele>
        <time>2011-10-23T08:27:21Z</time>
      </trkpt>
      <trkpt lat="48.54288" lon="1.93599">
        <ele>134</ele>
        <time>2011-10-23T08:27:26Z</time>
      </trkpt>
      <trkpt lat="48.54302" lon="1.93629">
        <ele>134</ele>
        <time>2011-10-23T08:27:30Z</time>
      </trkpt>
      <trkpt lat="48.54324" lon="1.93677">
        <ele>133</ele>
        <time>2011-10-23T08:27:36Z</time>
      </trkpt>
      <trkpt lat="48.54354" lon="1.93736">
        <ele>132</ele>
        <time>2011-10-23T08:27:43Z</time>
      </trkpt>
      <trkpt lat="48.54363" lon="1.93751">
        <ele>132</ele>
        <time>2011-10-23T08:27:46Z</time>
      </trkpt>
      <trkpt lat="48.54366" lon="1.93758">
        <ele>132</ele>
        <time>2011-10-23T08:27:48Z</time>
      </trkpt>
      <trkpt lat="48.54371" lon="1.93769">
        <ele>132</ele>
        <time>2011-10-23T08:27:50Z</time>
      </trkpt>
      <trkpt lat="48.54376" lon="1.93791">
        <ele>132</ele>
        <time>2011-10-23T08:27:53Z</time>
      </trkpt>
      <trkpt lat="48.54384" lon="1.93816">
        <ele>132</ele>
        <time>2011-10-23T08:27:56Z</time>
      </trkpt>
      <trkpt lat="48.54389" lon="1.93842">
        <ele>134</ele>
        <time>2011-10-23T08:27:59Z</time>
      </trkpt>
      <trkpt lat="48.54401" lon="1.93871">
        <ele>135</ele>
        <time>2011-10-23T08:28:03Z</time>
      </trkpt>
      <trkpt lat="48.54428" lon="1.93903">
        <ele>140</ele>
        <time>2011-10-23T08:28:10Z</time>
      </trkpt>
      <trkpt lat="48.54431" lon="1.93908">
        <ele>140</ele>
        <time>2011-10-23T08:28:11Z</time>
      </trkpt>
      <trkpt lat="48.54449" lon="1.93927">
        <ele>146</ele>
        <time>2011-10-23T08:28:16Z</time>
      </trkpt>
      <trkpt lat="48.54458" lon="1.93933">
        <ele>147</ele>
        <time>2011-10-23T08:28:20Z</time>
      </trkpt>
      <trkpt lat="48.54471" lon="1.93935">
        <ele>147</ele>
        <time>2011-10-23T08:28:26Z</time>
      </trkpt>
      <trkpt lat="48.54482" lon="1.93937">
        <ele>147</ele>
        <time>2011-10-23T08:28:31Z</time>
      </trkpt>
      <trkpt lat="48.54497" lon="1.93936">
        <ele>147</ele>
        <time>2011-10-23T08:28:37Z</time>
      </trkpt>
      <trkpt lat="48.54512" lon="1.93943">
        <ele>151</ele>
        <time>2011-10-23T08:28:43Z</time>
      </trkpt>
      <trkpt lat="48.54527" lon="1.93959">
        <ele>153</ele>
        <time>2011-10-23T08:28:49Z</time>
      </trkpt>
      <trkpt lat="48.54538" lon="1.93972">
        <ele>154</ele>
        <time>2011-10-23T08:28:55Z</time>
      </trkpt>
      <trkpt lat="48.54548" lon="1.93986">
        <ele>155</ele>
        <time>2011-10-23T08:29:01Z</time>
      </trkpt>
      <trkpt lat="48.54555" lon="1.93997">
        <ele>155</ele>
        <time>2011-10-23T08:29:06Z</time>
      </trkpt>
      <trkpt lat="48.54565" lon="1.94014">
        <ele>160</ele>
        <time>2011-10-23T08:29:13Z</time>
      </trkpt>
      <trkpt lat="48.54575" lon="1.94027">
        <ele>160</ele>
        <time>2011-10-23T08:29:19Z</time>
      </trkpt>
      <trkpt lat="48.54577" lon="1.94028">
        <ele>160</ele>
        <time>2011-10-23T08:29:20Z</time>
      </trkpt>
      <trkpt lat="48.54584" lon="1.94034">
        <ele>164</ele>
        <time>2011-10-23T08:29:24Z</time>
      </trkpt>
      <trkpt lat="48.54598" lon="1.94049">
        <ele>165</ele>
        <time>2011-10-23T08:29:32Z</time>
      </trkpt>
      <trkpt lat="48.5461" lon="1.94049">
        <ele>165</ele>
        <time>2011-10-23T08:29:36Z</time>
      </trkpt>
      <trkpt lat="48.54627" lon="1.94043">
        <ele>165</ele>
        <time>2011-10-23T08:29:41Z</time>
      </trkpt>
      <trkpt lat="48.54647" lon="1.94032">
        <ele>166</ele>
        <time>2011-10-23T08:29:47Z</time>
      </trkpt>
      <trkpt lat="48.54667" lon="1.94018">
        <ele>169</ele>
        <time>2011-10-23T08:29:52Z</time>
      </trkpt>
      <trkpt lat="48.54689" lon="1.94004">
        <ele>169</ele>
        <time>2011-10-23T08:29:57Z</time>
      </trkpt>
      <trkpt lat="48.54719" lon="1.93985">
        <ele>169</ele>
        <time>2011-10-23T08:30:03Z</time>
      </trkpt>
      <trkpt lat="48.54741" lon="1.93977">
        <ele>170</ele>
        <time>2011-10-23T08:30:07Z</time>
      </trkpt>
      <trkpt lat="48.54752" lon="1.93975">
        <ele>170</ele>
        <time>2011-10-23T08:30:09Z</time>
      </trkpt>
      <trkpt lat="48.54774" lon="1.9397">
        <ele>170</ele>
        <time>2011-10-23T08:30:13Z</time>
      </trkpt>
      <trkpt lat="48.54799" lon="1.93959">
        <ele>170</ele>
        <time>2011-10-23T08:30:17Z</time>
      </trkpt>
      <trkpt lat="48.5481" lon="1.93949">
        <ele>169</ele>
        <time>2011-10-23T08:30:19Z</time>
      </trkpt>
      <trkpt lat="48.54822" lon="1.93909">
        <ele>169</ele>
        <time>2011-10-23T08:30:24Z</time>
      </trkpt>
      <trkpt lat="48.54823" lon="1.93901">
        <ele>169</ele>
        <time>2011-10-23T08:30:25Z</time>
      </trkpt>
      <trkpt lat="48.54823" lon="1.93884">
        <ele>170</ele>
        <time>2011-10-23T08:30:27Z</time>
      </trkpt>
      <trkpt lat="48.54823" lon="1.93863">
        <ele>170</ele>
        <time>2011-10-23T08:30:29Z</time>
      </trkpt>
      <trkpt lat="48.54819" lon="1.93833">
        <ele>170</ele>
        <time>2011-10-23T08:30:32Z</time>
      </trkpt>
      <trkpt lat="48.54825" lon="1.93773">
        <ele>170</ele>
        <time>2011-10-23T08:30:38Z</time>
      </trkpt>
      <trkpt lat="48.54829" lon="1.93752">
        <ele>170</ele>
        <time>2011-10-23T08:30:40Z</time>
      </trkpt>
      <trkpt lat="48.5484" lon="1.93689">
        <ele>170</ele>
        <time>2011-10-23T08:30:46Z</time>
      </trkpt>
      <trkpt lat="48.54861" lon="1.93623">
        <ele>168</ele>
        <time>2011-10-23T08:30:53Z</time>
      </trkpt>
      <trkpt lat="48.5488" lon="1.93583">
        <ele>168</ele>
        <time>2011-10-23T08:30:58Z</time>
      </trkpt>
      <trkpt lat="48.54883" lon="1.93576">
        <ele>165</ele>
        <time>2011-10-23T08:30:59Z</time>
      </trkpt>
      <trkpt lat="48.54902" lon="1.93559">
        <ele>165</ele>
        <time>2011-10-23T08:31:03Z</time>
      </trkpt>
      <trkpt lat="48.54935" lon="1.93546">
        <ele>167</ele>
        <time>2011-10-23T08:31:09Z</time>
      </trkpt>
      <trkpt lat="48.54975" lon="1.93529">
        <ele>167</ele>
        <time>2011-10-23T08:31:16Z</time>
      </trkpt>
      <trkpt lat="48.54999" lon="1.93519">
        <ele>167</ele>
        <time>2011-10-23T08:31:20Z</time>
      </trkpt>
      <trkpt lat="48.55036" lon="1.93504">
        <ele>167</ele>
        <time>2011-10-23T08:31:26Z</time>
      </trkpt>
      <trkpt lat="48.55067" lon="1.93502">
        <ele>167</ele>
        <time>2011-10-23T08:31:31Z</time>
      </trkpt>
      <trkpt lat="48.55079" lon="1.93493">
        <ele>167</ele>
        <time>2011-10-23T08:31:33Z</time>
      </trkpt>
      <trkpt lat="48.5512" lon="1.93448">
        <ele>167</ele>
        <time>2011-10-23T08:31:40Z</time>
      </trkpt>
      <trkpt lat="48.5516" lon="1.93408">
        <ele>166</ele>
        <time>2011-10-23T08:31:46Z</time>
      </trkpt>
      <trkpt lat="48.55192" lon="1.93378">
        <ele>164</ele>
        <time>2011-10-23T08:31:51Z</time>
      </trkpt>
      <trkpt lat="48.55215" lon="1.93353">
        <ele>163</ele>
        <time>2011-10-23T08:31:55Z</time>
      </trkpt>
      <trkpt lat="48.55236" lon="1.9333">
        <ele>159</ele>
        <time>2011-10-23T08:31:59Z</time>
      </trkpt>
      <trkpt lat="48.55236" lon="1.93302">
        <ele>159</ele>
        <time>2011-10-23T08:32:03Z</time>
      </trkpt>
      <trkpt lat="48.55218" lon="1.93284">
        <ele>159</ele>
        <time>2011-10-23T08:32:06Z</time>
      </trkpt>
      <trkpt lat="48.55205" lon="1.93276">
        <ele>160</ele>
        <time>2011-10-23T08:32:08Z</time>
      </trkpt>
      <trkpt lat="48.55172" lon="1.93259">
        <ele>161</ele>
        <time>2011-10-23T08:32:14Z</time>
      </trkpt>
      <trkpt lat="48.55146" lon="1.93247">
        <ele>162</ele>
        <time>2011-10-23T08:32:19Z</time>
      </trkpt>
      <trkpt lat="48.55123" lon="1.93239">
        <ele>162</ele>
        <time>2011-10-23T08:32:23Z</time>
      </trkpt>
      <trkpt lat="48.55088" lon="1.93227">
        <ele>164</ele>
        <time>2011-10-23T08:32:29Z</time>
      </trkpt>
      <trkpt lat="48.55082" lon="1.93224">
        <ele>165</ele>
        <time>2011-10-23T08:32:30Z</time>
      </trkpt>
      <trkpt lat="48.55056" lon="1.93202">
        <ele>164</ele>
        <time>2011-10-23T08:32:35Z</time>
      </trkpt>
      <trkpt lat="48.55052" lon="1.93195">
        <ele>164</ele>
        <time>2011-10-23T08:32:36Z</time>
      </trkpt>
      <trkpt lat="48.55015" lon="1.9312">
        <ele>161</ele>
        <time>2011-10-23T08:32:46Z</time>
      </trkpt>
      <trkpt lat="48.55002" lon="1.931">
        <ele>160</ele>
        <time>2011-10-23T08:32:49Z</time>
      </trkpt>
      <trkpt lat="48.5498" lon="1.93077">
        <ele>154</ele>
        <time>2011-10-23T08:32:53Z</time>
      </trkpt>
      <trkpt lat="48.54936" lon="1.93037">
        <ele>149</ele>
        <time>2011-10-23T08:32:59Z</time>
      </trkpt>
      <trkpt lat="48.54921" lon="1.93016">
        <ele>147</ele>
        <time>2011-10-23T08:33:01Z</time>
      </trkpt>
      <trkpt lat="48.549" lon="1.92962">
        <ele>142</ele>
        <time>2011-10-23T08:33:05Z</time>
      </trkpt>
      <trkpt lat="48.54884" lon="1.92893">
        <ele>142</ele>
        <time>2011-10-23T08:33:10Z</time>
      </trkpt>
      <trkpt lat="48.54864" lon="1.92813">
        <ele>142</ele>
        <time>2011-10-23T08:33:17Z</time>
      </trkpt>
      <trkpt lat="48.54849" lon="1.92803">
        <ele>142</ele>
        <time>2011-10-23T08:33:20Z</time>
      </trkpt>
      <trkpt lat="48.54827" lon="1.92812">
        <ele>140</ele>
        <time>2011-10-23T08:33:24Z</time>
      </trkpt>
      <trkpt lat="48.54811" lon="1.92812">
        <ele>140</ele>
        <time>2011-10-23T08:33:27Z</time>
      </trkpt>
      <trkpt lat="48.5479" lon="1.92795">
        <ele>140</ele>
        <time>2011-10-23T08:33:32Z</time>
      </trkpt>
      <trkpt lat="48.54786" lon="1.92776">
        <ele>141</ele>
        <time>2011-10-23T08:33:35Z</time>
      </trkpt>
      <trkpt lat="48.54793" lon="1.92725">
        <ele>143</ele>
        <time>2011-10-23T08:33:41Z</time>
      </trkpt>
      <trkpt lat="48.54805" lon="1.92682">
        <ele>143</ele>
        <time>2011-10-23T08:33:46Z</time>
      </trkpt>
      <trkpt lat="48.54823" lon="1.92627">
        <ele>144</ele>
        <time>2011-10-23T08:33:52Z</time>
      </trkpt>
      <trkpt lat="48.54842" lon="1.92567">
        <ele>144</ele>
        <time>2011-10-23T08:33:58Z</time>
      </trkpt>
      <trkpt lat="48.54861" lon="1.92502">
        <ele>145</ele>
        <time>2011-10-23T08:34:05Z</time>
      </trkpt>
      <trkpt lat="48.54881" lon="1.92431">
        <ele>145</ele>
        <time>2011-10-23T08:34:13Z</time>
      </trkpt>
      <trkpt lat="48.54907" lon="1.92342">
        <ele>143</ele>
        <time>2011-10-23T08:34:23Z</time>
      </trkpt>
      <trkpt lat="48.54933" lon="1.92253">
        <ele>144</ele>
        <time>2011-10-23T08:34:33Z</time>
      </trkpt>
      <trkpt lat="48.54953" lon="1.92184">
        <ele>144</ele>
        <time>2011-10-23T08:34:41Z</time>
      </trkpt>
      <trkpt lat="48.54972" lon="1.92117">
        <ele>146</ele>
        <time>2011-10-23T08:34:49Z</time>
      </trkpt>
      <trkpt lat="48.54997" lon="1.92023">
        <ele>149</ele>
        <time>2011-10-23T08:35:00Z</time>
      </trkpt>
      <trkpt lat="48.55009" lon="1.91979">
        <ele>150</ele>
        <time>2011-10-23T08:35:05Z</time>
      </trkpt>
      <trkpt lat="48.55033" lon="1.9194">
        <ele>150</ele>
        <time>2011-10-23T08:35:09Z</time>
      </trkpt>
      <trkpt lat="48.55042" lon="1.91884">
        <ele>151</ele>
        <time>2011-10-23T08:35:16Z</time>
      </trkpt>
      <trkpt lat="48.55058" lon="1.91824">
        <ele>153</ele>
        <time>2011-10-23T08:35:24Z</time>
      </trkpt>
      <trkpt lat="48.5507" lon="1.91761">
        <ele>155</ele>
        <time>2011-10-23T08:35:32Z</time>
      </trkpt>
      <trkpt lat="48.55074" lon="1.91729">
        <ele>157</ele>
        <time>2011-10-23T08:35:36Z</time>
      </trkpt>
      <trkpt lat="48.55076" lon="1.91688">
        <ele>158</ele>
        <time>2011-10-23T08:35:41Z</time>
      </trkpt>
      <trkpt lat="48.55077" lon="1.9165">
        <ele>160</ele>
        <time>2011-10-23T08:35:45Z</time>
      </trkpt>
      <trkpt lat="48.55077" lon="1.91577">
        <ele>162</ele>
        <time>2011-10-23T08:35:52Z</time>
      </trkpt>
      <trkpt lat="48.55079" lon="1.91499">
        <ele>161</ele>
        <time>2011-10-23T08:35:59Z</time>
      </trkpt>
      <trkpt lat="48.5508" lon="1.91427">
        <ele>160</ele>
        <time>2011-10-23T08:36:05Z</time>
      </trkpt>
      <trkpt lat="48.55084" lon="1.91343">
        <ele>157</ele>
        <time>2011-10-23T08:36:12Z</time>
      </trkpt>
      <trkpt lat="48.55088" lon="1.91301">
        <ele>156</ele>
        <time>2011-10-23T08:36:16Z</time>
      </trkpt>
      <trkpt lat="48.55099" lon="1.91283">
        <ele>156</ele>
        <time>2011-10-23T08:36:19Z</time>
      </trkpt>
      <trkpt lat="48.55108" lon="1.9129">
        <ele>156</ele>
        <time>2011-10-23T08:36:21Z</time>
      </trkpt>
      <trkpt lat="48.55112" lon="1.91295">
        <ele>156</ele>
        <time>2011-10-23T08:36:22Z</time>
      </trkpt>
      <trkpt lat="48.55119" lon="1.91306">
        <ele>156</ele>
        <time>2011-10-23T08:36:24Z</time>
      </trkpt>
      <trkpt lat="48.55128" lon="1.91334">
        <ele>156</ele>
        <time>2011-10-23T08:36:28Z</time>
      </trkpt>
      <trkpt lat="48.55137" lon="1.91419">
        <ele>156</ele>
        <time>2011-10-23T08:36:38Z</time>
      </trkpt>
      <trkpt lat="48.55141" lon="1.9147">
        <ele>156</ele>
        <time>2011-10-23T08:36:43Z</time>
      </trkpt>
      <trkpt lat="48.55141" lon="1.91491">
        <ele>156</ele>
        <time>2011-10-23T08:36:46Z</time>
      </trkpt>
      <trkpt lat="48.55138" lon="1.91505">
        <ele>157</ele>
        <time>2011-10-23T08:36:51Z</time>
      </trkpt>
      <trkpt lat="48.55139" lon="1.91501">
        <ele>157</ele>
        <time>2011-10-23T08:36:56Z</time>
      </trkpt>
      <trkpt lat="48.55144" lon="1.91495">
        <ele>156</ele>
        <time>2011-10-23T08:37:03Z</time>
      </trkpt>
      <trkpt lat="48.55143" lon="1.91495">
        <ele>156</ele>
        <time>2011-10-23T08:37:10Z</time>
      </trkpt>
      <trkpt lat="48.55143" lon="1.91493">
        <ele>156</ele>
        <time>2011-10-23T08:37:16Z</time>
      </trkpt>
      <trkpt lat="48.55141" lon="1.91489">
        <ele>156</ele>
        <time>2011-10-23T08:37:22Z</time>
      </trkpt>
      <trkpt lat="48.55142" lon="1.91488">
        <ele>156</ele>
        <time>2011-10-23T08:37:36Z</time>
      </trkpt>
      <trkpt lat="48.55142" lon="1.91487">
        <ele>156</ele>
        <time>2011-10-23T08:37:43Z</time>
      </trkpt>
      <trkpt lat="48.55138" lon="1.91526">
        <ele>158</ele>
        <time>2011-10-23T08:42:41Z</time>
      </trkpt>
      <trkpt lat="48.55138" lon="1.91532">
        <ele>158</ele>
        <time>2011-10-23T08:42:42Z</time>
      </trkpt>
      <trkpt lat="48.5514" lon="1.91569">
        <ele>158</ele>
        <time>2011-10-23T08:42:46Z</time>
      </trkpt>
      <trkpt lat="48.55141" lon="1.91606">
        <ele>158</ele>
        <time>2011-10-23T08:42:51Z</time>
      </trkpt>
      <trkpt lat="48.5514" lon="1.91657">
        <ele>158</ele>
        <time>2011-10-23T08:42:57Z</time>
      </trkpt>
      <trkpt lat="48.55141" lon="1.9171">
        <ele>157</ele>
        <time>2011-10-23T08:43:03Z</time>
      </trkpt>
      <trkpt lat="48.5514" lon="1.91744">
        <ele>156</ele>
        <time>2011-10-23T08:43:07Z</time>
      </trkpt>
      <trkpt lat="48.55143" lon="1.91763">
        <ele>154</ele>
        <time>2011-10-23T08:43:10Z</time>
      </trkpt>
      <trkpt lat="48.55153" lon="1.91771">
        <ele>154</ele>
        <time>2011-10-23T08:43:14Z</time>
      </trkpt>
      <trkpt lat="48.55167" lon="1.91782">
        <ele>158</ele>
        <time>2011-10-23T08:43:19Z</time>
      </trkpt>
      <trkpt lat="48.55169" lon="1.91785">
        <ele>158</ele>
        <time>2011-10-23T08:43:20Z</time>
      </trkpt>
      <trkpt lat="48.55182" lon="1.91795">
        <ele>158</ele>
        <time>2011-10-23T08:43:25Z</time>
      </trkpt>
      <trkpt lat="48.55192" lon="1.91802">
        <ele>158</ele>
        <time>2011-10-23T08:43:30Z</time>
      </trkpt>
      <trkpt lat="48.55199" lon="1.91809">
        <ele>159</ele>
        <time>2011-10-23T08:43:34Z</time>
      </trkpt>
      <trkpt lat="48.55203" lon="1.91814">
        <ele>159</ele>
        <time>2011-10-23T08:43:38Z</time>
      </trkpt>
      <trkpt lat="48.55201" lon="1.91834">
        <ele>159</ele>
        <time>2011-10-23T08:43:44Z</time>
      </trkpt>
      <trkpt lat="48.55201" lon="1.9186">
        <ele>159</ele>
        <time>2011-10-23T08:43:49Z</time>
      </trkpt>
      <trkpt lat="48.55202" lon="1.91889">
        <ele>159</ele>
        <time>2011-10-23T08:43:54Z</time>
      </trkpt>
      <trkpt lat="48.5521" lon="1.91928">
        <ele>160</ele>
        <time>2011-10-23T08:43:59Z</time>
      </trkpt>
      <trkpt lat="48.55215" lon="1.91954">
        <ele>160</ele>
        <time>2011-10-23T08:44:02Z</time>
      </trkpt>
      <trkpt lat="48.55216" lon="1.91971">
        <ele>161</ele>
        <time>2011-10-23T08:44:04Z</time>
      </trkpt>
      <trkpt lat="48.55222" lon="1.91988">
        <ele>161</ele>
        <time>2011-10-23T08:44:06Z</time>
      </trkpt>
      <trkpt lat="48.55226" lon="1.92011">
        <ele>162</ele>
        <time>2011-10-23T08:44:09Z</time>
      </trkpt>
      <trkpt lat="48.55231" lon="1.92056">
        <ele>162</ele>
        <time>2011-10-23T08:44:14Z</time>
      </trkpt>
      <trkpt lat="48.55232" lon="1.9209">
        <ele>164</ele>
        <time>2011-10-23T08:44:18Z</time>
      </trkpt>
      <trkpt lat="48.55233" lon="1.92104">
        <ele>163</ele>
        <time>2011-10-23T08:44:20Z</time>
      </trkpt>
      <trkpt lat="48.55233" lon="1.92129">
        <ele>163</ele>
        <time>2011-10-23T08:44:24Z</time>
      </trkpt>
      <trkpt lat="48.55235" lon="1.92143">
        <ele>164</ele>
        <time>2011-10-23T08:44:26Z</time>
      </trkpt>
      <trkpt lat="48.55238" lon="1.92164">
        <ele>165</ele>
        <time>2011-10-23T08:44:29Z</time>
      </trkpt>
      <trkpt lat="48.55244" lon="1.92204">
        <ele>165</ele>
        <time>2011-10-23T08:44:34Z</time>
      </trkpt>
      <trkpt lat="48.55244" lon="1.92235">
        <ele>166</ele>
        <time>2011-10-23T08:44:38Z</time>
      </trkpt>
      <trkpt lat="48.55242" lon="1.92282">
        <ele>166</ele>
        <time>2011-10-23T08:44:44Z</time>
      </trkpt>
      <trkpt lat="48.55242" lon="1.92332">
        <ele>167</ele>
        <time>2011-10-23T08:44:50Z</time>
      </trkpt>
      <trkpt lat="48.55242" lon="1.92341">
        <ele>167</ele>
        <time>2011-10-23T08:44:51Z</time>
      </trkpt>
      <trkpt lat="48.55232" lon="1.92371">
        <ele>165</ele>
        <time>2011-10-23T08:44:55Z</time>
      </trkpt>
      <trkpt lat="48.55229" lon="1.92392">
        <ele>165</ele>
        <time>2011-10-23T08:44:58Z</time>
      </trkpt>
      <trkpt lat="48.55241" lon="1.92416">
        <ele>166</ele>
        <time>2011-10-23T08:45:02Z</time>
      </trkpt>
      <trkpt lat="48.55265" lon="1.92455">
        <ele>166</ele>
        <time>2011-10-23T08:45:07Z</time>
      </trkpt>
      <trkpt lat="48.55276" lon="1.92482">
        <ele>166</ele>
        <time>2011-10-23T08:45:10Z</time>
      </trkpt>
      <trkpt lat="48.55288" lon="1.92517">
        <ele>165</ele>
        <time>2011-10-23T08:45:14Z</time>
      </trkpt>
      <trkpt lat="48.55303" lon="1.92559">
        <ele>165</ele>
        <time>2011-10-23T08:45:19Z</time>
      </trkpt>
      <trkpt lat="48.55316" lon="1.92607">
        <ele>163</ele>
        <time>2011-10-23T08:45:24Z</time>
      </trkpt>
      <trkpt lat="48.55325" lon="1.92632">
        <ele>162</ele>
        <time>2011-10-23T08:45:27Z</time>
      </trkpt>
      <trkpt lat="48.55333" lon="1.92666">
        <ele>162</ele>
        <time>2011-10-23T08:45:31Z</time>
      </trkpt>
      <trkpt lat="48.55335" lon="1.92697">
        <ele>163</ele>
        <time>2011-10-23T08:45:35Z</time>
      </trkpt>
      <trkpt lat="48.55335" lon="1.92705">
        <ele>163</ele>
        <time>2011-10-23T08:45:36Z</time>
      </trkpt>
      <trkpt lat="48.55337" lon="1.92727">
        <ele>163</ele>
        <time>2011-10-23T08:45:39Z</time>
      </trkpt>
      <trkpt lat="48.55339" lon="1.92743">
        <ele>162</ele>
        <time>2011-10-23T08:45:41Z</time>
      </trkpt>
      <trkpt lat="48.55343" lon="1.92758">
        <ele>162</ele>
        <time>2011-10-23T08:45:43Z</time>
      </trkpt>
      <trkpt lat="48.55349" lon="1.92788">
        <ele>163</ele>
        <time>2011-10-23T08:45:47Z</time>
      </trkpt>
      <trkpt lat="48.55365" lon="1.9282">
        <ele>163</ele>
        <time>2011-10-23T08:45:52Z</time>
      </trkpt>
      <trkpt lat="48.55377" lon="1.92837">
        <ele>164</ele>
        <time>2011-10-23T08:45:55Z</time>
      </trkpt>
      <trkpt lat="48.55384" lon="1.92863">
        <ele>164</ele>
        <time>2011-10-23T08:45:59Z</time>
      </trkpt>
      <trkpt lat="48.55385" lon="1.9287">
        <ele>164</ele>
        <time>2011-10-23T08:46:00Z</time>
      </trkpt>
      <trkpt lat="48.55391" lon="1.92895">
        <ele>164</ele>
        <time>2011-10-23T08:46:04Z</time>
      </trkpt>
      <trkpt lat="48.55404" lon="1.92918">
        <ele>164</ele>
        <time>2011-10-23T08:46:08Z</time>
      </trkpt>
      <trkpt lat="48.55408" lon="1.92921">
        <ele>164</ele>
        <time>2011-10-23T08:46:09Z</time>
      </trkpt>
      <trkpt lat="48.55418" lon="1.92925">
        <ele>165</ele>
        <time>2011-10-23T08:46:11Z</time>
      </trkpt>
      <trkpt lat="48.5543" lon="1.92934">
        <ele>165</ele>
        <time>2011-10-23T08:46:14Z</time>
      </trkpt>
      <trkpt lat="48.55452" lon="1.92955">
        <ele>165</ele>
        <time>2011-10-23T08:46:19Z</time>
      </trkpt>
      <trkpt lat="48.55465" lon="1.92963">
        <ele>165</ele>
        <time>2011-10-23T08:46:22Z</time>
      </trkpt>
      <trkpt lat="48.55487" lon="1.92984">
        <ele>166</ele>
        <time>2011-10-23T08:46:27Z</time>
      </trkpt>
      <trkpt lat="48.55491" lon="1.92999">
        <ele>166</ele>
        <time>2011-10-23T08:46:29Z</time>
      </trkpt>
      <trkpt lat="48.55506" lon="1.93031">
        <ele>166</ele>
        <time>2011-10-23T08:46:34Z</time>
      </trkpt>
      <trkpt lat="48.55517" lon="1.9306">
        <ele>165</ele>
        <time>2011-10-23T08:46:38Z</time>
      </trkpt>
      <trkpt lat="48.55521" lon="1.93074">
        <ele>165</ele>
        <time>2011-10-23T08:46:40Z</time>
      </trkpt>
      <trkpt lat="48.55528" lon="1.93095">
        <ele>164</ele>
        <time>2011-10-23T08:46:43Z</time>
      </trkpt>
      <trkpt lat="48.55546" lon="1.93114">
        <ele>165</ele>
        <time>2011-10-23T08:46:47Z</time>
      </trkpt>
      <trkpt lat="48.55571" lon="1.93129">
        <ele>165</ele>
        <time>2011-10-23T08:46:52Z</time>
      </trkpt>
      <trkpt lat="48.55581" lon="1.93153">
        <ele>166</ele>
        <time>2011-10-23T08:46:56Z</time>
      </trkpt>
      <trkpt lat="48.55574" lon="1.93171">
        <ele>166</ele>
        <time>2011-10-23T08:46:59Z</time>
      </trkpt>
      <trkpt lat="48.55568" lon="1.93182">
        <ele>165</ele>
        <time>2011-10-23T08:47:01Z</time>
      </trkpt>
      <trkpt lat="48.55565" lon="1.9321">
        <ele>165</ele>
        <time>2011-10-23T08:47:05Z</time>
      </trkpt>
      <trkpt lat="48.55567" lon="1.93218">
        <ele>165</ele>
        <time>2011-10-23T08:47:06Z</time>
      </trkpt>
      <trkpt lat="48.55572" lon="1.93241">
        <ele>166</ele>
        <time>2011-10-23T08:47:09Z</time>
      </trkpt>
      <trkpt lat="48.55574" lon="1.93272">
        <ele>165</ele>
        <time>2011-10-23T08:47:13Z</time>
      </trkpt>
      <trkpt lat="48.55575" lon="1.93303">
        <ele>164</ele>
        <time>2011-10-23T08:47:17Z</time>
      </trkpt>
      <trkpt lat="48.55579" lon="1.93333">
        <ele>165</ele>
        <time>2011-10-23T08:47:21Z</time>
      </trkpt>
      <trkpt lat="48.55583" lon="1.93348">
        <ele>164</ele>
        <time>2011-10-23T08:47:23Z</time>
      </trkpt>
      <trkpt lat="48.55584" lon="1.93363">
        <ele>166</ele>
        <time>2011-10-23T08:47:25Z</time>
      </trkpt>
      <trkpt lat="48.55599" lon="1.93396">
        <ele>166</ele>
        <time>2011-10-23T08:47:30Z</time>
      </trkpt>
      <trkpt lat="48.55601" lon="1.93403">
        <ele>165</ele>
        <time>2011-10-23T08:47:31Z</time>
      </trkpt>
      <trkpt lat="48.55603" lon="1.93432">
        <ele>166</ele>
        <time>2011-10-23T08:47:35Z</time>
      </trkpt>
      <trkpt lat="48.55602" lon="1.93446">
        <ele>166</ele>
        <time>2011-10-23T08:47:37Z</time>
      </trkpt>
      <trkpt lat="48.55599" lon="1.93476">
        <ele>166</ele>
        <time>2011-10-23T08:47:42Z</time>
      </trkpt>
      <trkpt lat="48.55603" lon="1.93497">
        <ele>166</ele>
        <time>2011-10-23T08:47:46Z</time>
      </trkpt>
      <trkpt lat="48.5561" lon="1.93515">
        <ele>166</ele>
        <time>2011-10-23T08:47:49Z</time>
      </trkpt>
      <trkpt lat="48.55615" lon="1.93528">
        <ele>167</ele>
        <time>2011-10-23T08:47:51Z</time>
      </trkpt>
      <trkpt lat="48.55624" lon="1.93553">
        <ele>167</ele>
        <time>2011-10-23T08:47:55Z</time>
      </trkpt>
      <trkpt lat="48.55633" lon="1.93579">
        <ele>167</ele>
        <time>2011-10-23T08:47:59Z</time>
      </trkpt>
      <trkpt lat="48.55637" lon="1.93592">
        <ele>167</ele>
        <time>2011-10-23T08:48:01Z</time>
      </trkpt>
      <trkpt lat="48.55645" lon="1.93611">
        <ele>167</ele>
        <time>2011-10-23T08:48:04Z</time>
      </trkpt>
      <trkpt lat="48.5566" lon="1.93649">
        <ele>167</ele>
        <time>2011-10-23T08:48:09Z</time>
      </trkpt>
      <trkpt lat="48.55669" lon="1.93667">
        <ele>168</ele>
        <time>2011-10-23T08:48:11Z</time>
      </trkpt>
      <trkpt lat="48.55686" lon="1.93696">
        <ele>167</ele>
        <time>2011-10-23T08:48:15Z</time>
      </trkpt>
      <trkpt lat="48.55694" lon="1.93709">
        <ele>167</ele>
        <time>2011-10-23T08:48:17Z</time>
      </trkpt>
      <trkpt lat="48.55708" lon="1.93727">
        <ele>167</ele>
        <time>2011-10-23T08:48:20Z</time>
      </trkpt>
      <trkpt lat="48.55726" lon="1.93761">
        <ele>165</ele>
        <time>2011-10-23T08:48:25Z</time>
      </trkpt>
      <trkpt lat="48.55738" lon="1.93796">
        <ele>164</ele>
        <time>2011-10-23T08:48:30Z</time>
      </trkpt>
      <trkpt lat="48.55749" lon="1.9382">
        <ele>164</ele>
        <time>2011-10-23T08:48:34Z</time>
      </trkpt>
      <trkpt lat="48.55751" lon="1.93838">
        <ele>163</ele>
        <time>2011-10-23T08:48:36Z</time>
      </trkpt>
      <trkpt lat="48.55754" lon="1.93866">
        <ele>162</ele>
        <time>2011-10-23T08:48:39Z</time>
      </trkpt>
      <trkpt lat="48.55757" lon="1.9389">
        <ele>162</ele>
        <time>2011-10-23T08:48:43Z</time>
      </trkpt>
      <trkpt lat="48.55758" lon="1.93901">
        <ele>162</ele>
        <time>2011-10-23T08:48:45Z</time>
      </trkpt>
      <trkpt lat="48.55761" lon="1.93913">
        <ele>162</ele>
        <time>2011-10-23T08:48:47Z</time>
      </trkpt>
      <trkpt lat="48.55772" lon="1.93948">
        <ele>163</ele>
        <time>2011-10-23T08:48:53Z</time>
      </trkpt>
      <trkpt lat="48.55771" lon="1.93953">
        <ele>163</ele>
        <time>2011-10-23T08:48:54Z</time>
      </trkpt>
      <trkpt lat="48.55769" lon="1.93964">
        <ele>164</ele>
        <time>2011-10-23T08:48:58Z</time>
      </trkpt>
      <trkpt lat="48.55772" lon="1.93978">
        <ele>164</ele>
        <time>2011-10-23T08:49:03Z</time>
      </trkpt>
      <trkpt lat="48.55784" lon="1.93991">
        <ele>164</ele>
        <time>2011-10-23T08:49:08Z</time>
      </trkpt>
      <trkpt lat="48.55796" lon="1.94004">
        <ele>166</ele>
        <time>2011-10-23T08:49:12Z</time>
      </trkpt>
      <trkpt lat="48.55801" lon="1.94012">
        <ele>166</ele>
        <time>2011-10-23T08:49:14Z</time>
      </trkpt>
      <trkpt lat="48.55816" lon="1.94033">
        <ele>166</ele>
        <time>2011-10-23T08:49:19Z</time>
      </trkpt>
      <trkpt lat="48.55826" lon="1.94045">
        <ele>166</ele>
        <time>2011-10-23T08:49:22Z</time>
      </trkpt>
      <trkpt lat="48.55835" lon="1.94062">
        <ele>165</ele>
        <time>2011-10-23T08:49:25Z</time>
      </trkpt>
      <trkpt lat="48.5584" lon="1.94099">
        <ele>163</ele>
        <time>2011-10-23T08:49:30Z</time>
      </trkpt>
      <trkpt lat="48.5585" lon="1.94121">
        <ele>161</ele>
        <time>2011-10-23T08:49:34Z</time>
      </trkpt>
      <trkpt lat="48.55857" lon="1.94139">
        <ele>160</ele>
        <time>2011-10-23T08:49:38Z</time>
      </trkpt>
      <trkpt lat="48.5586" lon="1.94146">
        <ele>160</ele>
        <time>2011-10-23T08:49:39Z</time>
      </trkpt>
      <trkpt lat="48.55872" lon="1.94178">
        <ele>157</ele>
        <time>2011-10-23T08:49:43Z</time>
      </trkpt>
      <trkpt lat="48.55889" lon="1.94213">
        <ele>155</ele>
        <time>2011-10-23T08:49:49Z</time>
      </trkpt>
      <trkpt lat="48.55893" lon="1.94222">
        <ele>155</ele>
        <time>2011-10-23T08:49:51Z</time>
      </trkpt>
      <trkpt lat="48.55902" lon="1.94242">
        <ele>154</ele>
        <time>2011-10-23T08:49:55Z</time>
      </trkpt>
      <trkpt lat="48.55911" lon="1.94252">
        <ele>152</ele>
        <time>2011-10-23T08:49:57Z</time>
      </trkpt>
      <trkpt lat="48.55941" lon="1.94285">
        <ele>149</ele>
        <time>2011-10-23T08:50:03Z</time>
      </trkpt>
      <trkpt lat="48.55948" lon="1.94291">
        <ele>149</ele>
        <time>2011-10-23T08:50:04Z</time>
      </trkpt>
      <trkpt lat="48.55963" lon="1.94332">
        <ele>149</ele>
        <time>2011-10-23T08:50:08Z</time>
      </trkpt>
      <trkpt lat="48.55966" lon="1.94341">
        <ele>149</ele>
        <time>2011-10-23T08:50:09Z</time>
      </trkpt>
      <trkpt lat="48.55984" lon="1.94367">
        <ele>149</ele>
        <time>2011-10-23T08:50:13Z</time>
      </trkpt>
      <trkpt lat="48.55992" lon="1.94387">
        <ele>150</ele>
        <time>2011-10-23T08:50:16Z</time>
      </trkpt>
      <trkpt lat="48.55994" lon="1.944">
        <ele>149</ele>
        <time>2011-10-23T08:50:18Z</time>
      </trkpt>
      <trkpt lat="48.56002" lon="1.94444">
        <ele>149</ele>
        <time>2011-10-23T08:50:24Z</time>
      </trkpt>
      <trkpt lat="48.56006" lon="1.94463">
        <ele>150</ele>
        <time>2011-10-23T08:50:27Z</time>
      </trkpt>
      <trkpt lat="48.56006" lon="1.9449">
        <ele>150</ele>
        <time>2011-10-23T08:50:31Z</time>
      </trkpt>
      <trkpt lat="48.56005" lon="1.94495">
        <ele>151</ele>
        <time>2011-10-23T08:50:32Z</time>
      </trkpt>
      <trkpt lat="48.56001" lon="1.94511">
        <ele>151</ele>
        <time>2011-10-23T08:50:35Z</time>
      </trkpt>
      <trkpt lat="48.56002" lon="1.94535">
        <ele>151</ele>
        <time>2011-10-23T08:50:40Z</time>
      </trkpt>
      <trkpt lat="48.56011" lon="1.94555">
        <ele>152</ele>
        <time>2011-10-23T08:50:44Z</time>
      </trkpt>
      <trkpt lat="48.56021" lon="1.94579">
        <ele>152</ele>
        <time>2011-10-23T08:50:48Z</time>
      </trkpt>
      <trkpt lat="48.56022" lon="1.94586">
        <ele>154</ele>
        <time>2011-10-23T08:50:49Z</time>
      </trkpt>
      <trkpt lat="48.56035" lon="1.94612">
        <ele>154</ele>
        <time>2011-10-23T08:50:53Z</time>
      </trkpt>
      <trkpt lat="48.56042" lon="1.94641">
        <ele>155</ele>
        <time>2011-10-23T08:50:58Z</time>
      </trkpt>
      <trkpt lat="48.56041" lon="1.94652">
        <ele>155</ele>
        <time>2011-10-23T08:51:02Z</time>
      </trkpt>
      <trkpt lat="48.56045" lon="1.94659">
        <ele>155</ele>
        <time>2011-10-23T08:51:07Z</time>
      </trkpt>
      <trkpt lat="48.5605" lon="1.94663">
        <ele>155</ele>
        <time>2011-10-23T08:51:14Z</time>
      </trkpt>
      <trkpt lat="48.56041" lon="1.94684">
        <ele>158</ele>
        <time>2011-10-23T08:51:20Z</time>
      </trkpt>
      <trkpt lat="48.56027" lon="1.94719">
        <ele>158</ele>
        <time>2011-10-23T08:51:28Z</time>
      </trkpt>
      <trkpt lat="48.5602" lon="1.94734">
        <ele>158</ele>
        <time>2011-10-23T08:51:34Z</time>
      </trkpt>
      <trkpt lat="48.56025" lon="1.94738">
        <ele>158</ele>
        <time>2011-10-23T08:51:39Z</time>
      </trkpt>
      <trkpt lat="48.56031" lon="1.94726">
        <ele>158</ele>
        <time>2011-10-23T08:51:43Z</time>
      </trkpt>
      <trkpt lat="48.56037" lon="1.94706">
        <ele>158</ele>
        <time>2011-10-23T08:51:48Z</time>
      </trkpt>
      <trkpt lat="48.56038" lon="1.94702">
        <ele>158</ele>
        <time>2011-10-23T08:51:49Z</time>
      </trkpt>
      <trkpt lat="48.56048" lon="1.94686">
        <ele>158</ele>
        <time>2011-10-23T08:51:53Z</time>
      </trkpt>
      <trkpt lat="48.56047" lon="1.94681">
        <ele>158</ele>
        <time>2011-10-23T08:51:58Z</time>
      </trkpt>
      <trkpt lat="48.56044" lon="1.94682">
        <ele>158</ele>
        <time>2011-10-23T08:52:08Z</time>
      </trkpt>
      <trkpt lat="48.56043" lon="1.94683">
        <ele>158</ele>
        <time>2011-10-23T08:52:16Z</time>
      </trkpt>
      <trkpt lat="48.56043" lon="1.94688">
        <ele>158</ele>
        <time>2011-10-23T08:52:25Z</time>
      </trkpt>
      <trkpt lat="48.56045" lon="1.9469">
        <ele>158</ele>
        <time>2011-10-23T08:52:30Z</time>
      </trkpt>
      <trkpt lat="48.56046" lon="1.94687">
        <ele>158</ele>
        <time>2011-10-23T08:52:52Z</time>
      </trkpt>
      <trkpt lat="48.56059" lon="1.94684">
        <ele>158</ele>
        <time>2011-10-23T08:52:57Z</time>
      </trkpt>
      <trkpt lat="48.56078" lon="1.94672">
        <ele>157</ele>
        <time>2011-10-23T08:53:03Z</time>
      </trkpt>
      <trkpt lat="48.56088" lon="1.94667">
        <ele>158</ele>
        <time>2011-10-23T08:53:06Z</time>
      </trkpt>
      <trkpt lat="48.56092" lon="1.94674">
        <ele>159</ele>
        <time>2011-10-23T08:53:11Z</time>
      </trkpt>
      <trkpt lat="48.56091" lon="1.94678">
        <ele>159</ele>
        <time>2011-10-23T08:53:13Z</time>
      </trkpt>
      <trkpt lat="48.56088" lon="1.94688">
        <ele>160</ele>
        <time>2011-10-23T08:53:19Z</time>
      </trkpt>
      <trkpt lat="48.56086" lon="1.94696">
        <ele>161</ele>
        <time>2011-10-23T08:53:30Z</time>
      </trkpt>
      <trkpt lat="48.56088" lon="1.947">
        <ele>161</ele>
        <time>2011-10-23T08:53:40Z</time>
      </trkpt>
      <trkpt lat="48.56087" lon="1.94702">
        <ele>161</ele>
        <time>2011-10-23T08:53:41Z</time>
      </trkpt>
      <trkpt lat="48.56078" lon="1.94707">
        <ele>159</ele>
        <time>2011-10-23T08:53:48Z</time>
      </trkpt>
      <trkpt lat="48.56076" lon="1.94711">
        <ele>159</ele>
        <time>2011-10-23T08:53:50Z</time>
      </trkpt>
      <trkpt lat="48.5607" lon="1.94736">
        <ele>160</ele>
        <time>2011-10-23T08:53:56Z</time>
      </trkpt>
      <trkpt lat="48.56066" lon="1.94763">
        <ele>162</ele>
        <time>2011-10-23T08:54:02Z</time>
      </trkpt>
      <trkpt lat="48.56064" lon="1.94779">
        <ele>162</ele>
        <time>2011-10-23T08:54:06Z</time>
      </trkpt>
      <trkpt lat="48.5607" lon="1.94802">
        <ele>162</ele>
        <time>2011-10-23T08:54:11Z</time>
      </trkpt>
      <trkpt lat="48.56066" lon="1.94824">
        <ele>163</ele>
        <time>2011-10-23T08:54:16Z</time>
      </trkpt>
      <trkpt lat="48.56065" lon="1.94835">
        <ele>163</ele>
        <time>2011-10-23T08:54:20Z</time>
      </trkpt>
      <trkpt lat="48.56064" lon="1.9485">
        <ele>163</ele>
        <time>2011-10-23T08:54:24Z</time>
      </trkpt>
      <trkpt lat="48.56067" lon="1.94865">
        <ele>162</ele>
        <time>2011-10-23T08:54:27Z</time>
      </trkpt>
      <trkpt lat="48.56074" lon="1.94879">
        <ele>162</ele>
        <time>2011-10-23T08:54:31Z</time>
      </trkpt>
      <trkpt lat="48.56074" lon="1.94902">
        <ele>162</ele>
        <time>2011-10-23T08:54:36Z</time>
      </trkpt>
      <trkpt lat="48.56075" lon="1.94907">
        <ele>162</ele>
        <time>2011-10-23T08:54:37Z</time>
      </trkpt>
      <trkpt lat="48.56079" lon="1.94949">
        <ele>161</ele>
        <time>2011-10-23T08:54:44Z</time>
      </trkpt>
      <trkpt lat="48.56084" lon="1.94966">
        <ele>162</ele>
        <time>2011-10-23T08:54:47Z</time>
      </trkpt>
      <trkpt lat="48.56089" lon="1.94979">
        <ele>162</ele>
        <time>2011-10-23T08:54:49Z</time>
      </trkpt>
      <trkpt lat="48.56097" lon="1.95008">
        <ele>161</ele>
        <time>2011-10-23T08:54:54Z</time>
      </trkpt>
      <trkpt lat="48.56103" lon="1.95008">
        <ele>161</ele>
        <time>2011-10-23T08:54:57Z</time>
      </trkpt>
      <trkpt lat="48.56106" lon="1.95007">
        <ele>161</ele>
        <time>2011-10-23T08:54:58Z</time>
      </trkpt>
      <trkpt lat="48.56118" lon="1.95008">
        <ele>161</ele>
        <time>2011-10-23T08:55:03Z</time>
      </trkpt>
      <trkpt lat="48.5612" lon="1.95009">
        <ele>161</ele>
        <time>2011-10-23T08:55:04Z</time>
      </trkpt>
      <trkpt lat="48.56131" lon="1.95013">
        <ele>161</ele>
        <time>2011-10-23T08:55:10Z</time>
      </trkpt>
      <trkpt lat="48.56157" lon="1.95019">
        <ele>162</ele>
        <time>2011-10-23T08:55:17Z</time>
      </trkpt>
      <trkpt lat="48.5617" lon="1.95023">
        <ele>161</ele>
        <time>2011-10-23T08:55:22Z</time>
      </trkpt>
      <trkpt lat="48.56185" lon="1.95027">
        <ele>161</ele>
        <time>2011-10-23T08:55:26Z</time>
      </trkpt>
      <trkpt lat="48.56201" lon="1.95031">
        <ele>160</ele>
        <time>2011-10-23T08:55:31Z</time>
      </trkpt>
      <trkpt lat="48.56215" lon="1.95034">
        <ele>160</ele>
        <time>2011-10-23T08:55:35Z</time>
      </trkpt>
      <trkpt lat="48.56224" lon="1.95046">
        <ele>160</ele>
        <time>2011-10-23T08:55:39Z</time>
      </trkpt>
      <trkpt lat="48.56237" lon="1.95056">
        <ele>159</ele>
        <time>2011-10-23T08:55:44Z</time>
      </trkpt>
      <trkpt lat="48.56248" lon="1.95084">
        <ele>159</ele>
        <time>2011-10-23T08:55:50Z</time>
      </trkpt>
      <trkpt lat="48.56257" lon="1.95119">
        <ele>157</ele>
        <time>2011-10-23T08:55:55Z</time>
      </trkpt>
      <trkpt lat="48.56266" lon="1.95142">
        <ele>157</ele>
        <time>2011-10-23T08:55:58Z</time>
      </trkpt>
      <trkpt lat="48.56277" lon="1.95196">
        <ele>156</ele>
        <time>2011-10-23T08:56:04Z</time>
      </trkpt>
      <trkpt lat="48.56288" lon="1.95257">
        <ele>153</ele>
        <time>2011-10-23T08:56:10Z</time>
      </trkpt>
      <trkpt lat="48.5629" lon="1.95272">
        <ele>153</ele>
        <time>2011-10-23T08:56:12Z</time>
      </trkpt>
      <trkpt lat="48.56291" lon="1.95295">
        <ele>153</ele>
        <time>2011-10-23T08:56:17Z</time>
      </trkpt>
      <trkpt lat="48.5631" lon="1.95331">
        <ele>152</ele>
        <time>2011-10-23T08:56:24Z</time>
      </trkpt>
      <trkpt lat="48.56344" lon="1.95371">
        <ele>148</ele>
        <time>2011-10-23T08:56:30Z</time>
      </trkpt>
      <trkpt lat="48.56368" lon="1.9541">
        <ele>147</ele>
        <time>2011-10-23T08:56:35Z</time>
      </trkpt>
      <trkpt lat="48.56373" lon="1.9542">
        <ele>149</ele>
        <time>2011-10-23T08:56:36Z</time>
      </trkpt>
      <trkpt lat="48.5639" lon="1.95451">
        <ele>148</ele>
        <time>2011-10-23T08:56:40Z</time>
      </trkpt>
      <trkpt lat="48.56384" lon="1.95455">
        <ele>149</ele>
        <time>2011-10-23T08:56:44Z</time>
      </trkpt>
      <trkpt lat="48.56377" lon="1.95462">
        <ele>149</ele>
        <time>2011-10-23T08:56:49Z</time>
      </trkpt>
      <trkpt lat="48.56363" lon="1.95478">
        <ele>151</ele>
        <time>2011-10-23T08:56:56Z</time>
      </trkpt>
      <trkpt lat="48.56348" lon="1.95497">
        <ele>154</ele>
        <time>2011-10-23T08:57:03Z</time>
      </trkpt>
      <trkpt lat="48.56335" lon="1.95516">
        <ele>156</ele>
        <time>2011-10-23T08:57:10Z</time>
      </trkpt>
      <trkpt lat="48.56322" lon="1.95529">
        <ele>158</ele>
        <time>2011-10-23T08:57:15Z</time>
      </trkpt>
      <trkpt lat="48.56309" lon="1.95546">
        <ele>158</ele>
        <time>2011-10-23T08:57:20Z</time>
      </trkpt>
      <trkpt lat="48.56293" lon="1.95565">
        <ele>158</ele>
        <time>2011-10-23T08:57:26Z</time>
      </trkpt>
      <trkpt lat="48.5628" lon="1.95584">
        <ele>157</ele>
        <time>2011-10-23T08:57:31Z</time>
      </trkpt>
      <trkpt lat="48.56263" lon="1.95613">
        <ele>157</ele>
        <time>2011-10-23T08:57:37Z</time>
      </trkpt>
      <trkpt lat="48.56261" lon="1.95619">
        <ele>157</ele>
        <time>2011-10-23T08:57:38Z</time>
      </trkpt>
      <trkpt lat="48.56259" lon="1.95649">
        <ele>156</ele>
        <time>2011-10-23T08:57:42Z</time>
      </trkpt>
      <trkpt lat="48.56257" lon="1.95667">
        <ele>155</ele>
        <time>2011-10-23T08:57:44Z</time>
      </trkpt>
      <trkpt lat="48.56262" lon="1.95721">
        <ele>155</ele>
        <time>2011-10-23T08:57:50Z</time>
      </trkpt>
      <trkpt lat="48.56262" lon="1.95748">
        <ele>154</ele>
        <time>2011-10-23T08:57:53Z</time>
      </trkpt>
      <trkpt lat="48.56278" lon="1.95806">
        <ele>153</ele>
        <time>2011-10-23T08:57:59Z</time>
      </trkpt>
      <trkpt lat="48.56297" lon="1.95878">
        <ele>149</ele>
        <time>2011-10-23T08:58:06Z</time>
      </trkpt>
      <trkpt lat="48.56299" lon="1.95887">
        <ele>149</ele>
        <time>2011-10-23T08:58:07Z</time>
      </trkpt>
      <trkpt lat="48.56299" lon="1.95917">
        <ele>148</ele>
        <time>2011-10-23T08:58:11Z</time>
      </trkpt>
      <trkpt lat="48.56285" lon="1.95928">
        <ele>147</ele>
        <time>2011-10-23T08:58:14Z</time>
      </trkpt>
      <trkpt lat="48.56281" lon="1.95931">
        <ele>147</ele>
        <time>2011-10-23T08:58:15Z</time>
      </trkpt>
      <trkpt lat="48.56251" lon="1.95948">
        <ele>146</ele>
        <time>2011-10-23T08:58:22Z</time>
      </trkpt>
      <trkpt lat="48.56216" lon="1.9595">
        <ele>149</ele>
        <time>2011-10-23T08:58:26Z</time>
      </trkpt>
      <trkpt lat="48.56191" lon="1.95966">
        <ele>150</ele>
        <time>2011-10-23T08:58:32Z</time>
      </trkpt>
      <trkpt lat="48.56159" lon="1.95981">
        <ele>155</ele>
        <time>2011-10-23T08:58:40Z</time>
      </trkpt>
      <trkpt lat="48.56147" lon="1.95986">
        <ele>156</ele>
        <time>2011-10-23T08:58:43Z</time>
      </trkpt>
      <trkpt lat="48.56135" lon="1.95994">
        <ele>157</ele>
        <time>2011-10-23T08:58:47Z</time>
      </trkpt>
      <trkpt lat="48.56119" lon="1.95992">
        <ele>158</ele>
        <time>2011-10-23T08:58:52Z</time>
      </trkpt>
      <trkpt lat="48.56106" lon="1.9598">
        <ele>159</ele>
        <time>2011-10-23T08:58:56Z</time>
      </trkpt>
      <trkpt lat="48.56091" lon="1.95969">
        <ele>159</ele>
        <time>2011-10-23T08:59:01Z</time>
      </trkpt>
      <trkpt lat="48.56073" lon="1.95962">
        <ele>164</ele>
        <time>2011-10-23T08:59:06Z</time>
      </trkpt>
      <trkpt lat="48.56052" lon="1.95952">
        <ele>164</ele>
        <time>2011-10-23T08:59:11Z</time>
      </trkpt>
      <trkpt lat="48.56047" lon="1.95951">
        <ele>164</ele>
        <time>2011-10-23T08:59:12Z</time>
      </trkpt>
      <trkpt lat="48.56023" lon="1.95958">
        <ele>164</ele>
        <time>2011-10-23T08:59:18Z</time>
      </trkpt>
      <trkpt lat="48.56015" lon="1.95977">
        <ele>164</ele>
        <time>2011-10-23T08:59:21Z</time>
      </trkpt>
      <trkpt lat="48.56014" lon="1.96008">
        <ele>164</ele>
        <time>2011-10-23T08:59:25Z</time>
      </trkpt>
      <trkpt lat="48.56015" lon="1.96063">
        <ele>163</ele>
        <time>2011-10-23T08:59:32Z</time>
      </trkpt>
      <trkpt lat="48.56016" lon="1.96098">
        <ele>163</ele>
        <time>2011-10-23T08:59:37Z</time>
      </trkpt>
      <trkpt lat="48.56018" lon="1.96119">
        <ele>163</ele>
        <time>2011-10-23T08:59:40Z</time>
      </trkpt>
      <trkpt lat="48.56026" lon="1.96146">
        <ele>163</ele>
        <time>2011-10-23T08:59:44Z</time>
      </trkpt>
      <trkpt lat="48.56028" lon="1.96159">
        <ele>163</ele>
        <time>2011-10-23T08:59:46Z</time>
      </trkpt>
      <trkpt lat="48.56038" lon="1.96208">
        <ele>164</ele>
        <time>2011-10-23T08:59:53Z</time>
      </trkpt>
      <trkpt lat="48.56041" lon="1.96233">
        <ele>164</ele>
        <time>2011-10-23T08:59:56Z</time>
      </trkpt>
      <trkpt lat="48.56044" lon="1.96286">
        <ele>164</ele>
        <time>2011-10-23T09:00:03Z</time>
      </trkpt>
      <trkpt lat="48.56049" lon="1.96335">
        <ele>164</ele>
        <time>2011-10-23T09:00:09Z</time>
      </trkpt>
      <trkpt lat="48.56058" lon="1.96404">
        <ele>163</ele>
        <time>2011-10-23T09:00:17Z</time>
      </trkpt>
      <trkpt lat="48.56059" lon="1.96412">
        <ele>163</ele>
        <time>2011-10-23T09:00:18Z</time>
      </trkpt>
      <trkpt lat="48.56059" lon="1.9643">
        <ele>163</ele>
        <time>2011-10-23T09:00:20Z</time>
      </trkpt>
      <trkpt lat="48.56061" lon="1.96456">
        <ele>163</ele>
        <time>2011-10-23T09:00:23Z</time>
      </trkpt>
      <trkpt lat="48.56054" lon="1.96525">
        <ele>162</ele>
        <time>2011-10-23T09:00:31Z</time>
      </trkpt>
      <trkpt lat="48.56049" lon="1.96579">
        <ele>161</ele>
        <time>2011-10-23T09:00:37Z</time>
      </trkpt>
      <trkpt lat="48.56043" lon="1.96624">
        <ele>162</ele>
        <time>2011-10-23T09:00:42Z</time>
      </trkpt>
      <trkpt lat="48.56031" lon="1.96679">
        <ele>162</ele>
        <time>2011-10-23T09:00:48Z</time>
      </trkpt>
      <trkpt lat="48.56025" lon="1.96744">
        <ele>162</ele>
        <time>2011-10-23T09:00:55Z</time>
      </trkpt>
      <trkpt lat="48.56017" lon="1.96807">
        <ele>162</ele>
        <time>2011-10-23T09:01:02Z</time>
      </trkpt>
      <trkpt lat="48.56005" lon="1.96849">
        <ele>162</ele>
        <time>2011-10-23T09:01:07Z</time>
      </trkpt>
      <trkpt lat="48.55987" lon="1.96898">
        <ele>162</ele>
        <time>2011-10-23T09:01:13Z</time>
      </trkpt>
      <trkpt lat="48.5597" lon="1.96944">
        <ele>162</ele>
        <time>2011-10-23T09:01:19Z</time>
      </trkpt>
      <trkpt lat="48.55963" lon="1.96968">
        <ele>163</ele>
        <time>2011-10-23T09:01:22Z</time>
      </trkpt>
      <trkpt lat="48.55956" lon="1.96984">
        <ele>162</ele>
        <time>2011-10-23T09:01:24Z</time>
      </trkpt>
      <trkpt lat="48.55935" lon="1.97024">
        <ele>162</ele>
        <time>2011-10-23T09:01:30Z</time>
      </trkpt>
      <trkpt lat="48.5593" lon="1.97031">
        <ele>162</ele>
        <time>2011-10-23T09:01:31Z</time>
      </trkpt>
      <trkpt lat="48.55918" lon="1.97071">
        <ele>161</ele>
        <time>2011-10-23T09:01:36Z</time>
      </trkpt>
      <trkpt lat="48.55906" lon="1.97135">
        <ele>161</ele>
        <time>2011-10-23T09:01:43Z</time>
      </trkpt>
      <trkpt lat="48.55899" lon="1.97162">
        <ele>161</ele>
        <time>2011-10-23T09:01:46Z</time>
      </trkpt>
      <trkpt lat="48.55885" lon="1.97192">
        <ele>162</ele>
        <time>2011-10-23T09:01:50Z</time>
      </trkpt>
      <trkpt lat="48.55861" lon="1.97226">
        <ele>162</ele>
        <time>2011-10-23T09:01:56Z</time>
      </trkpt>
      <trkpt lat="48.55846" lon="1.97246">
        <ele>162</ele>
        <time>2011-10-23T09:01:59Z</time>
      </trkpt>
      <trkpt lat="48.55834" lon="1.97257">
        <ele>163</ele>
        <time>2011-10-23T09:02:01Z</time>
      </trkpt>
      <trkpt lat="48.55808" lon="1.97289">
        <ele>163</ele>
        <time>2011-10-23T09:02:06Z</time>
      </trkpt>
      <trkpt lat="48.55787" lon="1.97318">
        <ele>163</ele>
        <time>2011-10-23T09:02:11Z</time>
      </trkpt>
      <trkpt lat="48.55752" lon="1.97363">
        <ele>162</ele>
        <time>2011-10-23T09:02:19Z</time>
      </trkpt>
      <trkpt lat="48.55748" lon="1.97368">
        <ele>163</ele>
        <time>2011-10-23T09:02:20Z</time>
      </trkpt>
      <trkpt lat="48.55735" lon="1.97379">
        <ele>163</ele>
        <time>2011-10-23T09:02:23Z</time>
      </trkpt>
      <trkpt lat="48.55711" lon="1.9739">
        <ele>163</ele>
        <time>2011-10-23T09:02:28Z</time>
      </trkpt>
      <trkpt lat="48.55703" lon="1.97393">
        <ele>163</ele>
        <time>2011-10-23T09:02:30Z</time>
      </trkpt>
      <trkpt lat="48.55693" lon="1.97396">
        <ele>164</ele>
        <time>2011-10-23T09:02:36Z</time>
      </trkpt>
      <trkpt lat="48.55694" lon="1.974">
        <ele>164</ele>
        <time>2011-10-23T09:02:43Z</time>
      </trkpt>
      <trkpt lat="48.55708" lon="1.97393">
        <ele>163</ele>
        <time>2011-10-23T09:02:48Z</time>
      </trkpt>
      <trkpt lat="48.55728" lon="1.97381">
        <ele>163</ele>
        <time>2011-10-23T09:02:54Z</time>
      </trkpt>
      <trkpt lat="48.55735" lon="1.97374">
        <ele>163</ele>
        <time>2011-10-23T09:02:58Z</time>
      </trkpt>
      <trkpt lat="48.55735" lon="1.97372">
        <ele>163</ele>
        <time>2011-10-23T09:03:00Z</time>
      </trkpt>
      <trkpt lat="48.55727" lon="1.97381">
        <ele>163</ele>
        <time>2011-10-23T09:03:05Z</time>
      </trkpt>
      <trkpt lat="48.55714" lon="1.97392">
        <ele>163</ele>
        <time>2011-10-23T09:03:09Z</time>
      </trkpt>
      <trkpt lat="48.55699" lon="1.97399">
        <ele>163</ele>
        <time>2011-10-23T09:03:14Z</time>
      </trkpt>
      <trkpt lat="48.55692" lon="1.97403">
        <ele>164</ele>
        <time>2011-10-23T09:03:18Z</time>
      </trkpt>
      <trkpt lat="48.55681" lon="1.97411">
        <ele>164</ele>
        <time>2011-10-23T09:03:25Z</time>
      </trkpt>
      <trkpt lat="48.55678" lon="1.97414">
        <ele>164</ele>
        <time>2011-10-23T09:03:26Z</time>
      </trkpt>
      <trkpt lat="48.55652" lon="1.97436">
        <ele>164</ele>
        <time>2011-10-23T09:03:32Z</time>
      </trkpt>
      <trkpt lat="48.55648" lon="1.97442">
        <ele>164</ele>
        <time>2011-10-23T09:03:33Z</time>
      </trkpt>
      <trkpt lat="48.55621" lon="1.9748">
        <ele>164</ele>
        <time>2011-10-23T09:03:39Z</time>
      </trkpt>
      <trkpt lat="48.55601" lon="1.97516">
        <ele>163</ele>
        <time>2011-10-23T09:03:44Z</time>
      </trkpt>
      <trkpt lat="48.55583" lon="1.97543">
        <ele>163</ele>
        <time>2011-10-23T09:03:48Z</time>
      </trkpt>
      <trkpt lat="48.55559" lon="1.97574">
        <ele>163</ele>
        <time>2011-10-23T09:03:53Z</time>
      </trkpt>
      <trkpt lat="48.55551" lon="1.97585">
        <ele>161</ele>
        <time>2011-10-23T09:03:55Z</time>
      </trkpt>
      <trkpt lat="48.55534" lon="1.97607">
        <ele>162</ele>
        <time>2011-10-23T09:03:59Z</time>
      </trkpt>
      <trkpt lat="48.5552" lon="1.97626">
        <ele>161</ele>
        <time>2011-10-23T09:04:02Z</time>
      </trkpt>
      <trkpt lat="48.55508" lon="1.97646">
        <ele>161</ele>
        <time>2011-10-23T09:04:05Z</time>
      </trkpt>
      <trkpt lat="48.55501" lon="1.97659">
        <ele>161</ele>
        <time>2011-10-23T09:04:07Z</time>
      </trkpt>
      <trkpt lat="48.55473" lon="1.97704">
        <ele>162</ele>
        <time>2011-10-23T09:04:14Z</time>
      </trkpt>
      <trkpt lat="48.55458" lon="1.97729">
        <ele>162</ele>
        <time>2011-10-23T09:04:18Z</time>
      </trkpt>
      <trkpt lat="48.55428" lon="1.97774">
        <ele>162</ele>
        <time>2011-10-23T09:04:25Z</time>
      </trkpt>
      <trkpt lat="48.55404" lon="1.9781">
        <ele>165</ele>
        <time>2011-10-23T09:04:31Z</time>
      </trkpt>
      <trkpt lat="48.55388" lon="1.97836">
        <ele>164</ele>
        <time>2011-10-23T09:04:35Z</time>
      </trkpt>
      <trkpt lat="48.55381" lon="1.97861">
        <ele>164</ele>
        <time>2011-10-23T09:04:39Z</time>
      </trkpt>
      <trkpt lat="48.55366" lon="1.97888">
        <ele>164</ele>
        <time>2011-10-23T09:04:44Z</time>
      </trkpt>
      <trkpt lat="48.55357" lon="1.97906">
        <ele>164</ele>
        <time>2011-10-23T09:04:47Z</time>
      </trkpt>
      <trkpt lat="48.55332" lon="1.97939">
        <ele>164</ele>
        <time>2011-10-23T09:04:53Z</time>
      </trkpt>
      <trkpt lat="48.55314" lon="1.97966">
        <ele>164</ele>
        <time>2011-10-23T09:04:58Z</time>
      </trkpt>
      <trkpt lat="48.5529" lon="1.97995">
        <ele>164</ele>
        <time>2011-10-23T09:05:04Z</time>
      </trkpt>
      <trkpt lat="48.55281" lon="1.98004">
        <ele>163</ele>
        <time>2011-10-23T09:05:06Z</time>
      </trkpt>
      <trkpt lat="48.55269" lon="1.98018">
        <ele>163</ele>
        <time>2011-10-23T09:05:09Z</time>
      </trkpt>
      <trkpt lat="48.55243" lon="1.98038">
        <ele>164</ele>
        <time>2011-10-23T09:05:15Z</time>
      </trkpt>
      <trkpt lat="48.55239" lon="1.9804">
        <ele>164</ele>
        <time>2011-10-23T09:05:16Z</time>
      </trkpt>
      <trkpt lat="48.55228" lon="1.98049">
        <ele>164</ele>
        <time>2011-10-23T09:05:22Z</time>
      </trkpt>
      <trkpt lat="48.55217" lon="1.98064">
        <ele>164</ele>
        <time>2011-10-23T09:05:26Z</time>
      </trkpt>
      <trkpt lat="48.55201" lon="1.98078">
        <ele>164</ele>
        <time>2011-10-23T09:05:30Z</time>
      </trkpt>
      <trkpt lat="48.5519" lon="1.98093">
        <ele>163</ele>
        <time>2011-10-23T09:05:33Z</time>
      </trkpt>
      <trkpt lat="48.55169" lon="1.98126">
        <ele>164</ele>
        <time>2011-10-23T09:05:39Z</time>
      </trkpt>
      <trkpt lat="48.55152" lon="1.98161">
        <ele>166</ele>
        <time>2011-10-23T09:05:44Z</time>
      </trkpt>
      <trkpt lat="48.55139" lon="1.98193">
        <ele>167</ele>
        <time>2011-10-23T09:05:48Z</time>
      </trkpt>
      <trkpt lat="48.55131" lon="1.98224">
        <ele>167</ele>
        <time>2011-10-23T09:05:52Z</time>
      </trkpt>
      <trkpt lat="48.55122" lon="1.98281">
        <ele>166</ele>
        <time>2011-10-23T09:05:59Z</time>
      </trkpt>
      <trkpt lat="48.55125" lon="1.98286">
        <ele>166</ele>
        <time>2011-10-23T09:06:03Z</time>
      </trkpt>
      <trkpt lat="48.55131" lon="1.98303">
        <ele>166</ele>
        <time>2011-10-23T09:06:07Z</time>
      </trkpt>
      <trkpt lat="48.55134" lon="1.98309">
        <ele>166</ele>
        <time>2011-10-23T09:06:08Z</time>
      </trkpt>
      <trkpt lat="48.55148" lon="1.98341">
        <ele>163</ele>
        <time>2011-10-23T09:06:13Z</time>
      </trkpt>
      <trkpt lat="48.55155" lon="1.98365">
        <ele>162</ele>
        <time>2011-10-23T09:06:17Z</time>
      </trkpt>
      <trkpt lat="48.55172" lon="1.98402">
        <ele>159</ele>
        <time>2011-10-23T09:06:22Z</time>
      </trkpt>
      <trkpt lat="48.55175" lon="1.98409">
        <ele>159</ele>
        <time>2011-10-23T09:06:23Z</time>
      </trkpt>
      <trkpt lat="48.552" lon="1.98472">
        <ele>156</ele>
        <time>2011-10-23T09:06:31Z</time>
      </trkpt>
      <trkpt lat="48.55222" lon="1.98526">
        <ele>153</ele>
        <time>2011-10-23T09:06:38Z</time>
      </trkpt>
      <trkpt lat="48.55231" lon="1.9855">
        <ele>153</ele>
        <time>2011-10-23T09:06:41Z</time>
      </trkpt>
      <trkpt lat="48.55245" lon="1.98589">
        <ele>152</ele>
        <time>2011-10-23T09:06:46Z</time>
      </trkpt>
      <trkpt lat="48.55264" lon="1.98641">
        <ele>150</ele>
        <time>2011-10-23T09:06:53Z</time>
      </trkpt>
      <trkpt lat="48.55275" lon="1.98672">
        <ele>149</ele>
        <time>2011-10-23T09:06:57Z</time>
      </trkpt>
      <trkpt lat="48.55285" lon="1.98698">
        <ele>148</ele>
        <time>2011-10-23T09:07:01Z</time>
      </trkpt>
      <trkpt lat="48.55292" lon="1.98736">
        <ele>148</ele>
        <time>2011-10-23T09:07:06Z</time>
      </trkpt>
      <trkpt lat="48.55293" lon="1.98793">
        <ele>148</ele>
        <time>2011-10-23T09:07:13Z</time>
      </trkpt>
      <trkpt lat="48.55293" lon="1.98826">
        <ele>148</ele>
        <time>2011-10-23T09:07:17Z</time>
      </trkpt>
      <trkpt lat="48.55293" lon="1.98905">
        <ele>147</ele>
        <time>2011-10-23T09:07:27Z</time>
      </trkpt>
      <trkpt lat="48.55293" lon="1.98964">
        <ele>146</ele>
        <time>2011-10-23T09:07:34Z</time>
      </trkpt>
      <trkpt lat="48.55292" lon="1.99028">
        <ele>145</ele>
        <time>2011-10-23T09:07:42Z</time>
      </trkpt>
      <trkpt lat="48.55291" lon="1.99087">
        <ele>145</ele>
        <time>2011-10-23T09:07:49Z</time>
      </trkpt>
      <trkpt lat="48.5529" lon="1.99159">
        <ele>144</ele>
        <time>2011-10-23T09:07:57Z</time>
      </trkpt>
      <trkpt lat="48.5529" lon="1.99178">
        <ele>143</ele>
        <time>2011-10-23T09:07:59Z</time>
      </trkpt>
      <trkpt lat="48.55296" lon="1.99245">
        <ele>143</ele>
        <time>2011-10-23T09:08:06Z</time>
      </trkpt>
      <trkpt lat="48.55297" lon="1.99255">
        <ele>141</ele>
        <time>2011-10-23T09:08:07Z</time>
      </trkpt>
      <trkpt lat="48.5531" lon="1.9933">
        <ele>140</ele>
        <time>2011-10-23T09:08:14Z</time>
      </trkpt>
      <trkpt lat="48.55322" lon="1.99393">
        <ele>136</ele>
        <time>2011-10-23T09:08:20Z</time>
      </trkpt>
      <trkpt lat="48.55336" lon="1.9946">
        <ele>133</ele>
        <time>2011-10-23T09:08:26Z</time>
      </trkpt>
      <trkpt lat="48.55334" lon="1.99525">
        <ele>130</ele>
        <time>2011-10-23T09:08:31Z</time>
      </trkpt>
      <trkpt lat="48.55332" lon="1.99582">
        <ele>128</ele>
        <time>2011-10-23T09:08:35Z</time>
      </trkpt>
      <trkpt lat="48.55346" lon="1.99645">
        <ele>128</ele>
        <time>2011-10-23T09:08:40Z</time>
      </trkpt>
      <trkpt lat="48.55381" lon="1.99707">
        <ele>127</ele>
        <time>2011-10-23T09:08:47Z</time>
      </trkpt>
      <trkpt lat="48.55385" lon="1.99716">
        <ele>127</ele>
        <time>2011-10-23T09:08:48Z</time>
      </trkpt>
      <trkpt lat="48.55397" lon="1.99753">
        <ele>127</ele>
        <time>2011-10-23T09:08:52Z</time>
      </trkpt>
      <trkpt lat="48.55405" lon="1.99772">
        <ele>127</ele>
        <time>2011-10-23T09:08:54Z</time>
      </trkpt>
      <trkpt lat="48.55416" lon="1.99812">
        <ele>126</ele>
        <time>2011-10-23T09:08:58Z</time>
      </trkpt>
      <trkpt lat="48.55426" lon="1.99897">
        <ele>122</ele>
        <time>2011-10-23T09:09:06Z</time>
      </trkpt>
      <trkpt lat="48.55436" lon="1.9997">
        <ele>121</ele>
        <time>2011-10-23T09:09:13Z</time>
      </trkpt>
      <trkpt lat="48.55442" lon="2.0001">
        <ele>121</ele>
        <time>2011-10-23T09:09:17Z</time>
      </trkpt>
      <trkpt lat="48.55446" lon="2.0003">
        <ele>121</ele>
        <time>2011-10-23T09:09:20Z</time>
      </trkpt>
      <trkpt lat="48.55448" lon="2.00039">
        <ele>121</ele>
        <time>2011-10-23T09:09:24Z</time>
      </trkpt>
      <trkpt lat="48.55452" lon="2.00058">
        <ele>121</ele>
        <time>2011-10-23T09:09:30Z</time>
      </trkpt>
      <trkpt lat="48.55458" lon="2.00093">
        <ele>122</ele>
        <time>2011-10-23T09:09:35Z</time>
      </trkpt>
      <trkpt lat="48.55463" lon="2.00136">
        <ele>122</ele>
        <time>2011-10-23T09:09:40Z</time>
      </trkpt>
      <trkpt lat="48.55466" lon="2.002">
        <ele>121</ele>
        <time>2011-10-23T09:09:47Z</time>
      </trkpt>
      <trkpt lat="48.55466" lon="2.00227">
        <ele>121</ele>
        <time>2011-10-23T09:09:50Z</time>
      </trkpt>
      <trkpt lat="48.55465" lon="2.00245">
        <ele>121</ele>
        <time>2011-10-23T09:09:52Z</time>
      </trkpt>
      <trkpt lat="48.5546" lon="2.00283">
        <ele>120</ele>
        <time>2011-10-23T09:09:57Z</time>
      </trkpt>
      <trkpt lat="48.5545" lon="2.003">
        <ele>120</ele>
        <time>2011-10-23T09:10:01Z</time>
      </trkpt>
      <trkpt lat="48.55439" lon="2.0029">
        <ele>120</ele>
        <time>2011-10-23T09:10:05Z</time>
      </trkpt>
      <trkpt lat="48.5543" lon="2.00284">
        <ele>120</ele>
        <time>2011-10-23T09:10:08Z</time>
      </trkpt>
      <trkpt lat="48.55403" lon="2.00267">
        <ele>124</ele>
        <time>2011-10-23T09:10:17Z</time>
      </trkpt>
      <trkpt lat="48.5538" lon="2.00253">
        <ele>126</ele>
        <time>2011-10-23T09:10:25Z</time>
      </trkpt>
      <trkpt lat="48.55363" lon="2.00246">
        <ele>129</ele>
        <time>2011-10-23T09:10:32Z</time>
      </trkpt>
      <trkpt lat="48.55348" lon="2.00243">
        <ele>130</ele>
        <time>2011-10-23T09:10:38Z</time>
      </trkpt>
      <trkpt lat="48.55334" lon="2.0024">
        <ele>131</ele>
        <time>2011-10-23T09:10:43Z</time>
      </trkpt>
      <trkpt lat="48.55321" lon="2.00241">
        <ele>133</ele>
        <time>2011-10-23T09:10:48Z</time>
      </trkpt>
      <trkpt lat="48.55305" lon="2.00242">
        <ele>134</ele>
        <time>2011-10-23T09:10:54Z</time>
      </trkpt>
      <trkpt lat="48.55287" lon="2.00242">
        <ele>134</ele>
        <time>2011-10-23T09:11:00Z</time>
      </trkpt>
      <trkpt lat="48.55274" lon="2.00242">
        <ele>135</ele>
        <time>2011-10-23T09:11:05Z</time>
      </trkpt>
      <trkpt lat="48.55261" lon="2.00244">
        <ele>135</ele>
        <time>2011-10-23T09:11:10Z</time>
      </trkpt>
      <trkpt lat="48.55244" lon="2.00245">
        <ele>136</ele>
        <time>2011-10-23T09:11:16Z</time>
      </trkpt>
      <trkpt lat="48.5521" lon="2.00242">
        <ele>137</ele>
        <time>2011-10-23T09:11:25Z</time>
      </trkpt>
      <trkpt lat="48.55184" lon="2.00238">
        <ele>138</ele>
        <time>2011-10-23T09:11:32Z</time>
      </trkpt>
      <trkpt lat="48.5514" lon="2.00235">
        <ele>139</ele>
        <time>2011-10-23T09:11:42Z</time>
      </trkpt>
      <trkpt lat="48.55136" lon="2.00235">
        <ele>139</ele>
        <time>2011-10-23T09:11:43Z</time>
      </trkpt>
      <trkpt lat="48.55118" lon="2.00236">
        <ele>139</ele>
        <time>2011-10-23T09:11:47Z</time>
      </trkpt>
      <trkpt lat="48.55085" lon="2.00233">
        <ele>139</ele>
        <time>2011-10-23T09:11:54Z</time>
      </trkpt>
      <trkpt lat="48.55045" lon="2.00233">
        <ele>139</ele>
        <time>2011-10-23T09:12:02Z</time>
      </trkpt>
      <trkpt lat="48.55039" lon="2.00234">
        <ele>139</ele>
        <time>2011-10-23T09:12:03Z</time>
      </trkpt>
      <trkpt lat="48.55001" lon="2.00233">
        <ele>138</ele>
        <time>2011-10-23T09:12:10Z</time>
      </trkpt>
      <trkpt lat="48.54957" lon="2.00228">
        <ele>139</ele>
        <time>2011-10-23T09:12:18Z</time>
      </trkpt>
      <trkpt lat="48.54935" lon="2.00226">
        <ele>139</ele>
        <time>2011-10-23T09:12:22Z</time>
      </trkpt>
      <trkpt lat="48.54911" lon="2.00237">
        <ele>140</ele>
        <time>2011-10-23T09:12:27Z</time>
      </trkpt>
      <trkpt lat="48.54879" lon="2.00268">
        <ele>142</ele>
        <time>2011-10-23T09:12:35Z</time>
      </trkpt>
      <trkpt lat="48.54853" lon="2.00289">
        <ele>144</ele>
        <time>2011-10-23T09:12:42Z</time>
      </trkpt>
      <trkpt lat="48.54823" lon="2.00317">
        <ele>148</ele>
        <time>2011-10-23T09:12:51Z</time>
      </trkpt>
      <trkpt lat="48.54807" lon="2.00338">
        <ele>149</ele>
        <time>2011-10-23T09:12:57Z</time>
      </trkpt>
      <trkpt lat="48.54784" lon="2.00361">
        <ele>150</ele>
        <time>2011-10-23T09:13:05Z</time>
      </trkpt>
      <trkpt lat="48.5476" lon="2.00385">
        <ele>150</ele>
        <time>2011-10-23T09:13:13Z</time>
      </trkpt>
      <trkpt lat="48.54743" lon="2.00402">
        <ele>150</ele>
        <time>2011-10-23T09:13:19Z</time>
      </trkpt>
      <trkpt lat="48.54712" lon="2.00431">
        <ele>150</ele>
        <time>2011-10-23T09:13:29Z</time>
      </trkpt>
      <trkpt lat="48.54688" lon="2.00453">
        <ele>151</ele>
        <time>2011-10-23T09:13:37Z</time>
      </trkpt>
      <trkpt lat="48.54671" lon="2.00469">
        <ele>151</ele>
        <time>2011-10-23T09:13:42Z</time>
      </trkpt>
      <trkpt lat="48.54643" lon="2.00492">
        <ele>152</ele>
        <time>2011-10-23T09:13:49Z</time>
      </trkpt>
      <trkpt lat="48.54618" lon="2.00509">
        <ele>152</ele>
        <time>2011-10-23T09:13:55Z</time>
      </trkpt>
      <trkpt lat="48.54602" lon="2.00524">
        <ele>152</ele>
        <time>2011-10-23T09:13:59Z</time>
      </trkpt>
      <trkpt lat="48.54582" lon="2.00553">
        <ele>153</ele>
        <time>2011-10-23T09:14:05Z</time>
      </trkpt>
      <trkpt lat="48.54547" lon="2.00604">
        <ele>153</ele>
        <time>2011-10-23T09:14:16Z</time>
      </trkpt>
      <trkpt lat="48.54514" lon="2.00641">
        <ele>153</ele>
        <time>2011-10-23T09:14:25Z</time>
      </trkpt>
      <trkpt lat="48.5449" lon="2.00662">
        <ele>154</ele>
        <time>2011-10-23T09:14:31Z</time>
      </trkpt>
      <trkpt lat="48.54462" lon="2.00686">
        <ele>154</ele>
        <time>2011-10-23T09:14:38Z</time>
      </trkpt>
      <trkpt lat="48.54415" lon="2.00718">
        <ele>155</ele>
        <time>2011-10-23T09:14:49Z</time>
      </trkpt>
      <trkpt lat="48.54379" lon="2.00733">
        <ele>156</ele>
        <time>2011-10-23T09:14:57Z</time>
      </trkpt>
      <trkpt lat="48.54337" lon="2.00739">
        <ele>156</ele>
        <time>2011-10-23T09:15:06Z</time>
      </trkpt>
      <trkpt lat="48.54319" lon="2.00739">
        <ele>157</ele>
        <time>2011-10-23T09:15:10Z</time>
      </trkpt>
      <trkpt lat="48.54285" lon="2.00732">
        <ele>157</ele>
        <time>2011-10-23T09:15:17Z</time>
      </trkpt>
      <trkpt lat="48.5428" lon="2.00731">
        <ele>157</ele>
        <time>2011-10-23T09:15:18Z</time>
      </trkpt>
      <trkpt lat="48.54247" lon="2.00711">
        <ele>160</ele>
        <time>2011-10-23T09:15:25Z</time>
      </trkpt>
      <trkpt lat="48.54239" lon="2.00705">
        <ele>160</ele>
        <time>2011-10-23T09:15:27Z</time>
      </trkpt>
      <trkpt lat="48.54232" lon="2.00699">
        <ele>160</ele>
        <time>2011-10-23T09:15:29Z</time>
      </trkpt>
      <trkpt lat="48.54223" lon="2.00687">
        <ele>161</ele>
        <time>2011-10-23T09:15:32Z</time>
      </trkpt>
      <trkpt lat="48.54205" lon="2.00675">
        <ele>162</ele>
        <time>2011-10-23T09:15:36Z</time>
      </trkpt>
      <trkpt lat="48.54199" lon="2.00675">
        <ele>162</ele>
        <time>2011-10-23T09:15:37Z</time>
      </trkpt>
      <trkpt lat="48.54189" lon="2.00675">
        <ele>163</ele>
        <time>2011-10-23T09:15:39Z</time>
      </trkpt>
      <trkpt lat="48.54157" lon="2.00678">
        <ele>165</ele>
        <time>2011-10-23T09:15:45Z</time>
      </trkpt>
      <trkpt lat="48.54136" lon="2.0068">
        <ele>165</ele>
        <time>2011-10-23T09:15:49Z</time>
      </trkpt>
      <trkpt lat="48.54119" lon="2.00672">
        <ele>165</ele>
        <time>2011-10-23T09:15:53Z</time>
      </trkpt>
      <trkpt lat="48.5411" lon="2.00653">
        <ele>167</ele>
        <time>2011-10-23T09:15:58Z</time>
      </trkpt>
      <trkpt lat="48.54113" lon="2.00647">
        <ele>167</ele>
        <time>2011-10-23T09:15:59Z</time>
      </trkpt>
      <trkpt lat="48.54131" lon="2.00592">
        <ele>168</ele>
        <time>2011-10-23T09:16:06Z</time>
      </trkpt>
      <trkpt lat="48.54135" lon="2.00575">
        <ele>167</ele>
        <time>2011-10-23T09:16:08Z</time>
      </trkpt>
      <trkpt lat="48.54143" lon="2.0055">
        <ele>167</ele>
        <time>2011-10-23T09:16:11Z</time>
      </trkpt>
      <trkpt lat="48.54161" lon="2.00491">
        <ele>166</ele>
        <time>2011-10-23T09:16:18Z</time>
      </trkpt>
      <trkpt lat="48.54168" lon="2.00465">
        <ele>166</ele>
        <time>2011-10-23T09:16:21Z</time>
      </trkpt>
      <trkpt lat="48.54173" lon="2.00448">
        <ele>166</ele>
        <time>2011-10-23T09:16:23Z</time>
      </trkpt>
      <trkpt lat="48.54191" lon="2.00385">
        <ele>164</ele>
        <time>2011-10-23T09:16:30Z</time>
      </trkpt>
      <trkpt lat="48.54196" lon="2.00369">
        <ele>164</ele>
        <time>2011-10-23T09:16:32Z</time>
      </trkpt>
      <trkpt lat="48.54214" lon="2.00298">
        <ele>163</ele>
        <time>2011-10-23T09:16:40Z</time>
      </trkpt>
      <trkpt lat="48.5423" lon="2.00245">
        <ele>162</ele>
        <time>2011-10-23T09:16:46Z</time>
      </trkpt>
      <trkpt lat="48.54242" lon="2.00191">
        <ele>161</ele>
        <time>2011-10-23T09:16:52Z</time>
      </trkpt>
      <trkpt lat="48.54259" lon="2.00116">
        <ele>164</ele>
        <time>2011-10-23T09:17:00Z</time>
      </trkpt>
      <trkpt lat="48.54263" lon="2.00099">
        <ele>164</ele>
        <time>2011-10-23T09:17:02Z</time>
      </trkpt>
      <trkpt lat="48.54267" lon="2.00081">
        <ele>164</ele>
        <time>2011-10-23T09:17:04Z</time>
      </trkpt>
      <trkpt lat="48.54282" lon="2.00011">
        <ele>165</ele>
        <time>2011-10-23T09:17:12Z</time>
      </trkpt>
      <trkpt lat="48.54284" lon="2.00002">
        <ele>165</ele>
        <time>2011-10-23T09:17:13Z</time>
      </trkpt>
      <trkpt lat="48.54294" lon="1.99938">
        <ele>167</ele>
        <time>2011-10-23T09:17:20Z</time>
      </trkpt>
      <trkpt lat="48.54305" lon="1.99875">
        <ele>168</ele>
        <time>2011-10-23T09:17:27Z</time>
      </trkpt>
      <trkpt lat="48.54316" lon="1.9981">
        <ele>168</ele>
        <time>2011-10-23T09:17:34Z</time>
      </trkpt>
      <trkpt lat="48.54326" lon="1.99765">
        <ele>168</ele>
        <time>2011-10-23T09:17:39Z</time>
      </trkpt>
      <trkpt lat="48.5434" lon="1.99692">
        <ele>167</ele>
        <time>2011-10-23T09:17:47Z</time>
      </trkpt>
      <trkpt lat="48.54341" lon="1.99667">
        <ele>168</ele>
        <time>2011-10-23T09:17:50Z</time>
      </trkpt>
      <trkpt lat="48.54325" lon="1.99627">
        <ele>168</ele>
        <time>2011-10-23T09:17:55Z</time>
      </trkpt>
      <trkpt lat="48.54301" lon="1.99606">
        <ele>167</ele>
        <time>2011-10-23T09:17:59Z</time>
      </trkpt>
      <trkpt lat="48.54276" lon="1.99592">
        <ele>167</ele>
        <time>2011-10-23T09:18:03Z</time>
      </trkpt>
      <trkpt lat="48.54265" lon="1.99586">
        <ele>166</ele>
        <time>2011-10-23T09:18:05Z</time>
      </trkpt>
      <trkpt lat="48.54242" lon="1.99569">
        <ele>165</ele>
        <time>2011-10-23T09:18:10Z</time>
      </trkpt>
      <trkpt lat="48.54233" lon="1.99556">
        <ele>164</ele>
        <time>2011-10-23T09:18:13Z</time>
      </trkpt>
      <trkpt lat="48.54236" lon="1.99531">
        <ele>164</ele>
        <time>2011-10-23T09:18:18Z</time>
      </trkpt>
      <trkpt lat="48.54241" lon="1.99498">
        <ele>164</ele>
        <time>2011-10-23T09:18:23Z</time>
      </trkpt>
      <trkpt lat="48.54235" lon="1.99469">
        <ele>164</ele>
        <time>2011-10-23T09:18:28Z</time>
      </trkpt>
      <trkpt lat="48.5423" lon="1.99465">
        <ele>164</ele>
        <time>2011-10-23T09:18:29Z</time>
      </trkpt>
      <trkpt lat="48.54215" lon="1.99453">
        <ele>164</ele>
        <time>2011-10-23T09:18:32Z</time>
      </trkpt>
      <trkpt lat="48.54199" lon="1.99446">
        <ele>164</ele>
        <time>2011-10-23T09:18:35Z</time>
      </trkpt>
      <trkpt lat="48.5418" lon="1.9943">
        <ele>165</ele>
        <time>2011-10-23T09:18:39Z</time>
      </trkpt>
      <trkpt lat="48.54137" lon="1.99398">
        <ele>164</ele>
        <time>2011-10-23T09:18:46Z</time>
      </trkpt>
      <trkpt lat="48.54131" lon="1.99394">
        <ele>164</ele>
        <time>2011-10-23T09:18:47Z</time>
      </trkpt>
      <trkpt lat="48.54095" lon="1.99367">
        <ele>164</ele>
        <time>2011-10-23T09:18:53Z</time>
      </trkpt>
      <trkpt lat="48.54067" lon="1.99345">
        <ele>163</ele>
        <time>2011-10-23T09:18:58Z</time>
      </trkpt>
      <trkpt lat="48.54039" lon="1.99322">
        <ele>160</ele>
        <time>2011-10-23T09:19:03Z</time>
      </trkpt>
      <trkpt lat="48.54011" lon="1.99298">
        <ele>158</ele>
        <time>2011-10-23T09:19:07Z</time>
      </trkpt>
      <trkpt lat="48.53973" lon="1.99275">
        <ele>152</ele>
        <time>2011-10-23T09:19:12Z</time>
      </trkpt>
      <trkpt lat="48.53954" lon="1.99259">
        <ele>150</ele>
        <time>2011-10-23T09:19:15Z</time>
      </trkpt>
      <trkpt lat="48.5394" lon="1.99241">
        <ele>145</ele>
        <time>2011-10-23T09:19:18Z</time>
      </trkpt>
      <trkpt lat="48.53928" lon="1.99203">
        <ele>144</ele>
        <time>2011-10-23T09:19:23Z</time>
      </trkpt>
      <trkpt lat="48.53924" lon="1.9919">
        <ele>143</ele>
        <time>2011-10-23T09:19:27Z</time>
      </trkpt>
      <trkpt lat="48.53924" lon="1.99187">
        <ele>143</ele>
        <time>2011-10-23T09:19:29Z</time>
      </trkpt>
      <trkpt lat="48.53938" lon="1.9917">
        <ele>143</ele>
        <time>2011-10-23T09:19:35Z</time>
      </trkpt>
      <trkpt lat="48.53964" lon="1.99153">
        <ele>141</ele>
        <time>2011-10-23T09:19:40Z</time>
      </trkpt>
      <trkpt lat="48.53993" lon="1.99138">
        <ele>141</ele>
        <time>2011-10-23T09:19:44Z</time>
      </trkpt>
      <trkpt lat="48.54015" lon="1.99117">
        <ele>143</ele>
        <time>2011-10-23T09:19:49Z</time>
      </trkpt>
      <trkpt lat="48.54024" lon="1.99104">
        <ele>143</ele>
        <time>2011-10-23T09:19:52Z</time>
      </trkpt>
      <trkpt lat="48.54047" lon="1.99074">
        <ele>143</ele>
        <time>2011-10-23T09:19:59Z</time>
      </trkpt>
      <trkpt lat="48.54059" lon="1.99059">
        <ele>144</ele>
        <time>2011-10-23T09:20:03Z</time>
      </trkpt>
      <trkpt lat="48.54073" lon="1.99042">
        <ele>144</ele>
        <time>2011-10-23T09:20:08Z</time>
      </trkpt>
      <trkpt lat="48.54073" lon="1.99025">
        <ele>145</ele>
        <time>2011-10-23T09:20:14Z</time>
      </trkpt>
      <trkpt lat="48.54071" lon="1.99022">
        <ele>145</ele>
        <time>2011-10-23T09:20:15Z</time>
      </trkpt>
      <trkpt lat="48.54063" lon="1.98998">
        <ele>144</ele>
        <time>2011-10-23T09:20:21Z</time>
      </trkpt>
      <trkpt lat="48.54063" lon="1.98973">
        <ele>143</ele>
        <time>2011-10-23T09:20:26Z</time>
      </trkpt>
      <trkpt lat="48.5407" lon="1.98943">
        <ele>142</ele>
        <time>2011-10-23T09:20:31Z</time>
      </trkpt>
      <trkpt lat="48.5408" lon="1.98933">
        <ele>143</ele>
        <time>2011-10-23T09:20:34Z</time>
      </trkpt>
      <trkpt lat="48.54096" lon="1.98933">
        <ele>148</ele>
        <time>2011-10-23T09:20:39Z</time>
      </trkpt>
      <trkpt lat="48.54101" lon="1.98934">
        <ele>149</ele>
        <time>2011-10-23T09:20:41Z</time>
      </trkpt>
      <trkpt lat="48.54119" lon="1.98926">
        <ele>150</ele>
        <time>2011-10-23T09:20:48Z</time>
      </trkpt>
      <trkpt lat="48.54123" lon="1.98925">
        <ele>150</ele>
        <time>2011-10-23T09:20:50Z</time>
      </trkpt>
      <trkpt lat="48.54127" lon="1.98923">
        <ele>151</ele>
        <time>2011-10-23T09:20:52Z</time>
      </trkpt>
      <trkpt lat="48.54144" lon="1.98926">
        <ele>152</ele>
        <time>2011-10-23T09:20:58Z</time>
      </trkpt>
      <trkpt lat="48.5415" lon="1.98927">
        <ele>152</ele>
        <time>2011-10-23T09:21:00Z</time>
      </trkpt>
      <trkpt lat="48.54167" lon="1.98924">
        <ele>156</ele>
        <time>2011-10-23T09:21:06Z</time>
      </trkpt>
      <trkpt lat="48.5419" lon="1.98923">
        <ele>159</ele>
        <time>2011-10-23T09:21:12Z</time>
      </trkpt>
      <trkpt lat="48.54195" lon="1.9892">
        <ele>159</ele>
        <time>2011-10-23T09:21:14Z</time>
      </trkpt>
      <trkpt lat="48.54203" lon="1.98909">
        <ele>158</ele>
        <time>2011-10-23T09:21:19Z</time>
      </trkpt>
      <trkpt lat="48.54206" lon="1.98903">
        <ele>158</ele>
        <time>2011-10-23T09:21:21Z</time>
      </trkpt>
      <trkpt lat="48.54211" lon="1.98888">
        <ele>158</ele>
        <time>2011-10-23T09:21:28Z</time>
      </trkpt>
      <trkpt lat="48.54217" lon="1.98877">
        <ele>158</ele>
        <time>2011-10-23T09:21:33Z</time>
      </trkpt>
      <trkpt lat="48.5422" lon="1.98876">
        <ele>159</ele>
        <time>2011-10-23T09:21:34Z</time>
      </trkpt>
      <trkpt lat="48.54231" lon="1.98873">
        <ele>159</ele>
        <time>2011-10-23T09:21:39Z</time>
      </trkpt>
      <trkpt lat="48.54236" lon="1.98869">
        <ele>159</ele>
        <time>2011-10-23T09:21:47Z</time>
      </trkpt>
      <trkpt lat="48.54239" lon="1.98869">
        <ele>160</ele>
        <time>2011-10-23T09:21:49Z</time>
      </trkpt>
      <trkpt lat="48.54245" lon="1.98862">
        <ele>160</ele>
        <time>2011-10-23T09:21:54Z</time>
      </trkpt>
      <trkpt lat="48.54248" lon="1.98856">
        <ele>160</ele>
        <time>2011-10-23T09:21:57Z</time>
      </trkpt>
      <trkpt lat="48.54256" lon="1.9884">
        <ele>163</ele>
        <time>2011-10-23T09:22:02Z</time>
      </trkpt>
      <trkpt lat="48.54271" lon="1.98821">
        <ele>164</ele>
        <time>2011-10-23T09:22:07Z</time>
      </trkpt>
      <trkpt lat="48.54272" lon="1.98819">
        <ele>164</ele>
        <time>2011-10-23T09:22:08Z</time>
      </trkpt>
      <trkpt lat="48.54277" lon="1.98809">
        <ele>164</ele>
        <time>2011-10-23T09:22:12Z</time>
      </trkpt>
      <trkpt lat="48.54278" lon="1.98808">
        <ele>164</ele>
        <time>2011-10-23T09:22:16Z</time>
      </trkpt>
      <trkpt lat="48.54278" lon="1.98802">
        <ele>164</ele>
        <time>2011-10-23T09:22:20Z</time>
      </trkpt>
      <trkpt lat="48.54282" lon="1.9879">
        <ele>164</ele>
        <time>2011-10-23T09:22:24Z</time>
      </trkpt>
      <trkpt lat="48.54295" lon="1.98762">
        <ele>165</ele>
        <time>2011-10-23T09:22:30Z</time>
      </trkpt>
      <trkpt lat="48.54302" lon="1.98738">
        <ele>164</ele>
        <time>2011-10-23T09:22:34Z</time>
      </trkpt>
      <trkpt lat="48.54303" lon="1.98716">
        <ele>164</ele>
        <time>2011-10-23T09:22:38Z</time>
      </trkpt>
      <trkpt lat="48.54302" lon="1.98708">
        <ele>164</ele>
        <time>2011-10-23T09:22:40Z</time>
      </trkpt>
      <trkpt lat="48.54299" lon="1.98704">
        <ele>164</ele>
        <time>2011-10-23T09:22:43Z</time>
      </trkpt>
      <trkpt lat="48.54281" lon="1.98702">
        <ele>163</ele>
        <time>2011-10-23T09:22:48Z</time>
      </trkpt>
      <trkpt lat="48.54277" lon="1.98698">
        <ele>163</ele>
        <time>2011-10-23T09:22:49Z</time>
      </trkpt>
      <trkpt lat="48.54253" lon="1.98673">
        <ele>161</ele>
        <time>2011-10-23T09:22:53Z</time>
      </trkpt>
      <trkpt lat="48.5422" lon="1.98657">
        <ele>156</ele>
        <time>2011-10-23T09:22:57Z</time>
      </trkpt>
      <trkpt lat="48.54188" lon="1.98665">
        <ele>152</ele>
        <time>2011-10-23T09:23:01Z</time>
      </trkpt>
      <trkpt lat="48.5417" lon="1.98676">
        <ele>149</ele>
        <time>2011-10-23T09:23:03Z</time>
      </trkpt>
      <trkpt lat="48.54142" lon="1.98691">
        <ele>142</ele>
        <time>2011-10-23T09:23:06Z</time>
      </trkpt>
      <trkpt lat="48.54114" lon="1.98704">
        <ele>139</ele>
        <time>2011-10-23T09:23:10Z</time>
      </trkpt>
      <trkpt lat="48.541" lon="1.98704">
        <ele>138</ele>
        <time>2011-10-23T09:23:13Z</time>
      </trkpt>
      <trkpt lat="48.54075" lon="1.98674">
        <ele>132</ele>
        <time>2011-10-23T09:23:18Z</time>
      </trkpt>
      <trkpt lat="48.54063" lon="1.98648">
        <ele>132</ele>
        <time>2011-10-23T09:23:22Z</time>
      </trkpt>
      <trkpt lat="48.54057" lon="1.98643">
        <ele>132</ele>
        <time>2011-10-23T09:23:23Z</time>
      </trkpt>
      <trkpt lat="48.54039" lon="1.98624">
        <ele>132</ele>
        <time>2011-10-23T09:23:27Z</time>
      </trkpt>
      <trkpt lat="48.54019" lon="1.98604">
        <ele>132</ele>
        <time>2011-10-23T09:23:32Z</time>
      </trkpt>
      <trkpt lat="48.54002" lon="1.98577">
        <ele>133</ele>
        <time>2011-10-23T09:23:38Z</time>
      </trkpt>
      <trkpt lat="48.53994" lon="1.98562">
        <ele>132</ele>
        <time>2011-10-23T09:23:41Z</time>
      </trkpt>
      <trkpt lat="48.53977" lon="1.98529">
        <ele>132</ele>
        <time>2011-10-23T09:23:47Z</time>
      </trkpt>
      <trkpt lat="48.53974" lon="1.98523">
        <ele>132</ele>
        <time>2011-10-23T09:23:48Z</time>
      </trkpt>
      <trkpt lat="48.53953" lon="1.98489">
        <ele>136</ele>
        <time>2011-10-23T09:23:54Z</time>
      </trkpt>
      <trkpt lat="48.53943" lon="1.98473">
        <ele>136</ele>
        <time>2011-10-23T09:23:57Z</time>
      </trkpt>
      <trkpt lat="48.53941" lon="1.98453">
        <ele>137</ele>
        <time>2011-10-23T09:24:01Z</time>
      </trkpt>
      <trkpt lat="48.53952" lon="1.98444">
        <ele>137</ele>
        <time>2011-10-23T09:24:05Z</time>
      </trkpt>
      <trkpt lat="48.53955" lon="1.98439">
        <ele>137</ele>
        <time>2011-10-23T09:24:07Z</time>
      </trkpt>
      <trkpt lat="48.53981" lon="1.98425">
        <ele>138</ele>
        <time>2011-10-23T09:24:13Z</time>
      </trkpt>
      <trkpt lat="48.53989" lon="1.9842">
        <ele>138</ele>
        <time>2011-10-23T09:24:15Z</time>
      </trkpt>
      <trkpt lat="48.54005" lon="1.9841">
        <ele>140</ele>
        <time>2011-10-23T09:24:19Z</time>
      </trkpt>
      <trkpt lat="48.54028" lon="1.98397">
        <ele>140</ele>
        <time>2011-10-23T09:24:24Z</time>
      </trkpt>
      <trkpt lat="48.54037" lon="1.98393">
        <ele>141</ele>
        <time>2011-10-23T09:24:26Z</time>
      </trkpt>
      <trkpt lat="48.54051" lon="1.98384">
        <ele>141</ele>
        <time>2011-10-23T09:24:30Z</time>
      </trkpt>
      <trkpt lat="48.54069" lon="1.98367">
        <ele>141</ele>
        <time>2011-10-23T09:24:37Z</time>
      </trkpt>
      <trkpt lat="48.54084" lon="1.98357">
        <ele>145</ele>
        <time>2011-10-23T09:24:43Z</time>
      </trkpt>
      <trkpt lat="48.54107" lon="1.98343">
        <ele>146</ele>
        <time>2011-10-23T09:24:51Z</time>
      </trkpt>
      <trkpt lat="48.54121" lon="1.98331">
        <ele>148</ele>
        <time>2011-10-23T09:24:58Z</time>
      </trkpt>
      <trkpt lat="48.54133" lon="1.98323">
        <ele>150</ele>
        <time>2011-10-23T09:25:03Z</time>
      </trkpt>
      <trkpt lat="48.54142" lon="1.98315">
        <ele>150</ele>
        <time>2011-10-23T09:25:08Z</time>
      </trkpt>
      <trkpt lat="48.54154" lon="1.98308">
        <ele>151</ele>
        <time>2011-10-23T09:25:13Z</time>
      </trkpt>
      <trkpt lat="48.54166" lon="1.98302">
        <ele>151</ele>
        <time>2011-10-23T09:25:18Z</time>
      </trkpt>
      <trkpt lat="48.54177" lon="1.98291">
        <ele>158</ele>
        <time>2011-10-23T09:25:24Z</time>
      </trkpt>
      <trkpt lat="48.54188" lon="1.98282">
        <ele>159</ele>
        <time>2011-10-23T09:25:30Z</time>
      </trkpt>
      <trkpt lat="48.54208" lon="1.98274">
        <ele>160</ele>
        <time>2011-10-23T09:25:36Z</time>
      </trkpt>
      <trkpt lat="48.54218" lon="1.98268">
        <ele>161</ele>
        <time>2011-10-23T09:25:41Z</time>
      </trkpt>
      <trkpt lat="48.54232" lon="1.9826">
        <ele>162</ele>
        <time>2011-10-23T09:25:47Z</time>
      </trkpt>
      <trkpt lat="48.54244" lon="1.98249">
        <ele>164</ele>
        <time>2011-10-23T09:25:53Z</time>
      </trkpt>
      <trkpt lat="48.5426" lon="1.98239">
        <ele>166</ele>
        <time>2011-10-23T09:26:00Z</time>
      </trkpt>
      <trkpt lat="48.54284" lon="1.9823">
        <ele>166</ele>
        <time>2011-10-23T09:26:07Z</time>
      </trkpt>
      <trkpt lat="48.54307" lon="1.98218">
        <ele>166</ele>
        <time>2011-10-23T09:26:13Z</time>
      </trkpt>
      <trkpt lat="48.54324" lon="1.98207">
        <ele>167</ele>
        <time>2011-10-23T09:26:18Z</time>
      </trkpt>
      <trkpt lat="48.54332" lon="1.98199">
        <ele>167</ele>
        <time>2011-10-23T09:26:20Z</time>
      </trkpt>
      <trkpt lat="48.54339" lon="1.98176">
        <ele>167</ele>
        <time>2011-10-23T09:26:25Z</time>
      </trkpt>
      <trkpt lat="48.5433" lon="1.98155">
        <ele>166</ele>
        <time>2011-10-23T09:26:29Z</time>
      </trkpt>
      <trkpt lat="48.54318" lon="1.98141">
        <ele>166</ele>
        <time>2011-10-23T09:26:31Z</time>
      </trkpt>
      <trkpt lat="48.54271" lon="1.98082">
        <ele>162</ele>
        <time>2011-10-23T09:26:38Z</time>
      </trkpt>
      <trkpt lat="48.54233" lon="1.98039">
        <ele>158</ele>
        <time>2011-10-23T09:26:43Z</time>
      </trkpt>
      <trkpt lat="48.54191" lon="1.98019">
        <ele>156</ele>
        <time>2011-10-23T09:26:47Z</time>
      </trkpt>
      <trkpt lat="48.54138" lon="1.98022">
        <ele>150</ele>
        <time>2011-10-23T09:26:52Z</time>
      </trkpt>
      <trkpt lat="48.54106" lon="1.98025">
        <ele>149</ele>
        <time>2011-10-23T09:26:56Z</time>
      </trkpt>
      <trkpt lat="48.54079" lon="1.98011">
        <ele>147</ele>
        <time>2011-10-23T09:27:01Z</time>
      </trkpt>
      <trkpt lat="48.54068" lon="1.98001">
        <ele>147</ele>
        <time>2011-10-23T09:27:04Z</time>
      </trkpt>
      <trkpt lat="48.5406" lon="1.97996">
        <ele>148</ele>
        <time>2011-10-23T09:27:06Z</time>
      </trkpt>
      <trkpt lat="48.54042" lon="1.97981">
        <ele>149</ele>
        <time>2011-10-23T09:27:13Z</time>
      </trkpt>
      <trkpt lat="48.54027" lon="1.97971">
        <ele>149</ele>
        <time>2011-10-23T09:27:19Z</time>
      </trkpt>
      <trkpt lat="48.54011" lon="1.97962">
        <ele>150</ele>
        <time>2011-10-23T09:27:24Z</time>
      </trkpt>
      <trkpt lat="48.53991" lon="1.97948">
        <ele>152</ele>
        <time>2011-10-23T09:27:30Z</time>
      </trkpt>
      <trkpt lat="48.53977" lon="1.97936">
        <ele>152</ele>
        <time>2011-10-23T09:27:35Z</time>
      </trkpt>
      <trkpt lat="48.53951" lon="1.97919">
        <ele>153</ele>
        <time>2011-10-23T09:27:44Z</time>
      </trkpt>
      <trkpt lat="48.53925" lon="1.9791">
        <ele>155</ele>
        <time>2011-10-23T09:27:51Z</time>
      </trkpt>
      <trkpt lat="48.53915" lon="1.97901">
        <ele>155</ele>
        <time>2011-10-23T09:27:57Z</time>
      </trkpt>
      <trkpt lat="48.53907" lon="1.97896">
        <ele>155</ele>
        <time>2011-10-23T09:28:01Z</time>
      </trkpt>
      <trkpt lat="48.53892" lon="1.97888">
        <ele>155</ele>
        <time>2011-10-23T09:28:05Z</time>
      </trkpt>
      <trkpt lat="48.53875" lon="1.97871">
        <ele>155</ele>
        <time>2011-10-23T09:28:11Z</time>
      </trkpt>
      <trkpt lat="48.5386" lon="1.97861">
        <ele>156</ele>
        <time>2011-10-23T09:28:15Z</time>
      </trkpt>
      <trkpt lat="48.53848" lon="1.97848">
        <ele>156</ele>
        <time>2011-10-23T09:28:19Z</time>
      </trkpt>
      <trkpt lat="48.53824" lon="1.97827">
        <ele>155</ele>
        <time>2011-10-23T09:28:26Z</time>
      </trkpt>
      <trkpt lat="48.53819" lon="1.97824">
        <ele>155</ele>
        <time>2011-10-23T09:28:27Z</time>
      </trkpt>
      <trkpt lat="48.53811" lon="1.97817">
        <ele>154</ele>
        <time>2011-10-23T09:28:29Z</time>
      </trkpt>
      <trkpt lat="48.538" lon="1.97808">
        <ele>153</ele>
        <time>2011-10-23T09:28:32Z</time>
      </trkpt>
      <trkpt lat="48.53788" lon="1.97786">
        <ele>152</ele>
        <time>2011-10-23T09:28:37Z</time>
      </trkpt>
      <trkpt lat="48.53789" lon="1.97768">
        <ele>153</ele>
        <time>2011-10-23T09:28:40Z</time>
      </trkpt>
      <trkpt lat="48.53786" lon="1.97741">
        <ele>154</ele>
        <time>2011-10-23T09:28:45Z</time>
      </trkpt>
      <trkpt lat="48.53784" lon="1.97713">
        <ele>154</ele>
        <time>2011-10-23T09:28:50Z</time>
      </trkpt>
      <trkpt lat="48.53787" lon="1.9768">
        <ele>154</ele>
        <time>2011-10-23T09:28:56Z</time>
      </trkpt>
      <trkpt lat="48.53793" lon="1.97648">
        <ele>154</ele>
        <time>2011-10-23T09:29:01Z</time>
      </trkpt>
      <trkpt lat="48.53797" lon="1.97635">
        <ele>154</ele>
        <time>2011-10-23T09:29:03Z</time>
      </trkpt>
      <trkpt lat="48.53809" lon="1.97614">
        <ele>155</ele>
        <time>2011-10-23T09:29:07Z</time>
      </trkpt>
      <trkpt lat="48.53814" lon="1.97592">
        <ele>157</ele>
        <time>2011-10-23T09:29:11Z</time>
      </trkpt>
      <trkpt lat="48.53811" lon="1.97559">
        <ele>154</ele>
        <time>2011-10-23T09:29:16Z</time>
      </trkpt>
      <trkpt lat="48.5381" lon="1.97526">
        <ele>153</ele>
        <time>2011-10-23T09:29:21Z</time>
      </trkpt>
      <trkpt lat="48.53816" lon="1.97502">
        <ele>154</ele>
        <time>2011-10-23T09:29:25Z</time>
      </trkpt>
      <trkpt lat="48.53823" lon="1.97496">
        <ele>154</ele>
        <time>2011-10-23T09:29:27Z</time>
      </trkpt>
      <trkpt lat="48.53841" lon="1.97476">
        <ele>158</ele>
        <time>2011-10-23T09:29:32Z</time>
      </trkpt>
      <trkpt lat="48.53848" lon="1.97463">
        <ele>158</ele>
        <time>2011-10-23T09:29:34Z</time>
      </trkpt>
      <trkpt lat="48.53856" lon="1.97442">
        <ele>158</ele>
        <time>2011-10-23T09:29:37Z</time>
      </trkpt>
      <trkpt lat="48.53866" lon="1.97413">
        <ele>156</ele>
        <time>2011-10-23T09:29:41Z</time>
      </trkpt>
      <trkpt lat="48.53869" lon="1.97399">
        <ele>156</ele>
        <time>2011-10-23T09:29:43Z</time>
      </trkpt>
      <trkpt lat="48.53868" lon="1.97368">
        <ele>156</ele>
        <time>2011-10-23T09:29:48Z</time>
      </trkpt>
      <trkpt lat="48.53867" lon="1.9736">
        <ele>155</ele>
        <time>2011-10-23T09:29:49Z</time>
      </trkpt>
      <trkpt lat="48.53872" lon="1.97326">
        <ele>154</ele>
        <time>2011-10-23T09:29:54Z</time>
      </trkpt>
      <trkpt lat="48.53879" lon="1.97319">
        <ele>155</ele>
        <time>2011-10-23T09:29:57Z</time>
      </trkpt>
      <trkpt lat="48.53888" lon="1.97302">
        <ele>155</ele>
        <time>2011-10-23T09:30:02Z</time>
      </trkpt>
      <trkpt lat="48.53902" lon="1.97273">
        <ele>156</ele>
        <time>2011-10-23T09:30:07Z</time>
      </trkpt>
      <trkpt lat="48.53907" lon="1.97261">
        <ele>157</ele>
        <time>2011-10-23T09:30:09Z</time>
      </trkpt>
      <trkpt lat="48.53911" lon="1.97217">
        <ele>154</ele>
        <time>2011-10-23T09:30:14Z</time>
      </trkpt>
      <trkpt lat="48.5391" lon="1.972">
        <ele>153</ele>
        <time>2011-10-23T09:30:16Z</time>
      </trkpt>
      <trkpt lat="48.53907" lon="1.9717">
        <ele>154</ele>
        <time>2011-10-23T09:30:20Z</time>
      </trkpt>
      <trkpt lat="48.53915" lon="1.97149">
        <ele>153</ele>
        <time>2011-10-23T09:30:24Z</time>
      </trkpt>
      <trkpt lat="48.53926" lon="1.97124">
        <ele>159</ele>
        <time>2011-10-23T09:30:28Z</time>
      </trkpt>
      <trkpt lat="48.53933" lon="1.97098">
        <ele>158</ele>
        <time>2011-10-23T09:30:32Z</time>
      </trkpt>
      <trkpt lat="48.53944" lon="1.97069">
        <ele>159</ele>
        <time>2011-10-23T09:30:37Z</time>
      </trkpt>
      <trkpt lat="48.53963" lon="1.97055">
        <ele>161</ele>
        <time>2011-10-23T09:30:42Z</time>
      </trkpt>
      <trkpt lat="48.53974" lon="1.97045">
        <ele>162</ele>
        <time>2011-10-23T09:30:45Z</time>
      </trkpt>
      <trkpt lat="48.53978" lon="1.97012">
        <ele>163</ele>
        <time>2011-10-23T09:30:49Z</time>
      </trkpt>
      <trkpt lat="48.53979" lon="1.97004">
        <ele>164</ele>
        <time>2011-10-23T09:30:50Z</time>
      </trkpt>
      <trkpt lat="48.53979" lon="1.96978">
        <ele>164</ele>
        <time>2011-10-23T09:30:53Z</time>
      </trkpt>
      <trkpt lat="48.53981" lon="1.96941">
        <ele>164</ele>
        <time>2011-10-23T09:30:58Z</time>
      </trkpt>
      <trkpt lat="48.53982" lon="1.96918">
        <ele>165</ele>
        <time>2011-10-23T09:31:01Z</time>
      </trkpt>
      <trkpt lat="48.53982" lon="1.96864">
        <ele>165</ele>
        <time>2011-10-23T09:31:07Z</time>
      </trkpt>
      <trkpt lat="48.53981" lon="1.96855">
        <ele>165</ele>
        <time>2011-10-23T09:31:08Z</time>
      </trkpt>
      <trkpt lat="48.53979" lon="1.96813">
        <ele>165</ele>
        <time>2011-10-23T09:31:13Z</time>
      </trkpt>
      <trkpt lat="48.53978" lon="1.96796">
        <ele>164</ele>
        <time>2011-10-23T09:31:15Z</time>
      </trkpt>
      <trkpt lat="48.53981" lon="1.96738">
        <ele>163</ele>
        <time>2011-10-23T09:31:21Z</time>
      </trkpt>
      <trkpt lat="48.5399" lon="1.96691">
        <ele>162</ele>
        <time>2011-10-23T09:31:26Z</time>
      </trkpt>
      <trkpt lat="48.53992" lon="1.96664">
        <ele>161</ele>
        <time>2011-10-23T09:31:29Z</time>
      </trkpt>
      <trkpt lat="48.5399" lon="1.96627">
        <ele>162</ele>
        <time>2011-10-23T09:31:33Z</time>
      </trkpt>
      <trkpt lat="48.53984" lon="1.96584">
        <ele>161</ele>
        <time>2011-10-23T09:31:38Z</time>
      </trkpt>
      <trkpt lat="48.53992" lon="1.9657">
        <ele>162</ele>
        <time>2011-10-23T09:31:40Z</time>
      </trkpt>
      <trkpt lat="48.54028" lon="1.96537">
        <ele>161</ele>
        <time>2011-10-23T09:31:47Z</time>
      </trkpt>
      <trkpt lat="48.5405" lon="1.96519">
        <ele>160</ele>
        <time>2011-10-23T09:31:51Z</time>
      </trkpt>
      <trkpt lat="48.54086" lon="1.96498">
        <ele>160</ele>
        <time>2011-10-23T09:31:57Z</time>
      </trkpt>
      <trkpt lat="48.54117" lon="1.9647">
        <ele>160</ele>
        <time>2011-10-23T09:32:03Z</time>
      </trkpt>
      <trkpt lat="48.54129" lon="1.96461">
        <ele>160</ele>
        <time>2011-10-23T09:32:05Z</time>
      </trkpt>
      <trkpt lat="48.54164" lon="1.96432">
        <ele>160</ele>
        <time>2011-10-23T09:32:12Z</time>
      </trkpt>
      <trkpt lat="48.54169" lon="1.96429">
        <ele>160</ele>
        <time>2011-10-23T09:32:13Z</time>
      </trkpt>
      <trkpt lat="48.5419" lon="1.96414">
        <ele>161</ele>
        <time>2011-10-23T09:32:17Z</time>
      </trkpt>
      <trkpt lat="48.54199" lon="1.96404">
        <ele>161</ele>
        <time>2011-10-23T09:32:19Z</time>
      </trkpt>
      <trkpt lat="48.54229" lon="1.96375">
        <ele>162</ele>
        <time>2011-10-23T09:32:25Z</time>
      </trkpt>
      <trkpt lat="48.54265" lon="1.96344">
        <ele>163</ele>
        <time>2011-10-23T09:32:32Z</time>
      </trkpt>
      <trkpt lat="48.54296" lon="1.9632">
        <ele>164</ele>
        <time>2011-10-23T09:32:37Z</time>
      </trkpt>
      <trkpt lat="48.543" lon="1.96317">
        <ele>164</ele>
        <time>2011-10-23T09:32:38Z</time>
      </trkpt>
      <trkpt lat="48.54315" lon="1.96304">
        <ele>164</ele>
        <time>2011-10-23T09:32:41Z</time>
      </trkpt>
      <trkpt lat="48.54336" lon="1.96288">
        <ele>165</ele>
        <time>2011-10-23T09:32:45Z</time>
      </trkpt>
      <trkpt lat="48.54351" lon="1.96273">
        <ele>166</ele>
        <time>2011-10-23T09:32:48Z</time>
      </trkpt>
      <trkpt lat="48.54366" lon="1.96261">
        <ele>166</ele>
        <time>2011-10-23T09:32:51Z</time>
      </trkpt>
      <trkpt lat="48.54381" lon="1.96247">
        <ele>168</ele>
        <time>2011-10-23T09:32:54Z</time>
      </trkpt>
      <trkpt lat="48.54408" lon="1.96231">
        <ele>168</ele>
        <time>2011-10-23T09:32:58Z</time>
      </trkpt>
      <trkpt lat="48.54432" lon="1.96213">
        <ele>169</ele>
        <time>2011-10-23T09:33:03Z</time>
      </trkpt>
      <trkpt lat="48.54462" lon="1.96185">
        <ele>169</ele>
        <time>2011-10-23T09:33:09Z</time>
      </trkpt>
      <trkpt lat="48.54487" lon="1.96168">
        <ele>170</ele>
        <time>2011-10-23T09:33:14Z</time>
      </trkpt>
      <trkpt lat="48.54499" lon="1.96154">
        <ele>170</ele>
        <time>2011-10-23T09:33:18Z</time>
      </trkpt>
      <trkpt lat="48.54511" lon="1.96137">
        <ele>170</ele>
        <time>2011-10-23T09:33:23Z</time>
      </trkpt>
      <trkpt lat="48.54517" lon="1.9612">
        <ele>170</ele>
        <time>2011-10-23T09:33:30Z</time>
      </trkpt>
      <trkpt lat="48.54516" lon="1.96123">
        <ele>170</ele>
        <time>2011-10-23T09:33:37Z</time>
      </trkpt>
      <trkpt lat="48.54512" lon="1.96121">
        <ele>170</ele>
        <time>2011-10-23T09:33:42Z</time>
      </trkpt>
      <trkpt lat="48.54515" lon="1.9612">
        <ele>170</ele>
        <time>2011-10-23T09:33:45Z</time>
      </trkpt>
      <trkpt lat="48.54518" lon="1.96116">
        <ele>170</ele>
        <time>2011-10-23T09:33:49Z</time>
      </trkpt>
      <trkpt lat="48.54517" lon="1.96113">
        <ele>170</ele>
        <time>2011-10-23T09:33:53Z</time>
      </trkpt>
      <trkpt lat="48.54514" lon="1.96112">
        <ele>170</ele>
        <time>2011-10-23T09:34:08Z</time>
      </trkpt>
      <trkpt lat="48.54513" lon="1.96112">
        <ele>170</ele>
        <time>2011-10-23T09:34:18Z</time>
      </trkpt>
      <trkpt lat="48.54512" lon="1.96114">
        <ele>170</ele>
        <time>2011-10-23T09:34:24Z</time>
      </trkpt>
      <trkpt lat="48.54511" lon="1.96117">
        <ele>170</ele>
        <time>2011-10-23T09:34:39Z</time>
      </trkpt>
      <trkpt lat="48.54512" lon="1.96109">
        <ele>170</ele>
        <time>2011-10-23T09:34:49Z</time>
      </trkpt>
      <trkpt lat="48.54511" lon="1.96109">
        <ele>170</ele>
        <time>2011-10-23T09:34:57Z</time>
      </trkpt>
      <trkpt lat="48.54512" lon="1.96107">
        <ele>170</ele>
        <time>2011-10-23T09:35:04Z</time>
      </trkpt>
      <trkpt lat="48.54513" lon="1.96105">
        <ele>170</ele>
        <time>2011-10-23T09:35:14Z</time>
      </trkpt>
      <trkpt lat="48.54512" lon="1.96112">
        <ele>170</ele>
        <time>2011-10-23T09:35:30Z</time>
      </trkpt>
      <trkpt lat="48.54511" lon="1.96112">
        <ele>170</ele>
        <time>2011-10-23T09:35:36Z</time>
      </trkpt>
      <trkpt lat="48.54513" lon="1.96111">
        <ele>170</ele>
        <time>2011-10-23T09:35:42Z</time>
      </trkpt>
      <trkpt lat="48.54514" lon="1.96112">
        <ele>170</ele>
        <time>2011-10-23T09:35:49Z</time>
      </trkpt>
      <trkpt lat="48.54517" lon="1.96113">
        <ele>170</ele>
        <time>2011-10-23T09:36:01Z</time>
      </trkpt>
      <trkpt lat="48.54516" lon="1.96113">
        <ele>170</ele>
        <time>2011-10-23T09:36:08Z</time>
      </trkpt>
      <trkpt lat="48.54514" lon="1.96115">
        <ele>170</ele>
        <time>2011-10-23T09:36:18Z</time>
      </trkpt>
      <trkpt lat="48.54515" lon="1.96117">
        <ele>170</ele>
        <time>2011-10-23T09:36:26Z</time>
      </trkpt>
      <trkpt lat="48.5451" lon="1.96123">
        <ele>170</ele>
        <time>2011-10-23T09:36:48Z</time>
      </trkpt>
      <trkpt lat="48.54508" lon="1.96121">
        <ele>170</ele>
        <time>2011-10-23T09:36:52Z</time>
      </trkpt>
      <trkpt lat="48.54512" lon="1.96116">
        <ele>170</ele>
        <time>2011-10-23T09:36:56Z</time>
      </trkpt>
      <trkpt lat="48.54509" lon="1.96105">
        <ele>170</ele>
        <time>2011-10-23T09:37:00Z</time>
      </trkpt>
      <trkpt lat="48.54495" lon="1.96099">
        <ele>171</ele>
        <time>2011-10-23T09:37:04Z</time>
      </trkpt>
      <trkpt lat="48.54491" lon="1.96098">
        <ele>171</ele>
        <time>2011-10-23T09:37:05Z</time>
      </trkpt>
      <trkpt lat="48.54475" lon="1.96103">
        <ele>171</ele>
        <time>2011-10-23T09:37:10Z</time>
      </trkpt>
      <trkpt lat="48.54473" lon="1.96104">
        <ele>171</ele>
        <time>2011-10-23T09:37:11Z</time>
      </trkpt>
      <trkpt lat="48.54467" lon="1.96098">
        <ele>171</ele>
        <time>2011-10-23T09:37:15Z</time>
      </trkpt>
      <trkpt lat="48.54441" lon="1.96079">
        <ele>171</ele>
        <time>2011-10-23T09:37:22Z</time>
      </trkpt>
      <trkpt lat="48.54423" lon="1.96066">
        <ele>171</ele>
        <time>2011-10-23T09:37:26Z</time>
      </trkpt>
      <trkpt lat="48.54383" lon="1.96046">
        <ele>171</ele>
        <time>2011-10-23T09:37:33Z</time>
      </trkpt>
      <trkpt lat="48.54371" lon="1.9604">
        <ele>170</ele>
        <time>2011-10-23T09:37:35Z</time>
      </trkpt>
      <trkpt lat="48.54344" lon="1.96026">
        <ele>170</ele>
        <time>2011-10-23T09:37:40Z</time>
      </trkpt>
      <trkpt lat="48.54338" lon="1.96019">
        <ele>170</ele>
        <time>2011-10-23T09:37:42Z</time>
      </trkpt>
      <trkpt lat="48.54298" lon="1.95995">
        <ele>169</ele>
        <time>2011-10-23T09:37:49Z</time>
      </trkpt>
      <trkpt lat="48.54269" lon="1.95979">
        <ele>168</ele>
        <time>2011-10-23T09:37:54Z</time>
      </trkpt>
      <trkpt lat="48.54224" lon="1.95958">
        <ele>168</ele>
        <time>2011-10-23T09:38:01Z</time>
      </trkpt>
      <trkpt lat="48.54196" lon="1.9594">
        <ele>168</ele>
        <time>2011-10-23T09:38:06Z</time>
      </trkpt>
      <trkpt lat="48.54174" lon="1.95927">
        <ele>169</ele>
        <time>2011-10-23T09:38:10Z</time>
      </trkpt>
      <trkpt lat="48.54136" lon="1.95908">
        <ele>168</ele>
        <time>2011-10-23T09:38:16Z</time>
      </trkpt>
      <trkpt lat="48.54108" lon="1.95897">
        <ele>167</ele>
        <time>2011-10-23T09:38:21Z</time>
      </trkpt>
      <trkpt lat="48.54079" lon="1.95879">
        <ele>165</ele>
        <time>2011-10-23T09:38:26Z</time>
      </trkpt>
      <trkpt lat="48.54044" lon="1.95862">
        <ele>165</ele>
        <time>2011-10-23T09:38:32Z</time>
      </trkpt>
      <trkpt lat="48.54039" lon="1.95859">
        <ele>165</ele>
        <time>2011-10-23T09:38:33Z</time>
      </trkpt>
      <trkpt lat="48.54015" lon="1.9584">
        <ele>165</ele>
        <time>2011-10-23T09:38:38Z</time>
      </trkpt>
      <trkpt lat="48.53991" lon="1.95822">
        <ele>165</ele>
        <time>2011-10-23T09:38:43Z</time>
      </trkpt>
      <trkpt lat="48.5397" lon="1.95809">
        <ele>165</ele>
        <time>2011-10-23T09:38:47Z</time>
      </trkpt>
      <trkpt lat="48.53931" lon="1.95783">
        <ele>165</ele>
        <time>2011-10-23T09:38:54Z</time>
      </trkpt>
      <trkpt lat="48.53901" lon="1.95767">
        <ele>164</ele>
        <time>2011-10-23T09:38:59Z</time>
      </trkpt>
      <trkpt lat="48.53882" lon="1.95756">
        <ele>163</ele>
        <time>2011-10-23T09:39:02Z</time>
      </trkpt>
      <trkpt lat="48.53864" lon="1.95747">
        <ele>164</ele>
        <time>2011-10-23T09:39:05Z</time>
      </trkpt>
      <trkpt lat="48.53845" lon="1.95731">
        <ele>163</ele>
        <time>2011-10-23T09:39:09Z</time>
      </trkpt>
      <trkpt lat="48.5386" lon="1.95707">
        <ele>164</ele>
        <time>2011-10-23T09:39:15Z</time>
      </trkpt>
      <trkpt lat="48.53885" lon="1.9568">
        <ele>165</ele>
        <time>2011-10-23T09:39:21Z</time>
      </trkpt>
      <trkpt lat="48.53906" lon="1.9566">
        <ele>165</ele>
        <time>2011-10-23T09:39:25Z</time>
      </trkpt>
      <trkpt lat="48.53935" lon="1.95622">
        <ele>165</ele>
        <time>2011-10-23T09:39:31Z</time>
      </trkpt>
      <trkpt lat="48.53947" lon="1.95605">
        <ele>165</ele>
        <time>2011-10-23T09:39:34Z</time>
      </trkpt>
      <trkpt lat="48.53981" lon="1.95566">
        <ele>163</ele>
        <time>2011-10-23T09:39:40Z</time>
      </trkpt>
      <trkpt lat="48.54018" lon="1.95535">
        <ele>164</ele>
        <time>2011-10-23T09:39:47Z</time>
      </trkpt>
      <trkpt lat="48.54038" lon="1.95515">
        <ele>164</ele>
        <time>2011-10-23T09:39:51Z</time>
      </trkpt>
      <trkpt lat="48.54046" lon="1.95502">
        <ele>164</ele>
        <time>2011-10-23T09:39:53Z</time>
      </trkpt>
      <trkpt lat="48.54069" lon="1.95466">
        <ele>162</ele>
        <time>2011-10-23T09:39:58Z</time>
      </trkpt>
      <trkpt lat="48.54077" lon="1.95449">
        <ele>161</ele>
        <time>2011-10-23T09:40:00Z</time>
      </trkpt>
      <trkpt lat="48.5411" lon="1.954">
        <ele>162</ele>
        <time>2011-10-23T09:40:07Z</time>
      </trkpt>
      <trkpt lat="48.54121" lon="1.95385">
        <ele>162</ele>
        <time>2011-10-23T09:40:09Z</time>
      </trkpt>
      <trkpt lat="48.54157" lon="1.95312">
        <ele>161</ele>
        <time>2011-10-23T09:40:17Z</time>
      </trkpt>
      <trkpt lat="48.54161" lon="1.95304">
        <ele>160</ele>
        <time>2011-10-23T09:40:18Z</time>
      </trkpt>
      <trkpt lat="48.54185" lon="1.95265">
        <ele>164</ele>
        <time>2011-10-23T09:40:24Z</time>
      </trkpt>
      <trkpt lat="48.54189" lon="1.95258">
        <ele>164</ele>
        <time>2011-10-23T09:40:25Z</time>
      </trkpt>
      <trkpt lat="48.5422" lon="1.95222">
        <ele>163</ele>
        <time>2011-10-23T09:40:31Z</time>
      </trkpt>
      <trkpt lat="48.54231" lon="1.95211">
        <ele>163</ele>
        <time>2011-10-23T09:40:33Z</time>
      </trkpt>
      <trkpt lat="48.54252" lon="1.95195">
        <ele>165</ele>
        <time>2011-10-23T09:40:37Z</time>
      </trkpt>
      <trkpt lat="48.54284" lon="1.95165">
        <ele>162</ele>
        <time>2011-10-23T09:40:43Z</time>
      </trkpt>
      <trkpt lat="48.54309" lon="1.95142">
        <ele>162</ele>
        <time>2011-10-23T09:40:47Z</time>
      </trkpt>
      <trkpt lat="48.54331" lon="1.9513">
        <ele>162</ele>
        <time>2011-10-23T09:40:51Z</time>
      </trkpt>
      <trkpt lat="48.54342" lon="1.95109">
        <ele>162</ele>
        <time>2011-10-23T09:40:55Z</time>
      </trkpt>
      <trkpt lat="48.54337" lon="1.9509">
        <ele>160</ele>
        <time>2011-10-23T09:40:57Z</time>
      </trkpt>
      <trkpt lat="48.54332" lon="1.95069">
        <ele>156</ele>
        <time>2011-10-23T09:40:59Z</time>
      </trkpt>
      <trkpt lat="48.54323" lon="1.95035">
        <ele>152</ele>
        <time>2011-10-23T09:41:02Z</time>
      </trkpt>
      <trkpt lat="48.54312" lon="1.94976">
        <ele>146</ele>
        <time>2011-10-23T09:41:07Z</time>
      </trkpt>
      <trkpt lat="48.54307" lon="1.94955">
        <ele>145</ele>
        <time>2011-10-23T09:41:09Z</time>
      </trkpt>
      <trkpt lat="48.54288" lon="1.94943">
        <ele>144</ele>
        <time>2011-10-23T09:41:13Z</time>
      </trkpt>
      <trkpt lat="48.54275" lon="1.94949">
        <ele>143</ele>
        <time>2011-10-23T09:41:15Z</time>
      </trkpt>
      <trkpt lat="48.54239" lon="1.94954">
        <ele>141</ele>
        <time>2011-10-23T09:41:20Z</time>
      </trkpt>
      <trkpt lat="48.54187" lon="1.94944">
        <ele>140</ele>
        <time>2011-10-23T09:41:27Z</time>
      </trkpt>
      <trkpt lat="48.54145" lon="1.94938">
        <ele>138</ele>
        <time>2011-10-23T09:41:33Z</time>
      </trkpt>
      <trkpt lat="48.54114" lon="1.94933">
        <ele>137</ele>
        <time>2011-10-23T09:41:38Z</time>
      </trkpt>
      <trkpt lat="48.54094" lon="1.94931">
        <ele>136</ele>
        <time>2011-10-23T09:41:41Z</time>
      </trkpt>
      <trkpt lat="48.54068" lon="1.94943">
        <ele>134</ele>
        <time>2011-10-23T09:41:45Z</time>
      </trkpt>
      <trkpt lat="48.54062" lon="1.94969">
        <ele>134</ele>
        <time>2011-10-23T09:41:48Z</time>
      </trkpt>
      <trkpt lat="48.54059" lon="1.95013">
        <ele>134</ele>
        <time>2011-10-23T09:41:52Z</time>
      </trkpt>
      <trkpt lat="48.54059" lon="1.95038">
        <ele>134</ele>
        <time>2011-10-23T09:41:54Z</time>
      </trkpt>
      <trkpt lat="48.54064" lon="1.95078">
        <ele>135</ele>
        <time>2011-10-23T09:41:57Z</time>
      </trkpt>
      <trkpt lat="48.54058" lon="1.9512">
        <ele>136</ele>
        <time>2011-10-23T09:42:01Z</time>
      </trkpt>
      <trkpt lat="48.54043" lon="1.95135">
        <ele>135</ele>
        <time>2011-10-23T09:42:03Z</time>
      </trkpt>
      <trkpt lat="48.54016" lon="1.95161">
        <ele>133</ele>
        <time>2011-10-23T09:42:07Z</time>
      </trkpt>
      <trkpt lat="48.53996" lon="1.95207">
        <ele>132</ele>
        <time>2011-10-23T09:42:12Z</time>
      </trkpt>
      <trkpt lat="48.5397" lon="1.95261">
        <ele>139</ele>
        <time>2011-10-23T09:42:18Z</time>
      </trkpt>
      <trkpt lat="48.53951" lon="1.95262">
        <ele>138</ele>
        <time>2011-10-23T09:42:21Z</time>
      </trkpt>
      <trkpt lat="48.53929" lon="1.95248">
        <ele>133</ele>
        <time>2011-10-23T09:42:24Z</time>
      </trkpt>
      <trkpt lat="48.53924" lon="1.9524">
        <ele>133</ele>
        <time>2011-10-23T09:42:25Z</time>
      </trkpt>
      <trkpt lat="48.53915" lon="1.95222">
        <ele>131</ele>
        <time>2011-10-23T09:42:27Z</time>
      </trkpt>
      <trkpt lat="48.53894" lon="1.95184">
        <ele>128</ele>
        <time>2011-10-23T09:42:32Z</time>
      </trkpt>
      <trkpt lat="48.53886" lon="1.95184">
        <ele>128</ele>
        <time>2011-10-23T09:42:36Z</time>
      </trkpt>
      <trkpt lat="48.53862" lon="1.9521">
        <ele>129</ele>
        <time>2011-10-23T09:42:43Z</time>
      </trkpt>
      <trkpt lat="48.53853" lon="1.95233">
        <ele>130</ele>
        <time>2011-10-23T09:42:49Z</time>
      </trkpt>
      <trkpt lat="48.53843" lon="1.95256">
        <ele>133</ele>
        <time>2011-10-23T09:42:55Z</time>
      </trkpt>
      <trkpt lat="48.53838" lon="1.95273">
        <ele>135</ele>
        <time>2011-10-23T09:43:00Z</time>
      </trkpt>
      <trkpt lat="48.53833" lon="1.95294">
        <ele>131</ele>
        <time>2011-10-23T09:43:05Z</time>
      </trkpt>
      <trkpt lat="48.53829" lon="1.95318">
        <ele>134</ele>
        <time>2011-10-23T09:43:11Z</time>
      </trkpt>
      <trkpt lat="48.53835" lon="1.95339">
        <ele>139</ele>
        <time>2011-10-23T09:43:16Z</time>
      </trkpt>
      <trkpt lat="48.53837" lon="1.95359">
        <ele>142</ele>
        <time>2011-10-23T09:43:21Z</time>
      </trkpt>
      <trkpt lat="48.53843" lon="1.95381">
        <ele>144</ele>
        <time>2011-10-23T09:43:27Z</time>
      </trkpt>
      <trkpt lat="48.53848" lon="1.954">
        <ele>145</ele>
        <time>2011-10-23T09:43:32Z</time>
      </trkpt>
      <trkpt lat="48.53843" lon="1.95415">
        <ele>145</ele>
        <time>2011-10-23T09:43:37Z</time>
      </trkpt>
      <trkpt lat="48.53829" lon="1.95422">
        <ele>144</ele>
        <time>2011-10-23T09:43:42Z</time>
      </trkpt>
      <trkpt lat="48.53814" lon="1.95429">
        <ele>144</ele>
        <time>2011-10-23T09:43:47Z</time>
      </trkpt>
      <trkpt lat="48.53789" lon="1.95436">
        <ele>143</ele>
        <time>2011-10-23T09:43:53Z</time>
      </trkpt>
      <trkpt lat="48.5377" lon="1.95445">
        <ele>142</ele>
        <time>2011-10-23T09:43:59Z</time>
      </trkpt>
      <trkpt lat="48.53761" lon="1.95469">
        <ele>143</ele>
        <time>2011-10-23T09:44:03Z</time>
      </trkpt>
      <trkpt lat="48.53746" lon="1.95509">
        <ele>143</ele>
        <time>2011-10-23T09:44:10Z</time>
      </trkpt>
      <trkpt lat="48.53737" lon="1.95536">
        <ele>141</ele>
        <time>2011-10-23T09:44:14Z</time>
      </trkpt>
      <trkpt lat="48.53733" lon="1.95554">
        <ele>142</ele>
        <time>2011-10-23T09:44:16Z</time>
      </trkpt>
      <trkpt lat="48.53726" lon="1.95622">
        <ele>144</ele>
        <time>2011-10-23T09:44:23Z</time>
      </trkpt>
      <trkpt lat="48.53723" lon="1.95662">
        <ele>145</ele>
        <time>2011-10-23T09:44:27Z</time>
      </trkpt>
      <trkpt lat="48.53721" lon="1.95681">
        <ele>148</ele>
        <time>2011-10-23T09:44:29Z</time>
      </trkpt>
      <trkpt lat="48.53704" lon="1.95716">
        <ele>148</ele>
        <time>2011-10-23T09:44:33Z</time>
      </trkpt>
      <trkpt lat="48.5368" lon="1.95732">
        <ele>147</ele>
        <time>2011-10-23T09:44:37Z</time>
      </trkpt>
      <trkpt lat="48.53661" lon="1.95737">
        <ele>141</ele>
        <time>2011-10-23T09:44:40Z</time>
      </trkpt>
      <trkpt lat="48.53637" lon="1.95759">
        <ele>141</ele>
        <time>2011-10-23T09:44:45Z</time>
      </trkpt>
      <trkpt lat="48.53634" lon="1.95776">
        <ele>141</ele>
        <time>2011-10-23T09:44:47Z</time>
      </trkpt>
      <trkpt lat="48.53618" lon="1.95846">
        <ele>145</ele>
        <time>2011-10-23T09:44:55Z</time>
      </trkpt>
      <trkpt lat="48.53609" lon="1.9588">
        <ele>145</ele>
        <time>2011-10-23T09:45:00Z</time>
      </trkpt>
      <trkpt lat="48.53596" lon="1.9592">
        <ele>145</ele>
        <time>2011-10-23T09:45:06Z</time>
      </trkpt>
      <trkpt lat="48.5359" lon="1.95933">
        <ele>145</ele>
        <time>2011-10-23T09:45:08Z</time>
      </trkpt>
      <trkpt lat="48.53555" lon="1.96">
        <ele>144</ele>
        <time>2011-10-23T09:45:15Z</time>
      </trkpt>
      <trkpt lat="48.5355" lon="1.96011">
        <ele>143</ele>
        <time>2011-10-23T09:45:16Z</time>
      </trkpt>
      <trkpt lat="48.5352" lon="1.9605">
        <ele>142</ele>
        <time>2011-10-23T09:45:21Z</time>
      </trkpt>
      <trkpt lat="48.53508" lon="1.96063">
        <ele>142</ele>
        <time>2011-10-23T09:45:23Z</time>
      </trkpt>
      <trkpt lat="48.53493" lon="1.96084">
        <ele>137</ele>
        <time>2011-10-23T09:45:26Z</time>
      </trkpt>
      <trkpt lat="48.53487" lon="1.96116">
        <ele>133</ele>
        <time>2011-10-23T09:45:30Z</time>
      </trkpt>
      <trkpt lat="48.5349" lon="1.96124">
        <ele>133</ele>
        <time>2011-10-23T09:45:31Z</time>
      </trkpt>
      <trkpt lat="48.53496" lon="1.96184">
        <ele>137</ele>
        <time>2011-10-23T09:45:38Z</time>
      </trkpt>
      <trkpt lat="48.53487" lon="1.96251">
        <ele>143</ele>
        <time>2011-10-23T09:45:44Z</time>
      </trkpt>
      <trkpt lat="48.53473" lon="1.96295">
        <ele>142</ele>
        <time>2011-10-23T09:45:49Z</time>
      </trkpt>
      <trkpt lat="48.53469" lon="1.96303">
        <ele>142</ele>
        <time>2011-10-23T09:45:50Z</time>
      </trkpt>
      <trkpt lat="48.53462" lon="1.96316">
        <ele>142</ele>
        <time>2011-10-23T09:45:52Z</time>
      </trkpt>
      <trkpt lat="48.53456" lon="1.96328">
        <ele>141</ele>
        <time>2011-10-23T09:45:55Z</time>
      </trkpt>
      <trkpt lat="48.53448" lon="1.96353">
        <ele>147</ele>
        <time>2011-10-23T09:46:00Z</time>
      </trkpt>
      <trkpt lat="48.53434" lon="1.9638">
        <ele>148</ele>
        <time>2011-10-23T09:46:06Z</time>
      </trkpt>
      <trkpt lat="48.53417" lon="1.96417">
        <ele>149</ele>
        <time>2011-10-23T09:46:12Z</time>
      </trkpt>
      <trkpt lat="48.53414" lon="1.96424">
        <ele>147</ele>
        <time>2011-10-23T09:46:13Z</time>
      </trkpt>
      <trkpt lat="48.5341" lon="1.9644">
        <ele>145</ele>
        <time>2011-10-23T09:46:16Z</time>
      </trkpt>
      <trkpt lat="48.53408" lon="1.96454">
        <ele>144</ele>
        <time>2011-10-23T09:46:18Z</time>
      </trkpt>
      <trkpt lat="48.53401" lon="1.96479">
        <ele>146</ele>
        <time>2011-10-23T09:46:21Z</time>
      </trkpt>
      <trkpt lat="48.53386" lon="1.96528">
        <ele>146</ele>
        <time>2011-10-23T09:46:27Z</time>
      </trkpt>
      <trkpt lat="48.53381" lon="1.96548">
        <ele>146</ele>
        <time>2011-10-23T09:46:29Z</time>
      </trkpt>
      <trkpt lat="48.53365" lon="1.96603">
        <ele>147</ele>
        <time>2011-10-23T09:46:34Z</time>
      </trkpt>
      <trkpt lat="48.53356" lon="1.96627">
        <ele>148</ele>
        <time>2011-10-23T09:46:36Z</time>
      </trkpt>
      <trkpt lat="48.53328" lon="1.96678">
        <ele>143</ele>
        <time>2011-10-23T09:46:41Z</time>
      </trkpt>
      <trkpt lat="48.53321" lon="1.96694">
        <ele>143</ele>
        <time>2011-10-23T09:46:43Z</time>
      </trkpt>
      <trkpt lat="48.53295" lon="1.96743">
        <ele>143</ele>
        <time>2011-10-23T09:46:50Z</time>
      </trkpt>
      <trkpt lat="48.53287" lon="1.96777">
        <ele>148</ele>
        <time>2011-10-23T09:46:55Z</time>
      </trkpt>
      <trkpt lat="48.53297" lon="1.96785">
        <ele>149</ele>
        <time>2011-10-23T09:46:58Z</time>
      </trkpt>
      <trkpt lat="48.53301" lon="1.96787">
        <ele>149</ele>
        <time>2011-10-23T09:46:59Z</time>
      </trkpt>
      <trkpt lat="48.53325" lon="1.96807">
        <ele>152</ele>
        <time>2011-10-23T09:47:06Z</time>
      </trkpt>
      <trkpt lat="48.53334" lon="1.96824">
        <ele>157</ele>
        <time>2011-10-23T09:47:10Z</time>
      </trkpt>
      <trkpt lat="48.53346" lon="1.96851">
        <ele>158</ele>
        <time>2011-10-23T09:47:15Z</time>
      </trkpt>
      <trkpt lat="48.53347" lon="1.96858">
        <ele>158</ele>
        <time>2011-10-23T09:47:16Z</time>
      </trkpt>
      <trkpt lat="48.53351" lon="1.96901">
        <ele>157</ele>
        <time>2011-10-23T09:47:22Z</time>
      </trkpt>
      <trkpt lat="48.53349" lon="1.96915">
        <ele>157</ele>
        <time>2011-10-23T09:47:24Z</time>
      </trkpt>
      <trkpt lat="48.53353" lon="1.96934">
        <ele>156</ele>
        <time>2011-10-23T09:47:28Z</time>
      </trkpt>
      <trkpt lat="48.53366" lon="1.96943">
        <ele>156</ele>
        <time>2011-10-23T09:47:31Z</time>
      </trkpt>
      <trkpt lat="48.53388" lon="1.96951">
        <ele>156</ele>
        <time>2011-10-23T09:47:35Z</time>
      </trkpt>
      <trkpt lat="48.53409" lon="1.96962">
        <ele>156</ele>
        <time>2011-10-23T09:47:39Z</time>
      </trkpt>
      <trkpt lat="48.53428" lon="1.96969">
        <ele>156</ele>
        <time>2011-10-23T09:47:43Z</time>
      </trkpt>
      <trkpt lat="48.53449" lon="1.96981">
        <ele>155</ele>
        <time>2011-10-23T09:47:47Z</time>
      </trkpt>
      <trkpt lat="48.53468" lon="1.96975">
        <ele>155</ele>
        <time>2011-10-23T09:47:51Z</time>
      </trkpt>
      <trkpt lat="48.53479" lon="1.96972">
        <ele>155</ele>
        <time>2011-10-23T09:47:53Z</time>
      </trkpt>
      <trkpt lat="48.53501" lon="1.96964">
        <ele>155</ele>
        <time>2011-10-23T09:47:57Z</time>
      </trkpt>
      <trkpt lat="48.53533" lon="1.96956">
        <ele>155</ele>
        <time>2011-10-23T09:48:02Z</time>
      </trkpt>
      <trkpt lat="48.53564" lon="1.9695">
        <ele>156</ele>
        <time>2011-10-23T09:48:07Z</time>
      </trkpt>
      <trkpt lat="48.53595" lon="1.9695">
        <ele>153</ele>
        <time>2011-10-23T09:48:12Z</time>
      </trkpt>
      <trkpt lat="48.53603" lon="1.96949">
        <ele>153</ele>
        <time>2011-10-23T09:48:13Z</time>
      </trkpt>
      <trkpt lat="48.53647" lon="1.9694">
        <ele>151</ele>
        <time>2011-10-23T09:48:18Z</time>
      </trkpt>
      <trkpt lat="48.53691" lon="1.96935">
        <ele>148</ele>
        <time>2011-10-23T09:48:23Z</time>
      </trkpt>
      <trkpt lat="48.53739" lon="1.96932">
        <ele>146</ele>
        <time>2011-10-23T09:48:28Z</time>
      </trkpt>
      <trkpt lat="48.53788" lon="1.96918">
        <ele>146</ele>
        <time>2011-10-23T09:48:34Z</time>
      </trkpt>
      <trkpt lat="48.53794" lon="1.96919">
        <ele>146</ele>
        <time>2011-10-23T09:48:37Z</time>
      </trkpt>
      <trkpt lat="48.53791" lon="1.96923">
        <ele>146</ele>
        <time>2011-10-23T09:48:42Z</time>
      </trkpt>
      <trkpt lat="48.5379" lon="1.96925">
        <ele>146</ele>
        <time>2011-10-23T09:48:44Z</time>
      </trkpt>
      <trkpt lat="48.53786" lon="1.96947">
        <ele>146</ele>
        <time>2011-10-23T09:48:49Z</time>
      </trkpt>
      <trkpt lat="48.53783" lon="1.96978">
        <ele>145</ele>
        <time>2011-10-23T09:48:53Z</time>
      </trkpt>
      <trkpt lat="48.53786" lon="1.97019">
        <ele>144</ele>
        <time>2011-10-23T09:48:57Z</time>
      </trkpt>
      <trkpt lat="48.53788" lon="1.97028">
        <ele>144</ele>
        <time>2011-10-23T09:48:58Z</time>
      </trkpt>
      <trkpt lat="48.538" lon="1.97085">
        <ele>142</ele>
        <time>2011-10-23T09:49:04Z</time>
      </trkpt>
      <trkpt lat="48.53807" lon="1.97127">
        <ele>142</ele>
        <time>2011-10-23T09:49:08Z</time>
      </trkpt>
      <trkpt lat="48.53806" lon="1.9716">
        <ele>142</ele>
        <time>2011-10-23T09:49:11Z</time>
      </trkpt>
      <trkpt lat="48.53788" lon="1.97217">
        <ele>142</ele>
        <time>2011-10-23T09:49:16Z</time>
      </trkpt>
      <trkpt lat="48.53769" lon="1.97269">
        <ele>141</ele>
        <time>2011-10-23T09:49:21Z</time>
      </trkpt>
      <trkpt lat="48.53752" lon="1.9732">
        <ele>140</ele>
        <time>2011-10-23T09:49:26Z</time>
      </trkpt>
      <trkpt lat="48.53748" lon="1.9733">
        <ele>139</ele>
        <time>2011-10-23T09:49:27Z</time>
      </trkpt>
      <trkpt lat="48.5374" lon="1.97382">
        <ele>139</ele>
        <time>2011-10-23T09:49:32Z</time>
      </trkpt>
      <trkpt lat="48.53738" lon="1.97391">
        <ele>138</ele>
        <time>2011-10-23T09:49:33Z</time>
      </trkpt>
      <trkpt lat="48.53721" lon="1.97423">
        <ele>138</ele>
        <time>2011-10-23T09:49:37Z</time>
      </trkpt>
      <trkpt lat="48.53694" lon="1.97459">
        <ele>137</ele>
        <time>2011-10-23T09:49:42Z</time>
      </trkpt>
      <trkpt lat="48.53665" lon="1.9751">
        <ele>133</ele>
        <time>2011-10-23T09:49:48Z</time>
      </trkpt>
      <trkpt lat="48.53656" lon="1.97526">
        <ele>133</ele>
        <time>2011-10-23T09:49:50Z</time>
      </trkpt>
      <trkpt lat="48.53644" lon="1.97561">
        <ele>132</ele>
        <time>2011-10-23T09:49:54Z</time>
      </trkpt>
      <trkpt lat="48.53613" lon="1.9762">
        <ele>129</ele>
        <time>2011-10-23T09:50:01Z</time>
      </trkpt>
      <trkpt lat="48.53594" lon="1.97653">
        <ele>126</ele>
        <time>2011-10-23T09:50:05Z</time>
      </trkpt>
      <trkpt lat="48.53554" lon="1.9769">
        <ele>120</ele>
        <time>2011-10-23T09:50:11Z</time>
      </trkpt>
      <trkpt lat="48.5354" lon="1.977">
        <ele>120</ele>
        <time>2011-10-23T09:50:13Z</time>
      </trkpt>
      <trkpt lat="48.53515" lon="1.97735">
        <ele>119</ele>
        <time>2011-10-23T09:50:18Z</time>
      </trkpt>
      <trkpt lat="48.53501" lon="1.97759">
        <ele>117</ele>
        <time>2011-10-23T09:50:21Z</time>
      </trkpt>
      <trkpt lat="48.53476" lon="1.97812">
        <ele>115</ele>
        <time>2011-10-23T09:50:27Z</time>
      </trkpt>
      <trkpt lat="48.53447" lon="1.9786">
        <ele>115</ele>
        <time>2011-10-23T09:50:33Z</time>
      </trkpt>
      <trkpt lat="48.53438" lon="1.97876">
        <ele>115</ele>
        <time>2011-10-23T09:50:35Z</time>
      </trkpt>
      <trkpt lat="48.53422" lon="1.97909">
        <ele>115</ele>
        <time>2011-10-23T09:50:39Z</time>
      </trkpt>
      <trkpt lat="48.53402" lon="1.97945">
        <ele>117</ele>
        <time>2011-10-23T09:50:44Z</time>
      </trkpt>
      <trkpt lat="48.53379" lon="1.97973">
        <ele>118</ele>
        <time>2011-10-23T09:50:49Z</time>
      </trkpt>
      <trkpt lat="48.53366" lon="1.9799">
        <ele>118</ele>
        <time>2011-10-23T09:50:52Z</time>
      </trkpt>
      <trkpt lat="48.53357" lon="1.98007">
        <ele>123</ele>
        <time>2011-10-23T09:50:55Z</time>
      </trkpt>
      <trkpt lat="48.53343" lon="1.9801">
        <ele>122</ele>
        <time>2011-10-23T09:50:59Z</time>
      </trkpt>
      <trkpt lat="48.53341" lon="1.98005">
        <ele>121</ele>
        <time>2011-10-23T09:51:00Z</time>
      </trkpt>
      <trkpt lat="48.53318" lon="1.97987">
        <ele>120</ele>
        <time>2011-10-23T09:51:06Z</time>
      </trkpt>
      <trkpt lat="48.53298" lon="1.97978">
        <ele>120</ele>
        <time>2011-10-23T09:51:11Z</time>
      </trkpt>
      <trkpt lat="48.53277" lon="1.97964">
        <ele>120</ele>
        <time>2011-10-23T09:51:15Z</time>
      </trkpt>
      <trkpt lat="48.53248" lon="1.97942">
        <ele>121</ele>
        <time>2011-10-23T09:51:20Z</time>
      </trkpt>
      <trkpt lat="48.53239" lon="1.9793">
        <ele>121</ele>
        <time>2011-10-23T09:51:22Z</time>
      </trkpt>
      <trkpt lat="48.53208" lon="1.97903">
        <ele>118</ele>
        <time>2011-10-23T09:51:27Z</time>
      </trkpt>
      <trkpt lat="48.53175" lon="1.97877">
        <ele>118</ele>
        <time>2011-10-23T09:51:33Z</time>
      </trkpt>
      <trkpt lat="48.53144" lon="1.97858">
        <ele>118</ele>
        <time>2011-10-23T09:51:38Z</time>
      </trkpt>
      <trkpt lat="48.53104" lon="1.9784">
        <ele>118</ele>
        <time>2011-10-23T09:51:44Z</time>
      </trkpt>
      <trkpt lat="48.53084" lon="1.97838">
        <ele>117</ele>
        <time>2011-10-23T09:51:48Z</time>
      </trkpt>
      <trkpt lat="48.53058" lon="1.97841">
        <ele>116</ele>
        <time>2011-10-23T09:51:54Z</time>
      </trkpt>
      <trkpt lat="48.53047" lon="1.97844">
        <ele>115</ele>
        <time>2011-10-23T09:51:56Z</time>
      </trkpt>
      <trkpt lat="48.53025" lon="1.97864">
        <ele>115</ele>
        <time>2011-10-23T09:52:00Z</time>
      </trkpt>
      <trkpt lat="48.53015" lon="1.97889">
        <ele>114</ele>
        <time>2011-10-23T09:52:04Z</time>
      </trkpt>
      <trkpt lat="48.53019" lon="1.97914">
        <ele>114</ele>
        <time>2011-10-23T09:52:08Z</time>
      </trkpt>
      <trkpt lat="48.53022" lon="1.9792">
        <ele>115</ele>
        <time>2011-10-23T09:52:09Z</time>
      </trkpt>
      <trkpt lat="48.53028" lon="1.97931">
        <ele>116</ele>
        <time>2011-10-23T09:52:11Z</time>
      </trkpt>
      <trkpt lat="48.53029" lon="1.97967">
        <ele>116</ele>
        <time>2011-10-23T09:52:15Z</time>
      </trkpt>
      <trkpt lat="48.53036" lon="1.97988">
        <ele>116</ele>
        <time>2011-10-23T09:52:18Z</time>
      </trkpt>
      <trkpt lat="48.5303" lon="1.98008">
        <ele>115</ele>
        <time>2011-10-23T09:52:21Z</time>
      </trkpt>
      <trkpt lat="48.53024" lon="1.98013">
        <ele>114</ele>
        <time>2011-10-23T09:52:22Z</time>
      </trkpt>
      <trkpt lat="48.53006" lon="1.98014">
        <ele>113</ele>
        <time>2011-10-23T09:52:27Z</time>
      </trkpt>
      <trkpt lat="48.52994" lon="1.9803">
        <ele>109</ele>
        <time>2011-10-23T09:52:30Z</time>
      </trkpt>
      <trkpt lat="48.52989" lon="1.98058">
        <ele>109</ele>
        <time>2011-10-23T09:52:33Z</time>
      </trkpt>
      <trkpt lat="48.52987" lon="1.98072">
        <ele>109</ele>
        <time>2011-10-23T09:52:35Z</time>
      </trkpt>
      <trkpt lat="48.52982" lon="1.98084">
        <ele>108</ele>
        <time>2011-10-23T09:52:37Z</time>
      </trkpt>
      <trkpt lat="48.52963" lon="1.98112">
        <ele>107</ele>
        <time>2011-10-23T09:52:42Z</time>
      </trkpt>
      <trkpt lat="48.52963" lon="1.98133">
        <ele>107</ele>
        <time>2011-10-23T09:52:46Z</time>
      </trkpt>
      <trkpt lat="48.52979" lon="1.98158">
        <ele>107</ele>
        <time>2011-10-23T09:52:51Z</time>
      </trkpt>
      <trkpt lat="48.52981" lon="1.98164">
        <ele>107</ele>
        <time>2011-10-23T09:52:52Z</time>
      </trkpt>
      <trkpt lat="48.52986" lon="1.98176">
        <ele>106</ele>
        <time>2011-10-23T09:52:54Z</time>
      </trkpt>
      <trkpt lat="48.53001" lon="1.98205">
        <ele>110</ele>
        <time>2011-10-23T09:52:59Z</time>
      </trkpt>
      <trkpt lat="48.53006" lon="1.98223">
        <ele>110</ele>
        <time>2011-10-23T09:53:02Z</time>
      </trkpt>
      <trkpt lat="48.53007" lon="1.98235">
        <ele>109</ele>
        <time>2011-10-23T09:53:04Z</time>
      </trkpt>
      <trkpt lat="48.53018" lon="1.98277">
        <ele>109</ele>
        <time>2011-10-23T09:53:10Z</time>
      </trkpt>
      <trkpt lat="48.5302" lon="1.98285">
        <ele>109</ele>
        <time>2011-10-23T09:53:11Z</time>
      </trkpt>
      <trkpt lat="48.53038" lon="1.98338">
        <ele>108</ele>
        <time>2011-10-23T09:53:17Z</time>
      </trkpt>
      <trkpt lat="48.53056" lon="1.98393">
        <ele>109</ele>
        <time>2011-10-23T09:53:23Z</time>
      </trkpt>
      <trkpt lat="48.53065" lon="1.98451">
        <ele>107</ele>
        <time>2011-10-23T09:53:29Z</time>
      </trkpt>
      <trkpt lat="48.53072" lon="1.98504">
        <ele>107</ele>
        <time>2011-10-23T09:53:35Z</time>
      </trkpt>
      <trkpt lat="48.53077" lon="1.98527">
        <ele>106</ele>
        <time>2011-10-23T09:53:38Z</time>
      </trkpt>
      <trkpt lat="48.53085" lon="1.98573">
        <ele>108</ele>
        <time>2011-10-23T09:53:44Z</time>
      </trkpt>
      <trkpt lat="48.53087" lon="1.98581">
        <ele>107</ele>
        <time>2011-10-23T09:53:45Z</time>
      </trkpt>
      <trkpt lat="48.53101" lon="1.98641">
        <ele>106</ele>
        <time>2011-10-23T09:53:53Z</time>
      </trkpt>
      <trkpt lat="48.53104" lon="1.98656">
        <ele>106</ele>
        <time>2011-10-23T09:53:55Z</time>
      </trkpt>
      <trkpt lat="48.53107" lon="1.98681">
        <ele>106</ele>
        <time>2011-10-23T09:53:58Z</time>
      </trkpt>
      <trkpt lat="48.53114" lon="1.98725">
        <ele>107</ele>
        <time>2011-10-23T09:54:03Z</time>
      </trkpt>
      <trkpt lat="48.5311" lon="1.98751">
        <ele>109</ele>
        <time>2011-10-23T09:54:07Z</time>
      </trkpt>
      <trkpt lat="48.531" lon="1.98754">
        <ele>109</ele>
        <time>2011-10-23T09:54:09Z</time>
      </trkpt>
      <trkpt lat="48.53065" lon="1.98756">
        <ele>108</ele>
        <time>2011-10-23T09:54:15Z</time>
      </trkpt>
      <trkpt lat="48.53029" lon="1.98759">
        <ele>107</ele>
        <time>2011-10-23T09:54:20Z</time>
      </trkpt>
      <trkpt lat="48.52986" lon="1.98762">
        <ele>105</ele>
        <time>2011-10-23T09:54:26Z</time>
      </trkpt>
      <trkpt lat="48.52958" lon="1.98765">
        <ele>105</ele>
        <time>2011-10-23T09:54:31Z</time>
      </trkpt>
      <trkpt lat="48.52941" lon="1.98776">
        <ele>105</ele>
        <time>2011-10-23T09:54:35Z</time>
      </trkpt>
      <trkpt lat="48.52933" lon="1.98793">
        <ele>105</ele>
        <time>2011-10-23T09:54:38Z</time>
      </trkpt>
      <trkpt lat="48.52935" lon="1.98826">
        <ele>105</ele>
        <time>2011-10-23T09:54:42Z</time>
      </trkpt>
      <trkpt lat="48.52936" lon="1.98845">
        <ele>106</ele>
        <time>2011-10-23T09:54:44Z</time>
      </trkpt>
      <trkpt lat="48.52939" lon="1.98902">
        <ele>106</ele>
        <time>2011-10-23T09:54:50Z</time>
      </trkpt>
      <trkpt lat="48.52945" lon="1.98949">
        <ele>107</ele>
        <time>2011-10-23T09:54:55Z</time>
      </trkpt>
      <trkpt lat="48.52958" lon="1.99004">
        <ele>107</ele>
        <time>2011-10-23T09:55:01Z</time>
      </trkpt>
      <trkpt lat="48.52959" lon="1.99023">
        <ele>107</ele>
        <time>2011-10-23T09:55:03Z</time>
      </trkpt>
      <trkpt lat="48.52954" lon="1.99091">
        <ele>106</ele>
        <time>2011-10-23T09:55:10Z</time>
      </trkpt>
      <trkpt lat="48.52951" lon="1.99149">
        <ele>105</ele>
        <time>2011-10-23T09:55:16Z</time>
      </trkpt>
      <trkpt lat="48.52956" lon="1.99213">
        <ele>104</ele>
        <time>2011-10-23T09:55:23Z</time>
      </trkpt>
      <trkpt lat="48.52969" lon="1.99255">
        <ele>102</ele>
        <time>2011-10-23T09:55:28Z</time>
      </trkpt>
      <trkpt lat="48.52975" lon="1.99279">
        <ele>102</ele>
        <time>2011-10-23T09:55:31Z</time>
      </trkpt>
      <trkpt lat="48.52966" lon="1.99294">
        <ele>101</ele>
        <time>2011-10-23T09:55:35Z</time>
      </trkpt>
      <trkpt lat="48.52955" lon="1.9929">
        <ele>101</ele>
        <time>2011-10-23T09:55:38Z</time>
      </trkpt>
      <trkpt lat="48.52918" lon="1.99269">
        <ele>102</ele>
        <time>2011-10-23T09:55:48Z</time>
      </trkpt>
      <trkpt lat="48.52896" lon="1.99272">
        <ele>103</ele>
        <time>2011-10-23T09:55:54Z</time>
      </trkpt>
      <trkpt lat="48.5288" lon="1.99277">
        <ele>103</ele>
        <time>2011-10-23T09:55:59Z</time>
      </trkpt>
      <trkpt lat="48.5287" lon="1.99275">
        <ele>103</ele>
        <time>2011-10-23T09:56:03Z</time>
      </trkpt>
      <trkpt lat="48.52867" lon="1.99274">
        <ele>103</ele>
        <time>2011-10-23T09:56:04Z</time>
      </trkpt>
      <trkpt lat="48.52854" lon="1.99248">
        <ele>105</ele>
        <time>2011-10-23T09:56:10Z</time>
      </trkpt>
      <trkpt lat="48.52832" lon="1.99201">
        <ele>108</ele>
        <time>2011-10-23T09:56:19Z</time>
      </trkpt>
      <trkpt lat="48.52815" lon="1.99154">
        <ele>108</ele>
        <time>2011-10-23T09:56:27Z</time>
      </trkpt>
      <trkpt lat="48.52811" lon="1.99117">
        <ele>109</ele>
        <time>2011-10-23T09:56:32Z</time>
      </trkpt>
      <trkpt lat="48.52809" lon="1.9907">
        <ele>108</ele>
        <time>2011-10-23T09:56:38Z</time>
      </trkpt>
      <trkpt lat="48.52807" lon="1.99016">
        <ele>108</ele>
        <time>2011-10-23T09:56:45Z</time>
      </trkpt>
      <trkpt lat="48.52805" lon="1.9895">
        <ele>107</ele>
        <time>2011-10-23T09:56:53Z</time>
      </trkpt>
      <trkpt lat="48.52802" lon="1.98889">
        <ele>107</ele>
        <time>2011-10-23T09:57:00Z</time>
      </trkpt>
      <trkpt lat="48.52797" lon="1.98839">
        <ele>107</ele>
        <time>2011-10-23T09:57:06Z</time>
      </trkpt>
      <trkpt lat="48.52795" lon="1.98791">
        <ele>109</ele>
        <time>2011-10-23T09:57:12Z</time>
      </trkpt>
      <trkpt lat="48.52794" lon="1.98785">
        <ele>109</ele>
        <time>2011-10-23T09:57:13Z</time>
      </trkpt>
      <trkpt lat="48.52782" lon="1.9878">
        <ele>110</ele>
        <time>2011-10-23T09:57:17Z</time>
      </trkpt>
      <trkpt lat="48.52766" lon="1.98776">
        <ele>111</ele>
        <time>2011-10-23T09:57:22Z</time>
      </trkpt>
      <trkpt lat="48.52765" lon="1.98771">
        <ele>111</ele>
        <time>2011-10-23T09:57:23Z</time>
      </trkpt>
      <trkpt lat="48.5276" lon="1.98739">
        <ele>113</ele>
        <time>2011-10-23T09:57:29Z</time>
      </trkpt>
      <trkpt lat="48.52755" lon="1.98714">
        <ele>112</ele>
        <time>2011-10-23T09:57:33Z</time>
      </trkpt>
      <trkpt lat="48.52752" lon="1.98701">
        <ele>112</ele>
        <time>2011-10-23T09:57:35Z</time>
      </trkpt>
      <trkpt lat="48.52747" lon="1.98669">
        <ele>117</ele>
        <time>2011-10-23T09:57:40Z</time>
      </trkpt>
      <trkpt lat="48.52736" lon="1.98647">
        <ele>118</ele>
        <time>2011-10-23T09:57:44Z</time>
      </trkpt>
      <trkpt lat="48.5272" lon="1.98619">
        <ele>119</ele>
        <time>2011-10-23T09:57:50Z</time>
      </trkpt>
      <trkpt lat="48.52709" lon="1.986">
        <ele>119</ele>
        <time>2011-10-23T09:57:54Z</time>
      </trkpt>
      <trkpt lat="48.52693" lon="1.98574">
        <ele>117</ele>
        <time>2011-10-23T09:57:59Z</time>
      </trkpt>
      <trkpt lat="48.52674" lon="1.98559">
        <ele>117</ele>
        <time>2011-10-23T09:58:04Z</time>
      </trkpt>
      <trkpt lat="48.52656" lon="1.98559">
        <ele>121</ele>
        <time>2011-10-23T09:58:09Z</time>
      </trkpt>
      <trkpt lat="48.52627" lon="1.98564">
        <ele>121</ele>
        <time>2011-10-23T09:58:18Z</time>
      </trkpt>
      <trkpt lat="48.5261" lon="1.98567">
        <ele>122</ele>
        <time>2011-10-23T09:58:24Z</time>
      </trkpt>
      <trkpt lat="48.52599" lon="1.98568">
        <ele>123</ele>
        <time>2011-10-23T09:58:29Z</time>
      </trkpt>
      <trkpt lat="48.52585" lon="1.98573">
        <ele>125</ele>
        <time>2011-10-23T09:58:35Z</time>
      </trkpt>
      <trkpt lat="48.52572" lon="1.9858">
        <ele>126</ele>
        <time>2011-10-23T09:58:42Z</time>
      </trkpt>
      <trkpt lat="48.52562" lon="1.98593">
        <ele>130</ele>
        <time>2011-10-23T09:58:49Z</time>
      </trkpt>
      <trkpt lat="48.52549" lon="1.98604">
        <ele>132</ele>
        <time>2011-10-23T09:58:56Z</time>
      </trkpt>
      <trkpt lat="48.52539" lon="1.9861">
        <ele>132</ele>
        <time>2011-10-23T09:59:02Z</time>
      </trkpt>
      <trkpt lat="48.52526" lon="1.98621">
        <ele>133</ele>
        <time>2011-10-23T09:59:07Z</time>
      </trkpt>
      <trkpt lat="48.52509" lon="1.98628">
        <ele>134</ele>
        <time>2011-10-23T09:59:14Z</time>
      </trkpt>
      <trkpt lat="48.52497" lon="1.98626">
        <ele>136</ele>
        <time>2011-10-23T09:59:20Z</time>
      </trkpt>
      <trkpt lat="48.52492" lon="1.98621">
        <ele>135</ele>
        <time>2011-10-23T09:59:24Z</time>
      </trkpt>
      <trkpt lat="48.52481" lon="1.98619">
        <ele>135</ele>
        <time>2011-10-23T09:59:31Z</time>
      </trkpt>
      <trkpt lat="48.52469" lon="1.98619">
        <ele>136</ele>
        <time>2011-10-23T09:59:38Z</time>
      </trkpt>
      <trkpt lat="48.52459" lon="1.98622">
        <ele>136</ele>
        <time>2011-10-23T09:59:45Z</time>
      </trkpt>
      <trkpt lat="48.52452" lon="1.98632">
        <ele>136</ele>
        <time>2011-10-23T09:59:51Z</time>
      </trkpt>
      <trkpt lat="48.52445" lon="1.98648">
        <ele>137</ele>
        <time>2011-10-23T09:59:57Z</time>
      </trkpt>
      <trkpt lat="48.52442" lon="1.9867">
        <ele>140</ele>
        <time>2011-10-23T10:00:05Z</time>
      </trkpt>
      <trkpt lat="48.5244" lon="1.98677">
        <ele>140</ele>
        <time>2011-10-23T10:00:07Z</time>
      </trkpt>
      <trkpt lat="48.52425" lon="1.98682">
        <ele>140</ele>
        <time>2011-10-23T10:00:12Z</time>
      </trkpt>
      <trkpt lat="48.52415" lon="1.98685">
        <ele>140</ele>
        <time>2011-10-23T10:00:14Z</time>
      </trkpt>
      <trkpt lat="48.52396" lon="1.98695">
        <ele>140</ele>
        <time>2011-10-23T10:00:18Z</time>
      </trkpt>
      <trkpt lat="48.52382" lon="1.98711">
        <ele>140</ele>
        <time>2011-10-23T10:00:22Z</time>
      </trkpt>
      <trkpt lat="48.52375" lon="1.98726">
        <ele>140</ele>
        <time>2011-10-23T10:00:25Z</time>
      </trkpt>
      <trkpt lat="48.5237" lon="1.98733">
        <ele>140</ele>
        <time>2011-10-23T10:00:27Z</time>
      </trkpt>
      <trkpt lat="48.52367" lon="1.98761">
        <ele>140</ele>
        <time>2011-10-23T10:00:32Z</time>
      </trkpt>
      <trkpt lat="48.52364" lon="1.98787">
        <ele>140</ele>
        <time>2011-10-23T10:00:37Z</time>
      </trkpt>
      <trkpt lat="48.52356" lon="1.98801">
        <ele>141</ele>
        <time>2011-10-23T10:00:41Z</time>
      </trkpt>
      <trkpt lat="48.52343" lon="1.98805">
        <ele>141</ele>
        <time>2011-10-23T10:00:45Z</time>
      </trkpt>
      <trkpt lat="48.52323" lon="1.98816">
        <ele>144</ele>
        <time>2011-10-23T10:00:51Z</time>
      </trkpt>
      <trkpt lat="48.52308" lon="1.9883">
        <ele>145</ele>
        <time>2011-10-23T10:00:56Z</time>
      </trkpt>
      <trkpt lat="48.52299" lon="1.98852">
        <ele>145</ele>
        <time>2011-10-23T10:01:00Z</time>
      </trkpt>
      <trkpt lat="48.52291" lon="1.98877">
        <ele>145</ele>
        <time>2011-10-23T10:01:04Z</time>
      </trkpt>
      <trkpt lat="48.52287" lon="1.98896">
        <ele>145</ele>
        <time>2011-10-23T10:01:07Z</time>
      </trkpt>
      <trkpt lat="48.52283" lon="1.98924">
        <ele>143</ele>
        <time>2011-10-23T10:01:11Z</time>
      </trkpt>
      <trkpt lat="48.52283" lon="1.98957">
        <ele>142</ele>
        <time>2011-10-23T10:01:15Z</time>
      </trkpt>
      <trkpt lat="48.52281" lon="1.99006">
        <ele>140</ele>
        <time>2011-10-23T10:01:20Z</time>
      </trkpt>
      <trkpt lat="48.52266" lon="1.99043">
        <ele>139</ele>
        <time>2011-10-23T10:01:24Z</time>
      </trkpt>
      <trkpt lat="48.52261" lon="1.99049">
        <ele>139</ele>
        <time>2011-10-23T10:01:25Z</time>
      </trkpt>
      <trkpt lat="48.52246" lon="1.99066">
        <ele>139</ele>
        <time>2011-10-23T10:01:28Z</time>
      </trkpt>
      <trkpt lat="48.5223" lon="1.99077">
        <ele>139</ele>
        <time>2011-10-23T10:01:31Z</time>
      </trkpt>
      <trkpt lat="48.52212" lon="1.99075">
        <ele>138</ele>
        <time>2011-10-23T10:01:35Z</time>
      </trkpt>
      <trkpt lat="48.52203" lon="1.99067">
        <ele>138</ele>
        <time>2011-10-23T10:01:37Z</time>
      </trkpt>
      <trkpt lat="48.52186" lon="1.99038">
        <ele>138</ele>
        <time>2011-10-23T10:01:42Z</time>
      </trkpt>
      <trkpt lat="48.52174" lon="1.99022">
        <ele>138</ele>
        <time>2011-10-23T10:01:45Z</time>
      </trkpt>
      <trkpt lat="48.52166" lon="1.99005">
        <ele>138</ele>
        <time>2011-10-23T10:01:48Z</time>
      </trkpt>
      <trkpt lat="48.52155" lon="1.98984">
        <ele>140</ele>
        <time>2011-10-23T10:01:52Z</time>
      </trkpt>
      <trkpt lat="48.52139" lon="1.98964">
        <ele>141</ele>
        <time>2011-10-23T10:01:57Z</time>
      </trkpt>
      <trkpt lat="48.5213" lon="1.98955">
        <ele>142</ele>
        <time>2011-10-23T10:02:00Z</time>
      </trkpt>
      <trkpt lat="48.52119" lon="1.98942">
        <ele>142</ele>
        <time>2011-10-23T10:02:04Z</time>
      </trkpt>
      <trkpt lat="48.52103" lon="1.98927">
        <ele>142</ele>
        <time>2011-10-23T10:02:10Z</time>
      </trkpt>
      <trkpt lat="48.52095" lon="1.98915">
        <ele>144</ele>
        <time>2011-10-23T10:02:14Z</time>
      </trkpt>
      <trkpt lat="48.52084" lon="1.98907">
        <ele>144</ele>
        <time>2011-10-23T10:02:18Z</time>
      </trkpt>
      <trkpt lat="48.52069" lon="1.98891">
        <ele>147</ele>
        <time>2011-10-23T10:02:24Z</time>
      </trkpt>
      <trkpt lat="48.52055" lon="1.9888">
        <ele>148</ele>
        <time>2011-10-23T10:02:29Z</time>
      </trkpt>
      <trkpt lat="48.52038" lon="1.98866">
        <ele>148</ele>
        <time>2011-10-23T10:02:35Z</time>
      </trkpt>
      <trkpt lat="48.5202" lon="1.98845">
        <ele>149</ele>
        <time>2011-10-23T10:02:42Z</time>
      </trkpt>
      <trkpt lat="48.52003" lon="1.98823">
        <ele>150</ele>
        <time>2011-10-23T10:02:49Z</time>
      </trkpt>
      <trkpt lat="48.51988" lon="1.98802">
        <ele>149</ele>
        <time>2011-10-23T10:02:55Z</time>
      </trkpt>
      <trkpt lat="48.51989" lon="1.98772">
        <ele>149</ele>
        <time>2011-10-23T10:03:01Z</time>
      </trkpt>
      <trkpt lat="48.51997" lon="1.98752">
        <ele>151</ele>
        <time>2011-10-23T10:03:06Z</time>
      </trkpt>
      <trkpt lat="48.52013" lon="1.98717">
        <ele>155</ele>
        <time>2011-10-23T10:03:14Z</time>
      </trkpt>
      <trkpt lat="48.5202" lon="1.98694">
        <ele>155</ele>
        <time>2011-10-23T10:03:19Z</time>
      </trkpt>
      <trkpt lat="48.52021" lon="1.98673">
        <ele>156</ele>
        <time>2011-10-23T10:03:24Z</time>
      </trkpt>
      <trkpt lat="48.52024" lon="1.98645">
        <ele>157</ele>
        <time>2011-10-23T10:03:29Z</time>
      </trkpt>
      <trkpt lat="48.52022" lon="1.98624">
        <ele>158</ele>
        <time>2011-10-23T10:03:33Z</time>
      </trkpt>
      <trkpt lat="48.52014" lon="1.98608">
        <ele>158</ele>
        <time>2011-10-23T10:03:37Z</time>
      </trkpt>
      <trkpt lat="48.52" lon="1.98609">
        <ele>157</ele>
        <time>2011-10-23T10:03:40Z</time>
      </trkpt>
      <trkpt lat="48.51972" lon="1.98634">
        <ele>156</ele>
        <time>2011-10-23T10:03:44Z</time>
      </trkpt>
      <trkpt lat="48.51956" lon="1.98646">
        <ele>156</ele>
        <time>2011-10-23T10:03:46Z</time>
      </trkpt>
      <trkpt lat="48.5193" lon="1.98685">
        <ele>151</ele>
        <time>2011-10-23T10:03:50Z</time>
      </trkpt>
      <trkpt lat="48.51915" lon="1.98727">
        <ele>147</ele>
        <time>2011-10-23T10:03:53Z</time>
      </trkpt>
      <trkpt lat="48.51886" lon="1.98775">
        <ele>143</ele>
        <time>2011-10-23T10:03:57Z</time>
      </trkpt>
      <trkpt lat="48.51854" lon="1.98804">
        <ele>141</ele>
        <time>2011-10-23T10:04:01Z</time>
      </trkpt>
      <trkpt lat="48.51809" lon="1.98817">
        <ele>135</ele>
        <time>2011-10-23T10:04:06Z</time>
      </trkpt>
      <trkpt lat="48.51776" lon="1.98831">
        <ele>132</ele>
        <time>2011-10-23T10:04:10Z</time>
      </trkpt>
      <trkpt lat="48.51757" lon="1.98835">
        <ele>129</ele>
        <time>2011-10-23T10:04:14Z</time>
      </trkpt>
      <trkpt lat="48.51752" lon="1.98836">
        <ele>129</ele>
        <time>2011-10-23T10:04:18Z</time>
      </trkpt>
      <trkpt lat="48.51744" lon="1.98841">
        <ele>127</ele>
        <time>2011-10-23T10:04:24Z</time>
      </trkpt>
      <trkpt lat="48.51732" lon="1.98845">
        <ele>126</ele>
        <time>2011-10-23T10:04:28Z</time>
      </trkpt>
      <trkpt lat="48.51722" lon="1.98846">
        <ele>126</ele>
        <time>2011-10-23T10:04:33Z</time>
      </trkpt>
      <trkpt lat="48.51715" lon="1.98849">
        <ele>125</ele>
        <time>2011-10-23T10:04:37Z</time>
      </trkpt>
      <trkpt lat="48.51704" lon="1.98859">
        <ele>125</ele>
        <time>2011-10-23T10:04:42Z</time>
      </trkpt>
      <trkpt lat="48.51701" lon="1.98875">
        <ele>125</ele>
        <time>2011-10-23T10:04:45Z</time>
      </trkpt>
      <trkpt lat="48.51702" lon="1.98881">
        <ele>125</ele>
        <time>2011-10-23T10:04:46Z</time>
      </trkpt>
      <trkpt lat="48.5171" lon="1.9891">
        <ele>125</ele>
        <time>2011-10-23T10:04:51Z</time>
      </trkpt>
      <trkpt lat="48.51726" lon="1.9895">
        <ele>125</ele>
        <time>2011-10-23T10:04:58Z</time>
      </trkpt>
      <trkpt lat="48.51731" lon="1.98992">
        <ele>126</ele>
        <time>2011-10-23T10:05:04Z</time>
      </trkpt>
      <trkpt lat="48.51736" lon="1.99031">
        <ele>125</ele>
        <time>2011-10-23T10:05:09Z</time>
      </trkpt>
      <trkpt lat="48.51737" lon="1.99039">
        <ele>125</ele>
        <time>2011-10-23T10:05:10Z</time>
      </trkpt>
      <trkpt lat="48.51742" lon="1.99091">
        <ele>123</ele>
        <time>2011-10-23T10:05:16Z</time>
      </trkpt>
      <trkpt lat="48.51746" lon="1.99126">
        <ele>122</ele>
        <time>2011-10-23T10:05:20Z</time>
      </trkpt>
      <trkpt lat="48.51748" lon="1.99163">
        <ele>123</ele>
        <time>2011-10-23T10:05:24Z</time>
      </trkpt>
      <trkpt lat="48.51747" lon="1.99194">
        <ele>119</ele>
        <time>2011-10-23T10:05:27Z</time>
      </trkpt>
      <trkpt lat="48.51733" lon="1.99227">
        <ele>117</ele>
        <time>2011-10-23T10:05:31Z</time>
      </trkpt>
      <trkpt lat="48.51712" lon="1.99249">
        <ele>116</ele>
        <time>2011-10-23T10:05:35Z</time>
      </trkpt>
      <trkpt lat="48.51697" lon="1.99238">
        <ele>115</ele>
        <time>2011-10-23T10:05:39Z</time>
      </trkpt>
      <trkpt lat="48.51665" lon="1.9917">
        <ele>113</ele>
        <time>2011-10-23T10:05:49Z</time>
      </trkpt>
      <trkpt lat="48.51658" lon="1.99159">
        <ele>114</ele>
        <time>2011-10-23T10:05:51Z</time>
      </trkpt>
      <trkpt lat="48.51635" lon="1.99131">
        <ele>116</ele>
        <time>2011-10-23T10:05:57Z</time>
      </trkpt>
      <trkpt lat="48.5162" lon="1.99136">
        <ele>117</ele>
        <time>2011-10-23T10:06:01Z</time>
      </trkpt>
      <trkpt lat="48.51617" lon="1.99142">
        <ele>117</ele>
        <time>2011-10-23T10:06:02Z</time>
      </trkpt>
      <trkpt lat="48.51608" lon="1.99159">
        <ele>117</ele>
        <time>2011-10-23T10:06:05Z</time>
      </trkpt>
      <trkpt lat="48.51602" lon="1.99173">
        <ele>117</ele>
        <time>2011-10-23T10:06:08Z</time>
      </trkpt>
      <trkpt lat="48.51591" lon="1.99185">
        <ele>117</ele>
        <time>2011-10-23T10:06:12Z</time>
      </trkpt>
      <trkpt lat="48.51574" lon="1.9919">
        <ele>122</ele>
        <time>2011-10-23T10:06:17Z</time>
      </trkpt>
      <trkpt lat="48.51556" lon="1.99194">
        <ele>123</ele>
        <time>2011-10-23T10:06:21Z</time>
      </trkpt>
      <trkpt lat="48.51547" lon="1.99196">
        <ele>123</ele>
        <time>2011-10-23T10:06:23Z</time>
      </trkpt>
      <trkpt lat="48.51523" lon="1.99186">
        <ele>125</ele>
        <time>2011-10-23T10:06:29Z</time>
      </trkpt>
      <trkpt lat="48.51511" lon="1.99182">
        <ele>125</ele>
        <time>2011-10-23T10:06:32Z</time>
      </trkpt>
      <trkpt lat="48.51492" lon="1.99187">
        <ele>129</ele>
        <time>2011-10-23T10:06:38Z</time>
      </trkpt>
      <trkpt lat="48.51491" lon="1.99201">
        <ele>130</ele>
        <time>2011-10-23T10:06:40Z</time>
      </trkpt>
      <trkpt lat="48.51486" lon="1.99262">
        <ele>130</ele>
        <time>2011-10-23T10:06:47Z</time>
      </trkpt>
      <trkpt lat="48.51485" lon="1.99294">
        <ele>130</ele>
        <time>2011-10-23T10:06:51Z</time>
      </trkpt>
      <trkpt lat="48.51486" lon="1.99345">
        <ele>128</ele>
        <time>2011-10-23T10:06:57Z</time>
      </trkpt>
      <trkpt lat="48.51485" lon="1.99393">
        <ele>128</ele>
        <time>2011-10-23T10:07:04Z</time>
      </trkpt>
      <trkpt lat="48.51484" lon="1.99401">
        <ele>127</ele>
        <time>2011-10-23T10:07:05Z</time>
      </trkpt>
      <trkpt lat="48.51483" lon="1.9942">
        <ele>127</ele>
        <time>2011-10-23T10:07:08Z</time>
      </trkpt>
      <trkpt lat="48.51479" lon="1.99455">
        <ele>128</ele>
        <time>2011-10-23T10:07:13Z</time>
      </trkpt>
      <trkpt lat="48.51472" lon="1.99491">
        <ele>128</ele>
        <time>2011-10-23T10:07:18Z</time>
      </trkpt>
      <trkpt lat="48.51471" lon="1.995">
        <ele>128</ele>
        <time>2011-10-23T10:07:19Z</time>
      </trkpt>
      <trkpt lat="48.51465" lon="1.9956">
        <ele>128</ele>
        <time>2011-10-23T10:07:26Z</time>
      </trkpt>
      <trkpt lat="48.51456" lon="1.99609">
        <ele>127</ele>
        <time>2011-10-23T10:07:32Z</time>
      </trkpt>
      <trkpt lat="48.51444" lon="1.99669">
        <ele>126</ele>
        <time>2011-10-23T10:07:39Z</time>
      </trkpt>
      <trkpt lat="48.5144" lon="1.99699">
        <ele>126</ele>
        <time>2011-10-23T10:07:43Z</time>
      </trkpt>
      <trkpt lat="48.51439" lon="1.99712">
        <ele>125</ele>
        <time>2011-10-23T10:07:45Z</time>
      </trkpt>
      <trkpt lat="48.51432" lon="1.99726">
        <ele>126</ele>
        <time>2011-10-23T10:07:49Z</time>
      </trkpt>
      <trkpt lat="48.51423" lon="1.99728">
        <ele>126</ele>
        <time>2011-10-23T10:07:52Z</time>
      </trkpt>
      <trkpt lat="48.51402" lon="1.99724">
        <ele>125</ele>
        <time>2011-10-23T10:07:58Z</time>
      </trkpt>
      <trkpt lat="48.51378" lon="1.99721">
        <ele>125</ele>
        <time>2011-10-23T10:08:04Z</time>
      </trkpt>
      <trkpt lat="48.5136" lon="1.99724">
        <ele>124</ele>
        <time>2011-10-23T10:08:08Z</time>
      </trkpt>
      <trkpt lat="48.51337" lon="1.99724">
        <ele>123</ele>
        <time>2011-10-23T10:08:13Z</time>
      </trkpt>
      <trkpt lat="48.5131" lon="1.99717">
        <ele>119</ele>
        <time>2011-10-23T10:08:18Z</time>
      </trkpt>
      <trkpt lat="48.5129" lon="1.99709">
        <ele>117</ele>
        <time>2011-10-23T10:08:21Z</time>
      </trkpt>
      <trkpt lat="48.51269" lon="1.99715">
        <ele>116</ele>
        <time>2011-10-23T10:08:25Z</time>
      </trkpt>
      <trkpt lat="48.5125" lon="1.99727">
        <ele>111</ele>
        <time>2011-10-23T10:08:28Z</time>
      </trkpt>
      <trkpt lat="48.51243" lon="1.99733">
        <ele>112</ele>
        <time>2011-10-23T10:08:29Z</time>
      </trkpt>
      <trkpt lat="48.5123" lon="1.99743">
        <ele>111</ele>
        <time>2011-10-23T10:08:31Z</time>
      </trkpt>
      <trkpt lat="48.51219" lon="1.99758">
        <ele>113</ele>
        <time>2011-10-23T10:08:33Z</time>
      </trkpt>
      <trkpt lat="48.51206" lon="1.99769">
        <ele>113</ele>
        <time>2011-10-23T10:08:37Z</time>
      </trkpt>
      <trkpt lat="48.512" lon="1.99771">
        <ele>113</ele>
        <time>2011-10-23T10:08:39Z</time>
      </trkpt>
      <trkpt lat="48.51183" lon="1.99787">
        <ele>113</ele>
        <time>2011-10-23T10:08:46Z</time>
      </trkpt>
      <trkpt lat="48.51171" lon="1.99803">
        <ele>114</ele>
        <time>2011-10-23T10:08:51Z</time>
      </trkpt>
      <trkpt lat="48.51159" lon="1.9982">
        <ele>114</ele>
        <time>2011-10-23T10:08:57Z</time>
      </trkpt>
      <trkpt lat="48.51149" lon="1.99827">
        <ele>114</ele>
        <time>2011-10-23T10:09:02Z</time>
      </trkpt>
      <trkpt lat="48.51139" lon="1.99837">
        <ele>118</ele>
        <time>2011-10-23T10:09:07Z</time>
      </trkpt>
      <trkpt lat="48.51129" lon="1.99846">
        <ele>119</ele>
        <time>2011-10-23T10:09:13Z</time>
      </trkpt>
      <trkpt lat="48.51116" lon="1.99858">
        <ele>120</ele>
        <time>2011-10-23T10:09:20Z</time>
      </trkpt>
      <trkpt lat="48.51105" lon="1.99871">
        <ele>121</ele>
        <time>2011-10-23T10:09:27Z</time>
      </trkpt>
      <trkpt lat="48.51095" lon="1.99886">
        <ele>122</ele>
        <time>2011-10-23T10:09:33Z</time>
      </trkpt>
      <trkpt lat="48.51088" lon="1.99899">
        <ele>124</ele>
        <time>2011-10-23T10:09:39Z</time>
      </trkpt>
      <trkpt lat="48.51081" lon="1.9991">
        <ele>128</ele>
        <time>2011-10-23T10:09:46Z</time>
      </trkpt>
      <trkpt lat="48.51071" lon="1.99932">
        <ele>132</ele>
        <time>2011-10-23T10:09:54Z</time>
      </trkpt>
      <trkpt lat="48.51062" lon="1.99943">
        <ele>134</ele>
        <time>2011-10-23T10:10:01Z</time>
      </trkpt>
      <trkpt lat="48.51052" lon="1.99945">
        <ele>135</ele>
        <time>2011-10-23T10:10:08Z</time>
      </trkpt>
      <trkpt lat="48.51044" lon="1.9994">
        <ele>135</ele>
        <time>2011-10-23T10:10:15Z</time>
      </trkpt>
      <trkpt lat="48.51036" lon="1.99935">
        <ele>135</ele>
        <time>2011-10-23T10:10:21Z</time>
      </trkpt>
      <trkpt lat="48.51032" lon="1.99935">
        <ele>135</ele>
        <time>2011-10-23T10:10:24Z</time>
      </trkpt>
      <trkpt lat="48.51026" lon="1.99937">
        <ele>136</ele>
        <time>2011-10-23T10:10:29Z</time>
      </trkpt>
      <trkpt lat="48.51021" lon="1.99943">
        <ele>136</ele>
        <time>2011-10-23T10:10:34Z</time>
      </trkpt>
      <trkpt lat="48.51019" lon="1.99946">
        <ele>136</ele>
        <time>2011-10-23T10:10:38Z</time>
      </trkpt>
      <trkpt lat="48.51014" lon="1.9995">
        <ele>137</ele>
        <time>2011-10-23T10:10:44Z</time>
      </trkpt>
      <trkpt lat="48.51006" lon="1.99958">
        <ele>137</ele>
        <time>2011-10-23T10:10:49Z</time>
      </trkpt>
      <trkpt lat="48.51003" lon="1.99962">
        <ele>137</ele>
        <time>2011-10-23T10:10:51Z</time>
      </trkpt>
      <trkpt lat="48.50997" lon="1.99974">
        <ele>143</ele>
        <time>2011-10-23T10:10:58Z</time>
      </trkpt>
      <trkpt lat="48.50995" lon="1.99977">
        <ele>143</ele>
        <time>2011-10-23T10:11:04Z</time>
      </trkpt>
      <trkpt lat="48.50991" lon="1.99981">
        <ele>143</ele>
        <time>2011-10-23T10:11:22Z</time>
      </trkpt>
      <trkpt lat="48.50988" lon="1.99989">
        <ele>144</ele>
        <time>2011-10-23T10:11:26Z</time>
      </trkpt>
      <trkpt lat="48.50979" lon="2.00003">
        <ele>146</ele>
        <time>2011-10-23T10:11:35Z</time>
      </trkpt>
      <trkpt lat="48.5097" lon="2.00005">
        <ele>147</ele>
        <time>2011-10-23T10:11:42Z</time>
      </trkpt>
      <trkpt lat="48.50966" lon="2.00006">
        <ele>147</ele>
        <time>2011-10-23T10:11:46Z</time>
      </trkpt>
      <trkpt lat="48.50955" lon="2.00011">
        <ele>148</ele>
        <time>2011-10-23T10:11:53Z</time>
      </trkpt>
      <trkpt lat="48.5094" lon="2.00012">
        <ele>150</ele>
        <time>2011-10-23T10:11:59Z</time>
      </trkpt>
      <trkpt lat="48.50923" lon="2.00017">
        <ele>151</ele>
        <time>2011-10-23T10:12:05Z</time>
      </trkpt>
      <trkpt lat="48.50908" lon="2.00022">
        <ele>154</ele>
        <time>2011-10-23T10:12:10Z</time>
      </trkpt>
      <trkpt lat="48.50894" lon="2.00023">
        <ele>154</ele>
        <time>2011-10-23T10:12:16Z</time>
      </trkpt>
      <trkpt lat="48.50883" lon="2.00029">
        <ele>154</ele>
        <time>2011-10-23T10:12:21Z</time>
      </trkpt>
      <trkpt lat="48.50862" lon="2.00039">
        <ele>154</ele>
        <time>2011-10-23T10:12:29Z</time>
      </trkpt>
      <trkpt lat="48.50849" lon="2.00048">
        <ele>155</ele>
        <time>2011-10-23T10:12:34Z</time>
      </trkpt>
      <trkpt lat="48.50844" lon="2.00067">
        <ele>156</ele>
        <time>2011-10-23T10:12:38Z</time>
      </trkpt>
      <trkpt lat="48.50855" lon="2.00092">
        <ele>156</ele>
        <time>2011-10-23T10:12:43Z</time>
      </trkpt>
      <trkpt lat="48.50858" lon="2.00098">
        <ele>156</ele>
        <time>2011-10-23T10:12:44Z</time>
      </trkpt>
      <trkpt lat="48.50875" lon="2.00123">
        <ele>155</ele>
        <time>2011-10-23T10:12:51Z</time>
      </trkpt>
      <trkpt lat="48.50885" lon="2.00143">
        <ele>154</ele>
        <time>2011-10-23T10:12:55Z</time>
      </trkpt>
      <trkpt lat="48.50895" lon="2.00164">
        <ele>153</ele>
        <time>2011-10-23T10:12:58Z</time>
      </trkpt>
      <trkpt lat="48.50905" lon="2.00178">
        <ele>152</ele>
        <time>2011-10-23T10:13:00Z</time>
      </trkpt>
      <trkpt lat="48.50933" lon="2.00208">
        <ele>147</ele>
        <time>2011-10-23T10:13:04Z</time>
      </trkpt>
      <trkpt lat="48.50955" lon="2.00231">
        <ele>146</ele>
        <time>2011-10-23T10:13:09Z</time>
      </trkpt>
      <trkpt lat="48.50966" lon="2.0024">
        <ele>145</ele>
        <time>2011-10-23T10:13:13Z</time>
      </trkpt>
      <trkpt lat="48.50979" lon="2.00255">
        <ele>147</ele>
        <time>2011-10-23T10:13:20Z</time>
      </trkpt>
      <trkpt lat="48.50992" lon="2.00268">
        <ele>147</ele>
        <time>2011-10-23T10:13:26Z</time>
      </trkpt>
      <trkpt lat="48.51001" lon="2.00281">
        <ele>144</ele>
        <time>2011-10-23T10:13:31Z</time>
      </trkpt>
      <trkpt lat="48.51013" lon="2.00301">
        <ele>145</ele>
        <time>2011-10-23T10:13:35Z</time>
      </trkpt>
      <trkpt lat="48.51027" lon="2.00316">
        <ele>145</ele>
        <time>2011-10-23T10:13:38Z</time>
      </trkpt>
      <trkpt lat="48.51032" lon="2.00322">
        <ele>145</ele>
        <time>2011-10-23T10:13:41Z</time>
      </trkpt>
      <trkpt lat="48.51038" lon="2.00334">
        <ele>149</ele>
        <time>2011-10-23T10:13:47Z</time>
      </trkpt>
      <trkpt lat="48.51041" lon="2.00343">
        <ele>149</ele>
        <time>2011-10-23T10:13:53Z</time>
      </trkpt>
      <trkpt lat="48.51035" lon="2.00356">
        <ele>150</ele>
        <time>2011-10-23T10:14:01Z</time>
      </trkpt>
      <trkpt lat="48.51039" lon="2.00359">
        <ele>150</ele>
        <time>2011-10-23T10:14:09Z</time>
      </trkpt>
      <trkpt lat="48.51057" lon="2.00366">
        <ele>149</ele>
        <time>2011-10-23T10:14:16Z</time>
      </trkpt>
      <trkpt lat="48.51074" lon="2.00381">
        <ele>149</ele>
        <time>2011-10-23T10:14:21Z</time>
      </trkpt>
      <trkpt lat="48.51086" lon="2.00396">
        <ele>145</ele>
        <time>2011-10-23T10:14:24Z</time>
      </trkpt>
      <trkpt lat="48.51092" lon="2.00415">
        <ele>147</ele>
        <time>2011-10-23T10:14:28Z</time>
      </trkpt>
      <trkpt lat="48.51087" lon="2.00424">
        <ele>147</ele>
        <time>2011-10-23T10:14:32Z</time>
      </trkpt>
      <trkpt lat="48.51072" lon="2.00448">
        <ele>152</ele>
        <time>2011-10-23T10:14:40Z</time>
      </trkpt>
      <trkpt lat="48.5106" lon="2.0047">
        <ele>153</ele>
        <time>2011-10-23T10:14:47Z</time>
      </trkpt>
      <trkpt lat="48.51045" lon="2.00494">
        <ele>154</ele>
        <time>2011-10-23T10:14:52Z</time>
      </trkpt>
      <trkpt lat="48.51034" lon="2.00512">
        <ele>155</ele>
        <time>2011-10-23T10:14:56Z</time>
      </trkpt>
      <trkpt lat="48.51024" lon="2.00531">
        <ele>156</ele>
        <time>2011-10-23T10:15:02Z</time>
      </trkpt>
      <trkpt lat="48.51015" lon="2.00548">
        <ele>157</ele>
        <time>2011-10-23T10:15:09Z</time>
      </trkpt>
      <trkpt lat="48.51007" lon="2.00561">
        <ele>157</ele>
        <time>2011-10-23T10:15:15Z</time>
      </trkpt>
      <trkpt lat="48.51" lon="2.00571">
        <ele>159</ele>
        <time>2011-10-23T10:15:21Z</time>
      </trkpt>
      <trkpt lat="48.50988" lon="2.00591">
        <ele>162</ele>
        <time>2011-10-23T10:15:27Z</time>
      </trkpt>
      <trkpt lat="48.50975" lon="2.00613">
        <ele>162</ele>
        <time>2011-10-23T10:15:33Z</time>
      </trkpt>
      <trkpt lat="48.50962" lon="2.00638">
        <ele>162</ele>
        <time>2011-10-23T10:15:38Z</time>
      </trkpt>
      <trkpt lat="48.5095" lon="2.00665">
        <ele>162</ele>
        <time>2011-10-23T10:15:44Z</time>
      </trkpt>
      <trkpt lat="48.50939" lon="2.00687">
        <ele>161</ele>
        <time>2011-10-23T10:15:48Z</time>
      </trkpt>
      <trkpt lat="48.50917" lon="2.00725">
        <ele>161</ele>
        <time>2011-10-23T10:15:54Z</time>
      </trkpt>
      <trkpt lat="48.5089" lon="2.0077">
        <ele>161</ele>
        <time>2011-10-23T10:16:01Z</time>
      </trkpt>
      <trkpt lat="48.50871" lon="2.00804">
        <ele>162</ele>
        <time>2011-10-23T10:16:07Z</time>
      </trkpt>
      <trkpt lat="48.50859" lon="2.00827">
        <ele>162</ele>
        <time>2011-10-23T10:16:11Z</time>
      </trkpt>
      <trkpt lat="48.50863" lon="2.00832">
        <ele>162</ele>
        <time>2011-10-23T10:16:15Z</time>
      </trkpt>
      <trkpt lat="48.50874" lon="2.00823">
        <ele>162</ele>
        <time>2011-10-23T10:16:19Z</time>
      </trkpt>
      <trkpt lat="48.50893" lon="2.00797">
        <ele>161</ele>
        <time>2011-10-23T10:16:23Z</time>
      </trkpt>
      <trkpt lat="48.50914" lon="2.00765">
        <ele>161</ele>
        <time>2011-10-23T10:16:28Z</time>
      </trkpt>
      <trkpt lat="48.50918" lon="2.00758">
        <ele>160</ele>
        <time>2011-10-23T10:16:29Z</time>
      </trkpt>
      <trkpt lat="48.50938" lon="2.00733">
        <ele>161</ele>
        <time>2011-10-23T10:16:33Z</time>
      </trkpt>
      <trkpt lat="48.50949" lon="2.00724">
        <ele>161</ele>
        <time>2011-10-23T10:16:35Z</time>
      </trkpt>
      <trkpt lat="48.50964" lon="2.00718">
        <ele>161</ele>
        <time>2011-10-23T10:16:38Z</time>
      </trkpt>
      <trkpt lat="48.50989" lon="2.00722">
        <ele>160</ele>
        <time>2011-10-23T10:16:43Z</time>
      </trkpt>
      <trkpt lat="48.50994" lon="2.00724">
        <ele>160</ele>
        <time>2011-10-23T10:16:44Z</time>
      </trkpt>
      <trkpt lat="48.51018" lon="2.00737">
        <ele>157</ele>
        <time>2011-10-23T10:16:49Z</time>
      </trkpt>
      <trkpt lat="48.51039" lon="2.00753">
        <ele>154</ele>
        <time>2011-10-23T10:16:53Z</time>
      </trkpt>
      <trkpt lat="48.51062" lon="2.00762">
        <ele>153</ele>
        <time>2011-10-23T10:16:57Z</time>
      </trkpt>
      <trkpt lat="48.511" lon="2.00764">
        <ele>149</ele>
        <time>2011-10-23T10:17:03Z</time>
      </trkpt>
      <trkpt lat="48.51126" lon="2.00763">
        <ele>147</ele>
        <time>2011-10-23T10:17:07Z</time>
      </trkpt>
      <trkpt lat="48.51151" lon="2.00757">
        <ele>145</ele>
        <time>2011-10-23T10:17:11Z</time>
      </trkpt>
      <trkpt lat="48.51173" lon="2.00758">
        <ele>141</ele>
        <time>2011-10-23T10:17:16Z</time>
      </trkpt>
      <trkpt lat="48.51183" lon="2.00757">
        <ele>140</ele>
        <time>2011-10-23T10:17:18Z</time>
      </trkpt>
      <trkpt lat="48.51195" lon="2.00753">
        <ele>139</ele>
        <time>2011-10-23T10:17:21Z</time>
      </trkpt>
      <trkpt lat="48.51205" lon="2.00749">
        <ele>137</ele>
        <time>2011-10-23T10:17:25Z</time>
      </trkpt>
      <trkpt lat="48.51208" lon="2.00748">
        <ele>137</ele>
        <time>2011-10-23T10:17:36Z</time>
      </trkpt>
      <trkpt lat="48.51212" lon="2.00746">
        <ele>136</ele>
        <time>2011-10-23T10:17:46Z</time>
      </trkpt>
      <trkpt lat="48.51214" lon="2.00742">
        <ele>136</ele>
        <time>2011-10-23T10:17:50Z</time>
      </trkpt>
      <trkpt lat="48.51212" lon="2.00742">
        <ele>136</ele>
        <time>2011-10-23T10:18:19Z</time>
      </trkpt>
      <trkpt lat="48.51214" lon="2.00734">
        <ele>136</ele>
        <time>2011-10-23T10:18:31Z</time>
      </trkpt>
      <trkpt lat="48.51213" lon="2.00738">
        <ele>136</ele>
        <time>2011-10-23T10:18:38Z</time>
      </trkpt>
      <trkpt lat="48.51206" lon="2.00742">
        <ele>137</ele>
        <time>2011-10-23T10:19:52Z</time>
      </trkpt>
      <trkpt lat="48.51211" lon="2.00741">
        <ele>136</ele>
        <time>2011-10-23T10:20:16Z</time>
      </trkpt>
      <trkpt lat="48.51212" lon="2.00743">
        <ele>136</ele>
        <time>2011-10-23T10:20:41Z</time>
      </trkpt>
      <trkpt lat="48.51211" lon="2.00744">
        <ele>136</ele>
        <time>2011-10-23T10:20:51Z</time>
      </trkpt>
      <trkpt lat="48.5121" lon="2.00745">
        <ele>137</ele>
        <time>2011-10-23T10:21:17Z</time>
      </trkpt>
      <trkpt lat="48.51204" lon="2.00747">
        <ele>137</ele>
        <time>2011-10-23T10:21:29Z</time>
      </trkpt>
      <trkpt lat="48.51206" lon="2.0075">
        <ele>138</ele>
        <time>2011-10-23T10:22:01Z</time>
      </trkpt>
      <trkpt lat="48.51207" lon="2.00749">
        <ele>137</ele>
        <time>2011-10-23T10:22:18Z</time>
      </trkpt>
      <trkpt lat="48.51209" lon="2.00747">
        <ele>137</ele>
        <time>2011-10-23T10:22:38Z</time>
      </trkpt>
      <trkpt lat="48.5121" lon="2.00747">
        <ele>137</ele>
        <time>2011-10-23T10:22:48Z</time>
      </trkpt>
      <trkpt lat="48.51214" lon="2.00743">
        <ele>136</ele>
        <time>2011-10-23T10:23:12Z</time>
      </trkpt>
      <trkpt lat="48.51215" lon="2.00752">
        <ele>137</ele>
        <time>2011-10-23T10:41:17Z</time>
      </trkpt>
      <trkpt lat="48.51217" lon="2.00751">
        <ele>137</ele>
        <time>2011-10-23T10:41:21Z</time>
      </trkpt>
      <trkpt lat="48.51231" lon="2.00747">
        <ele>135</ele>
        <time>2011-10-23T10:41:26Z</time>
      </trkpt>
      <trkpt lat="48.51251" lon="2.00737">
        <ele>130</ele>
        <time>2011-10-23T10:41:30Z</time>
      </trkpt>
      <trkpt lat="48.51265" lon="2.00729">
        <ele>128</ele>
        <time>2011-10-23T10:41:33Z</time>
      </trkpt>
      <trkpt lat="48.51273" lon="2.00724">
        <ele>127</ele>
        <time>2011-10-23T10:41:35Z</time>
      </trkpt>
      <trkpt lat="48.51286" lon="2.00711">
        <ele>126</ele>
        <time>2011-10-23T10:41:38Z</time>
      </trkpt>
      <trkpt lat="48.51297" lon="2.00699">
        <ele>125</ele>
        <time>2011-10-23T10:41:40Z</time>
      </trkpt>
      <trkpt lat="48.5132" lon="2.00675">
        <ele>122</ele>
        <time>2011-10-23T10:41:45Z</time>
      </trkpt>
      <trkpt lat="48.5133" lon="2.00664">
        <ele>120</ele>
        <time>2011-10-23T10:41:47Z</time>
      </trkpt>
      <trkpt lat="48.51354" lon="2.00657">
        <ele>117</ele>
        <time>2011-10-23T10:41:52Z</time>
      </trkpt>
      <trkpt lat="48.5137" lon="2.00661">
        <ele>115</ele>
        <time>2011-10-23T10:41:55Z</time>
      </trkpt>
      <trkpt lat="48.51386" lon="2.00666">
        <ele>114</ele>
        <time>2011-10-23T10:41:58Z</time>
      </trkpt>
      <trkpt lat="48.51395" lon="2.00671">
        <ele>114</ele>
        <time>2011-10-23T10:42:00Z</time>
      </trkpt>
      <trkpt lat="48.51408" lon="2.00676">
        <ele>113</ele>
        <time>2011-10-23T10:42:04Z</time>
      </trkpt>
      <trkpt lat="48.51412" lon="2.00687">
        <ele>113</ele>
        <time>2011-10-23T10:42:08Z</time>
      </trkpt>
      <trkpt lat="48.51409" lon="2.00709">
        <ele>114</ele>
        <time>2011-10-23T10:42:13Z</time>
      </trkpt>
      <trkpt lat="48.51408" lon="2.00714">
        <ele>114</ele>
        <time>2011-10-23T10:42:14Z</time>
      </trkpt>
      <trkpt lat="48.51403" lon="2.00746">
        <ele>114</ele>
        <time>2011-10-23T10:42:20Z</time>
      </trkpt>
      <trkpt lat="48.51399" lon="2.00779">
        <ele>115</ele>
        <time>2011-10-23T10:42:25Z</time>
      </trkpt>
      <trkpt lat="48.51397" lon="2.00811">
        <ele>115</ele>
        <time>2011-10-23T10:42:30Z</time>
      </trkpt>
      <trkpt lat="48.51394" lon="2.0085">
        <ele>115</ele>
        <time>2011-10-23T10:42:35Z</time>
      </trkpt>
      <trkpt lat="48.51393" lon="2.00869">
        <ele>115</ele>
        <time>2011-10-23T10:42:39Z</time>
      </trkpt>
      <trkpt lat="48.51392" lon="2.00885">
        <ele>115</ele>
        <time>2011-10-23T10:42:42Z</time>
      </trkpt>
      <trkpt lat="48.51379" lon="2.00923">
        <ele>115</ele>
        <time>2011-10-23T10:42:49Z</time>
      </trkpt>
      <trkpt lat="48.5136" lon="2.00962">
        <ele>116</ele>
        <time>2011-10-23T10:42:55Z</time>
      </trkpt>
      <trkpt lat="48.51353" lon="2.00978">
        <ele>116</ele>
        <time>2011-10-23T10:42:57Z</time>
      </trkpt>
      <trkpt lat="48.51337" lon="2.01025">
        <ele>116</ele>
        <time>2011-10-23T10:43:02Z</time>
      </trkpt>
      <trkpt lat="48.51331" lon="2.01055">
        <ele>119</ele>
        <time>2011-10-23T10:43:06Z</time>
      </trkpt>
      <trkpt lat="48.51325" lon="2.01078">
        <ele>118</ele>
        <time>2011-10-23T10:43:09Z</time>
      </trkpt>
      <trkpt lat="48.51325" lon="2.0109">
        <ele>118</ele>
        <time>2011-10-23T10:43:11Z</time>
      </trkpt>
      <trkpt lat="48.51327" lon="2.01108">
        <ele>119</ele>
        <time>2011-10-23T10:43:14Z</time>
      </trkpt>
      <trkpt lat="48.51319" lon="2.01129">
        <ele>120</ele>
        <time>2011-10-23T10:43:18Z</time>
      </trkpt>
      <trkpt lat="48.51313" lon="2.01139">
        <ele>120</ele>
        <time>2011-10-23T10:43:20Z</time>
      </trkpt>
      <trkpt lat="48.51302" lon="2.01163">
        <ele>121</ele>
        <time>2011-10-23T10:43:26Z</time>
      </trkpt>
      <trkpt lat="48.51295" lon="2.01183">
        <ele>123</ele>
        <time>2011-10-23T10:43:31Z</time>
      </trkpt>
      <trkpt lat="48.51286" lon="2.01206">
        <ele>124</ele>
        <time>2011-10-23T10:43:39Z</time>
      </trkpt>
      <trkpt lat="48.51274" lon="2.01231">
        <ele>125</ele>
        <time>2011-10-23T10:43:47Z</time>
      </trkpt>
      <trkpt lat="48.51267" lon="2.01252">
        <ele>127</ele>
        <time>2011-10-23T10:43:54Z</time>
      </trkpt>
      <trkpt lat="48.51261" lon="2.01267">
        <ele>127</ele>
        <time>2011-10-23T10:43:59Z</time>
      </trkpt>
      <trkpt lat="48.51254" lon="2.01287">
        <ele>128</ele>
        <time>2011-10-23T10:44:06Z</time>
      </trkpt>
      <trkpt lat="48.51248" lon="2.01302">
        <ele>131</ele>
        <time>2011-10-23T10:44:12Z</time>
      </trkpt>
      <trkpt lat="48.51239" lon="2.01321">
        <ele>131</ele>
        <time>2011-10-23T10:44:17Z</time>
      </trkpt>
      <trkpt lat="48.51223" lon="2.01362">
        <ele>133</ele>
        <time>2011-10-23T10:44:25Z</time>
      </trkpt>
      <trkpt lat="48.51211" lon="2.01391">
        <ele>133</ele>
        <time>2011-10-23T10:44:30Z</time>
      </trkpt>
      <trkpt lat="48.51199" lon="2.01415">
        <ele>134</ele>
        <time>2011-10-23T10:44:34Z</time>
      </trkpt>
      <trkpt lat="48.5118" lon="2.01456">
        <ele>134</ele>
        <time>2011-10-23T10:44:40Z</time>
      </trkpt>
      <trkpt lat="48.51174" lon="2.01468">
        <ele>134</ele>
        <time>2011-10-23T10:44:42Z</time>
      </trkpt>
      <trkpt lat="48.51167" lon="2.01484">
        <ele>139</ele>
        <time>2011-10-23T10:44:46Z</time>
      </trkpt>
      <trkpt lat="48.51164" lon="2.01492">
        <ele>139</ele>
        <time>2011-10-23T10:44:48Z</time>
      </trkpt>
      <trkpt lat="48.51158" lon="2.01508">
        <ele>138</ele>
        <time>2011-10-23T10:44:53Z</time>
      </trkpt>
      <trkpt lat="48.51156" lon="2.01518">
        <ele>138</ele>
        <time>2011-10-23T10:44:57Z</time>
      </trkpt>
      <trkpt lat="48.51153" lon="2.01532">
        <ele>138</ele>
        <time>2011-10-23T10:45:03Z</time>
      </trkpt>
      <trkpt lat="48.51144" lon="2.01551">
        <ele>138</ele>
        <time>2011-10-23T10:45:11Z</time>
      </trkpt>
      <trkpt lat="48.51128" lon="2.01581">
        <ele>137</ele>
        <time>2011-10-23T10:45:17Z</time>
      </trkpt>
      <trkpt lat="48.51111" lon="2.01609">
        <ele>134</ele>
        <time>2011-10-23T10:45:21Z</time>
      </trkpt>
      <trkpt lat="48.51106" lon="2.01617">
        <ele>134</ele>
        <time>2011-10-23T10:45:22Z</time>
      </trkpt>
      <trkpt lat="48.51095" lon="2.01629">
        <ele>133</ele>
        <time>2011-10-23T10:45:24Z</time>
      </trkpt>
      <trkpt lat="48.51076" lon="2.01642">
        <ele>132</ele>
        <time>2011-10-23T10:45:27Z</time>
      </trkpt>
      <trkpt lat="48.51056" lon="2.01658">
        <ele>131</ele>
        <time>2011-10-23T10:45:30Z</time>
      </trkpt>
      <trkpt lat="48.51041" lon="2.0166">
        <ele>131</ele>
        <time>2011-10-23T10:45:34Z</time>
      </trkpt>
      <trkpt lat="48.51033" lon="2.01641">
        <ele>132</ele>
        <time>2011-10-23T10:45:38Z</time>
      </trkpt>
      <trkpt lat="48.5103" lon="2.01637">
        <ele>132</ele>
        <time>2011-10-23T10:45:39Z</time>
      </trkpt>
      <trkpt lat="48.51015" lon="2.01615">
        <ele>133</ele>
        <time>2011-10-23T10:45:45Z</time>
      </trkpt>
      <trkpt lat="48.51001" lon="2.0159">
        <ele>134</ele>
        <time>2011-10-23T10:45:51Z</time>
      </trkpt>
      <trkpt lat="48.5099" lon="2.0157">
        <ele>136</ele>
        <time>2011-10-23T10:45:57Z</time>
      </trkpt>
      <trkpt lat="48.50984" lon="2.01554">
        <ele>137</ele>
        <time>2011-10-23T10:46:02Z</time>
      </trkpt>
      <trkpt lat="48.5098" lon="2.01542">
        <ele>138</ele>
        <time>2011-10-23T10:46:07Z</time>
      </trkpt>
      <trkpt lat="48.50976" lon="2.01534">
        <ele>138</ele>
        <time>2011-10-23T10:46:12Z</time>
      </trkpt>
      <trkpt lat="48.50974" lon="2.01526">
        <ele>138</ele>
        <time>2011-10-23T10:46:15Z</time>
      </trkpt>
      <trkpt lat="48.50972" lon="2.01508">
        <ele>139</ele>
        <time>2011-10-23T10:46:20Z</time>
      </trkpt>
      <trkpt lat="48.50968" lon="2.01487">
        <ele>142</ele>
        <time>2011-10-23T10:46:25Z</time>
      </trkpt>
      <trkpt lat="48.50961" lon="2.01469">
        <ele>142</ele>
        <time>2011-10-23T10:46:30Z</time>
      </trkpt>
      <trkpt lat="48.50952" lon="2.01447">
        <ele>143</ele>
        <time>2011-10-23T10:46:36Z</time>
      </trkpt>
      <trkpt lat="48.50945" lon="2.01432">
        <ele>143</ele>
        <time>2011-10-23T10:46:41Z</time>
      </trkpt>
      <trkpt lat="48.50938" lon="2.01423">
        <ele>144</ele>
        <time>2011-10-23T10:46:45Z</time>
      </trkpt>
      <trkpt lat="48.50927" lon="2.01401">
        <ele>147</ele>
        <time>2011-10-23T10:46:53Z</time>
      </trkpt>
      <trkpt lat="48.50919" lon="2.01383">
        <ele>148</ele>
        <time>2011-10-23T10:46:59Z</time>
      </trkpt>
      <trkpt lat="48.50914" lon="2.01372">
        <ele>149</ele>
        <time>2011-10-23T10:47:03Z</time>
      </trkpt>
      <trkpt lat="48.50905" lon="2.01354">
        <ele>150</ele>
        <time>2011-10-23T10:47:09Z</time>
      </trkpt>
      <trkpt lat="48.50895" lon="2.01332">
        <ele>154</ele>
        <time>2011-10-23T10:47:16Z</time>
      </trkpt>
      <trkpt lat="48.50883" lon="2.01302">
        <ele>154</ele>
        <time>2011-10-23T10:47:24Z</time>
      </trkpt>
      <trkpt lat="48.50873" lon="2.01289">
        <ele>155</ele>
        <time>2011-10-23T10:47:29Z</time>
      </trkpt>
      <trkpt lat="48.50862" lon="2.01271">
        <ele>155</ele>
        <time>2011-10-23T10:47:34Z</time>
      </trkpt>
      <trkpt lat="48.50846" lon="2.01247">
        <ele>157</ele>
        <time>2011-10-23T10:47:40Z</time>
      </trkpt>
      <trkpt lat="48.50833" lon="2.01226">
        <ele>158</ele>
        <time>2011-10-23T10:47:45Z</time>
      </trkpt>
      <trkpt lat="48.50813" lon="2.01193">
        <ele>159</ele>
        <time>2011-10-23T10:47:52Z</time>
      </trkpt>
      <trkpt lat="48.50811" lon="2.01187">
        <ele>159</ele>
        <time>2011-10-23T10:47:53Z</time>
      </trkpt>
      <trkpt lat="48.50802" lon="2.01166">
        <ele>160</ele>
        <time>2011-10-23T10:47:57Z</time>
      </trkpt>
      <trkpt lat="48.50798" lon="2.01137">
        <ele>160</ele>
        <time>2011-10-23T10:48:02Z</time>
      </trkpt>
      <trkpt lat="48.50797" lon="2.01122">
        <ele>161</ele>
        <time>2011-10-23T10:48:04Z</time>
      </trkpt>
      <trkpt lat="48.50793" lon="2.01059">
        <ele>161</ele>
        <time>2011-10-23T10:48:12Z</time>
      </trkpt>
      <trkpt lat="48.50793" lon="2.01035">
        <ele>161</ele>
        <time>2011-10-23T10:48:15Z</time>
      </trkpt>
      <trkpt lat="48.50789" lon="2.00987">
        <ele>161</ele>
        <time>2011-10-23T10:48:21Z</time>
      </trkpt>
      <trkpt lat="48.50779" lon="2.00965">
        <ele>161</ele>
        <time>2011-10-23T10:48:26Z</time>
      </trkpt>
      <trkpt lat="48.5077" lon="2.00981">
        <ele>161</ele>
        <time>2011-10-23T10:48:29Z</time>
      </trkpt>
      <trkpt lat="48.50744" lon="2.0103">
        <ele>160</ele>
        <time>2011-10-23T10:48:37Z</time>
      </trkpt>
      <trkpt lat="48.50725" lon="2.01067">
        <ele>159</ele>
        <time>2011-10-23T10:48:43Z</time>
      </trkpt>
      <trkpt lat="48.50704" lon="2.01107">
        <ele>158</ele>
        <time>2011-10-23T10:48:49Z</time>
      </trkpt>
      <trkpt lat="48.50686" lon="2.0114">
        <ele>158</ele>
        <time>2011-10-23T10:48:54Z</time>
      </trkpt>
      <trkpt lat="48.5067" lon="2.01166">
        <ele>157</ele>
        <time>2011-10-23T10:48:58Z</time>
      </trkpt>
      <trkpt lat="48.50649" lon="2.01204">
        <ele>155</ele>
        <time>2011-10-23T10:49:03Z</time>
      </trkpt>
      <trkpt lat="48.50623" lon="2.01253">
        <ele>155</ele>
        <time>2011-10-23T10:49:10Z</time>
      </trkpt>
      <trkpt lat="48.50605" lon="2.01286">
        <ele>155</ele>
        <time>2011-10-23T10:49:15Z</time>
      </trkpt>
      <trkpt lat="48.50598" lon="2.01299">
        <ele>155</ele>
        <time>2011-10-23T10:49:17Z</time>
      </trkpt>
      <trkpt lat="48.50584" lon="2.01321">
        <ele>155</ele>
        <time>2011-10-23T10:49:20Z</time>
      </trkpt>
      <trkpt lat="48.50582" lon="2.01342">
        <ele>153</ele>
        <time>2011-10-23T10:49:24Z</time>
      </trkpt>
      <trkpt lat="48.50594" lon="2.01346">
        <ele>154</ele>
        <time>2011-10-23T10:49:27Z</time>
      </trkpt>
      <trkpt lat="48.50608" lon="2.01345">
        <ele>154</ele>
        <time>2011-10-23T10:49:30Z</time>
      </trkpt>
      <trkpt lat="48.50623" lon="2.01346">
        <ele>154</ele>
        <time>2011-10-23T10:49:33Z</time>
      </trkpt>
      <trkpt lat="48.50657" lon="2.01348">
        <ele>155</ele>
        <time>2011-10-23T10:49:39Z</time>
      </trkpt>
      <trkpt lat="48.50676" lon="2.0135">
        <ele>154</ele>
        <time>2011-10-23T10:49:42Z</time>
      </trkpt>
      <trkpt lat="48.50723" lon="2.0135">
        <ele>153</ele>
        <time>2011-10-23T10:49:49Z</time>
      </trkpt>
      <trkpt lat="48.50748" lon="2.01347">
        <ele>153</ele>
        <time>2011-10-23T10:49:53Z</time>
      </trkpt>
      <trkpt lat="48.5078" lon="2.01345">
        <ele>151</ele>
        <time>2011-10-23T10:49:58Z</time>
      </trkpt>
      <trkpt lat="48.5079" lon="2.01339">
        <ele>151</ele>
        <time>2011-10-23T10:50:01Z</time>
      </trkpt>
      <trkpt lat="48.50795" lon="2.01339">
        <ele>151</ele>
        <time>2011-10-23T10:50:03Z</time>
      </trkpt>
      <trkpt lat="48.50802" lon="2.01344">
        <ele>151</ele>
        <time>2011-10-23T10:50:07Z</time>
      </trkpt>
      <trkpt lat="48.50817" lon="2.01349">
        <ele>151</ele>
        <time>2011-10-23T10:50:12Z</time>
      </trkpt>
      <trkpt lat="48.5083" lon="2.01366">
        <ele>150</ele>
        <time>2011-10-23T10:50:15Z</time>
      </trkpt>
      <trkpt lat="48.50867" lon="2.01428">
        <ele>143</ele>
        <time>2011-10-23T10:50:23Z</time>
      </trkpt>
      <trkpt lat="48.50872" lon="2.01434">
        <ele>142</ele>
        <time>2011-10-23T10:50:24Z</time>
      </trkpt>
      <trkpt lat="48.50899" lon="2.01465">
        <ele>142</ele>
        <time>2011-10-23T10:50:29Z</time>
      </trkpt>
      <trkpt lat="48.50929" lon="2.01503">
        <ele>139</ele>
        <time>2011-10-23T10:50:35Z</time>
      </trkpt>
      <trkpt lat="48.5094" lon="2.01529">
        <ele>138</ele>
        <time>2011-10-23T10:50:38Z</time>
      </trkpt>
      <trkpt lat="48.50958" lon="2.01569">
        <ele>137</ele>
        <time>2011-10-23T10:50:43Z</time>
      </trkpt>
      <trkpt lat="48.50966" lon="2.01587">
        <ele>134</ele>
        <time>2011-10-23T10:50:45Z</time>
      </trkpt>
      <trkpt lat="48.50978" lon="2.0161">
        <ele>133</ele>
        <time>2011-10-23T10:50:48Z</time>
      </trkpt>
      <trkpt lat="48.50974" lon="2.01639">
        <ele>132</ele>
        <time>2011-10-23T10:50:52Z</time>
      </trkpt>
      <trkpt lat="48.50964" lon="2.01647">
        <ele>132</ele>
        <time>2011-10-23T10:50:54Z</time>
      </trkpt>
      <trkpt lat="48.50946" lon="2.01686">
        <ele>128</ele>
        <time>2011-10-23T10:50:59Z</time>
      </trkpt>
      <trkpt lat="48.50938" lon="2.01699">
        <ele>127</ele>
        <time>2011-10-23T10:51:01Z</time>
      </trkpt>
      <trkpt lat="48.50914" lon="2.01755">
        <ele>124</ele>
        <time>2011-10-23T10:51:08Z</time>
      </trkpt>
      <trkpt lat="48.50904" lon="2.01785">
        <ele>124</ele>
        <time>2011-10-23T10:51:11Z</time>
      </trkpt>
      <trkpt lat="48.50902" lon="2.01778">
        <ele>124</ele>
        <time>2011-10-23T10:51:14Z</time>
      </trkpt>
      <trkpt lat="48.509" lon="2.01756">
        <ele>124</ele>
        <time>2011-10-23T10:51:19Z</time>
      </trkpt>
      <trkpt lat="48.50887" lon="2.01734">
        <ele>125</ele>
        <time>2011-10-23T10:51:24Z</time>
      </trkpt>
      <trkpt lat="48.50875" lon="2.01721">
        <ele>126</ele>
        <time>2011-10-23T10:51:27Z</time>
      </trkpt>
      <trkpt lat="48.50851" lon="2.01712">
        <ele>125</ele>
        <time>2011-10-23T10:51:33Z</time>
      </trkpt>
      <trkpt lat="48.50837" lon="2.01716">
        <ele>125</ele>
        <time>2011-10-23T10:51:38Z</time>
      </trkpt>
      <trkpt lat="48.50825" lon="2.01718">
        <ele>124</ele>
        <time>2011-10-23T10:51:42Z</time>
      </trkpt>
      <trkpt lat="48.50824" lon="2.01719">
        <ele>124</ele>
        <time>2011-10-23T10:51:43Z</time>
      </trkpt>
      <trkpt lat="48.50808" lon="2.01731">
        <ele>125</ele>
        <time>2011-10-23T10:51:48Z</time>
      </trkpt>
      <trkpt lat="48.50781" lon="2.01739">
        <ele>125</ele>
        <time>2011-10-23T10:51:55Z</time>
      </trkpt>
      <trkpt lat="48.50768" lon="2.01743">
        <ele>126</ele>
        <time>2011-10-23T10:51:58Z</time>
      </trkpt>
      <trkpt lat="48.50753" lon="2.01755">
        <ele>129</ele>
        <time>2011-10-23T10:52:02Z</time>
      </trkpt>
      <trkpt lat="48.5073" lon="2.01759">
        <ele>133</ele>
        <time>2011-10-23T10:52:08Z</time>
      </trkpt>
      <trkpt lat="48.50715" lon="2.01751">
        <ele>133</ele>
        <time>2011-10-23T10:52:12Z</time>
      </trkpt>
      <trkpt lat="48.50698" lon="2.01737">
        <ele>127</ele>
        <time>2011-10-23T10:52:17Z</time>
      </trkpt>
      <trkpt lat="48.50687" lon="2.01729">
        <ele>127</ele>
        <time>2011-10-23T10:52:21Z</time>
      </trkpt>
      <trkpt lat="48.50681" lon="2.01727">
        <ele>127</ele>
        <time>2011-10-23T10:52:23Z</time>
      </trkpt>
      <trkpt lat="48.50661" lon="2.01723">
        <ele>127</ele>
        <time>2011-10-23T10:52:29Z</time>
      </trkpt>
      <trkpt lat="48.50658" lon="2.01724">
        <ele>127</ele>
        <time>2011-10-23T10:52:30Z</time>
      </trkpt>
      <trkpt lat="48.50653" lon="2.01728">
        <ele>128</ele>
        <time>2011-10-23T10:52:32Z</time>
      </trkpt>
      <trkpt lat="48.50639" lon="2.01731">
        <ele>128</ele>
        <time>2011-10-23T10:52:37Z</time>
      </trkpt>
      <trkpt lat="48.50631" lon="2.01732">
        <ele>128</ele>
        <time>2011-10-23T10:52:40Z</time>
      </trkpt>
      <trkpt lat="48.5061" lon="2.01736">
        <ele>128</ele>
        <time>2011-10-23T10:52:45Z</time>
      </trkpt>
      <trkpt lat="48.50593" lon="2.01738">
        <ele>129</ele>
        <time>2011-10-23T10:52:49Z</time>
      </trkpt>
      <trkpt lat="48.50579" lon="2.01725">
        <ele>132</ele>
        <time>2011-10-23T10:52:54Z</time>
      </trkpt>
      <trkpt lat="48.5057" lon="2.01716">
        <ele>132</ele>
        <time>2011-10-23T10:52:56Z</time>
      </trkpt>
      <trkpt lat="48.50554" lon="2.01707">
        <ele>132</ele>
        <time>2011-10-23T10:53:00Z</time>
      </trkpt>
      <trkpt lat="48.50547" lon="2.01701">
        <ele>132</ele>
        <time>2011-10-23T10:53:02Z</time>
      </trkpt>
      <trkpt lat="48.50541" lon="2.01696">
        <ele>132</ele>
        <time>2011-10-23T10:53:04Z</time>
      </trkpt>
      <trkpt lat="48.50534" lon="2.01689">
        <ele>132</ele>
        <time>2011-10-23T10:53:06Z</time>
      </trkpt>
      <trkpt lat="48.5052" lon="2.01682">
        <ele>133</ele>
        <time>2011-10-23T10:53:10Z</time>
      </trkpt>
      <trkpt lat="48.5051" lon="2.01676">
        <ele>133</ele>
        <time>2011-10-23T10:53:15Z</time>
      </trkpt>
      <trkpt lat="48.50501" lon="2.01664">
        <ele>133</ele>
        <time>2011-10-23T10:53:22Z</time>
      </trkpt>
      <trkpt lat="48.50495" lon="2.01651">
        <ele>135</ele>
        <time>2011-10-23T10:53:27Z</time>
      </trkpt>
      <trkpt lat="48.50487" lon="2.01643">
        <ele>135</ele>
        <time>2011-10-23T10:53:32Z</time>
      </trkpt>
      <trkpt lat="48.50473" lon="2.01633">
        <ele>135</ele>
        <time>2011-10-23T10:53:37Z</time>
      </trkpt>
      <trkpt lat="48.50454" lon="2.01616">
        <ele>136</ele>
        <time>2011-10-23T10:53:41Z</time>
      </trkpt>
      <trkpt lat="48.50446" lon="2.0161">
        <ele>136</ele>
        <time>2011-10-23T10:53:43Z</time>
      </trkpt>
      <trkpt lat="48.50419" lon="2.01591">
        <ele>135</ele>
        <time>2011-10-23T10:53:49Z</time>
      </trkpt>
      <trkpt lat="48.50397" lon="2.01566">
        <ele>137</ele>
        <time>2011-10-23T10:53:55Z</time>
      </trkpt>
      <trkpt lat="48.50383" lon="2.0155">
        <ele>137</ele>
        <time>2011-10-23T10:53:59Z</time>
      </trkpt>
      <trkpt lat="48.50364" lon="2.01536">
        <ele>138</ele>
        <time>2011-10-23T10:54:04Z</time>
      </trkpt>
      <trkpt lat="48.50349" lon="2.01533">
        <ele>138</ele>
        <time>2011-10-23T10:54:09Z</time>
      </trkpt>
      <trkpt lat="48.50344" lon="2.01531">
        <ele>138</ele>
        <time>2011-10-23T10:54:11Z</time>
      </trkpt>
      <trkpt lat="48.50326" lon="2.01527">
        <ele>142</ele>
        <time>2011-10-23T10:54:17Z</time>
      </trkpt>
      <trkpt lat="48.50325" lon="2.01528">
        <ele>142</ele>
        <time>2011-10-23T10:54:18Z</time>
      </trkpt>
      <trkpt lat="48.50316" lon="2.01547">
        <ele>144</ele>
        <time>2011-10-23T10:54:25Z</time>
      </trkpt>
      <trkpt lat="48.50306" lon="2.01568">
        <ele>145</ele>
        <time>2011-10-23T10:54:32Z</time>
      </trkpt>
      <trkpt lat="48.50304" lon="2.01593">
        <ele>148</ele>
        <time>2011-10-23T10:54:39Z</time>
      </trkpt>
      <trkpt lat="48.50305" lon="2.0161">
        <ele>148</ele>
        <time>2011-10-23T10:54:45Z</time>
      </trkpt>
      <trkpt lat="48.50304" lon="2.01628">
        <ele>149</ele>
        <time>2011-10-23T10:54:52Z</time>
      </trkpt>
      <trkpt lat="48.50302" lon="2.01642">
        <ele>149</ele>
        <time>2011-10-23T10:54:57Z</time>
      </trkpt>
      <trkpt lat="48.503" lon="2.01651">
        <ele>149</ele>
        <time>2011-10-23T10:55:01Z</time>
      </trkpt>
      <trkpt lat="48.50295" lon="2.01668">
        <ele>151</ele>
        <time>2011-10-23T10:55:08Z</time>
      </trkpt>
      <trkpt lat="48.50286" lon="2.01681">
        <ele>150</ele>
        <time>2011-10-23T10:55:15Z</time>
      </trkpt>
      <trkpt lat="48.50282" lon="2.01693">
        <ele>150</ele>
        <time>2011-10-23T10:55:21Z</time>
      </trkpt>
      <trkpt lat="48.50287" lon="2.01699">
        <ele>150</ele>
        <time>2011-10-23T10:55:26Z</time>
      </trkpt>
      <trkpt lat="48.50301" lon="2.01696">
        <ele>151</ele>
        <time>2011-10-23T10:55:32Z</time>
      </trkpt>
      <trkpt lat="48.50318" lon="2.01703">
        <ele>151</ele>
        <time>2011-10-23T10:55:37Z</time>
      </trkpt>
      <trkpt lat="48.50332" lon="2.01725">
        <ele>151</ele>
        <time>2011-10-23T10:55:42Z</time>
      </trkpt>
      <trkpt lat="48.50346" lon="2.01756">
        <ele>151</ele>
        <time>2011-10-23T10:55:48Z</time>
      </trkpt>
      <trkpt lat="48.5035" lon="2.01767">
        <ele>151</ele>
        <time>2011-10-23T10:55:50Z</time>
      </trkpt>
      <trkpt lat="48.50345" lon="2.01791">
        <ele>151</ele>
        <time>2011-10-23T10:55:54Z</time>
      </trkpt>
      <trkpt lat="48.50317" lon="2.0183">
        <ele>151</ele>
        <time>2011-10-23T10:56:02Z</time>
      </trkpt>
      <trkpt lat="48.50288" lon="2.01867">
        <ele>151</ele>
        <time>2011-10-23T10:56:10Z</time>
      </trkpt>
      <trkpt lat="48.50285" lon="2.01871">
        <ele>151</ele>
        <time>2011-10-23T10:56:11Z</time>
      </trkpt>
      <trkpt lat="48.50268" lon="2.01874">
        <ele>151</ele>
        <time>2011-10-23T10:56:15Z</time>
      </trkpt>
      <trkpt lat="48.50258" lon="2.01876">
        <ele>151</ele>
        <time>2011-10-23T10:56:18Z</time>
      </trkpt>
      <trkpt lat="48.5025" lon="2.01884">
        <ele>151</ele>
        <time>2011-10-23T10:56:20Z</time>
      </trkpt>
      <trkpt lat="48.50226" lon="2.01908">
        <ele>151</ele>
        <time>2011-10-23T10:56:26Z</time>
      </trkpt>
      <trkpt lat="48.50189" lon="2.01945">
        <ele>152</ele>
        <time>2011-10-23T10:56:35Z</time>
      </trkpt>
      <trkpt lat="48.50175" lon="2.0196">
        <ele>152</ele>
        <time>2011-10-23T10:56:39Z</time>
      </trkpt>
      <trkpt lat="48.50158" lon="2.01961">
        <ele>152</ele>
        <time>2011-10-23T10:56:44Z</time>
      </trkpt>
      <trkpt lat="48.50151" lon="2.01954">
        <ele>152</ele>
        <time>2011-10-23T10:56:47Z</time>
      </trkpt>
      <trkpt lat="48.50152" lon="2.01942">
        <ele>152</ele>
        <time>2011-10-23T10:56:51Z</time>
      </trkpt>
      <trkpt lat="48.50155" lon="2.01937">
        <ele>152</ele>
        <time>2011-10-23T10:56:53Z</time>
      </trkpt>
    </trkseg>
  </trk>
</gpx>